Wetterdaten: Freitag, 22.03.2019
Datum Zeit Temp. A. Pool Temp. Temp. 5cm Feuchte A. Luftdruck Regen Wind Richtung Richtung Sonnenschein ET UV Solar Taupunkt Windchill Windben Empfang
22.03.2019 00:00 4,7 C 7,2 C -1,7 C 65 % 1031,8 hPa 0,0 l/m 4,6 km/h (1 Bft) O 96 0 min 0,000 mm 0,0 UV-I 0 W/m -1,3 C 4,7 C 6,4 km/h (2 Bft) 96,23 %
22.03.2019 00:02 4,6 C 7,2 C -1,7 C 65 % 1031,8 hPa 0,0 l/m 4,8 km/h (1 Bft) O 96 0 min 0,000 mm 0,0 UV-I 0 W/m -1,4 C 4,6 C 4,8 km/h (1 Bft) 97,83 %
22.03.2019 00:04 4,6 C 7,2 C -2,2 C 65 % 1031,8 hPa 0,0 l/m 3,6 km/h (1 Bft) O 91 0 min 0,000 mm 0,0 UV-I 0 W/m -1,4 C 4,6 C 4,8 km/h (1 Bft) 95,74 %
22.03.2019 00:06 4,8 C 7,2 C -2,2 C 64 % 1031,8 hPa 0,0 l/m 3,4 km/h (1 Bft) O 90 0 min 0,000 mm 0,0 UV-I 0 W/m -1,4 C 4,8 C 4,8 km/h (1 Bft) 95,74 %
22.03.2019 00:08 4,8 C 7,2 C -2,2 C 64 % 1031,8 hPa 0,0 l/m 3,0 km/h (1 Bft) O 90 0 min 0,000 mm 0,0 UV-I 0 W/m -1,4 C 4,8 C 4,8 km/h (1 Bft) 95,12 %
22.03.2019 00:10 4,9 C 7,2 C -2,2 C 63 % 1031,9 hPa 0,0 l/m 3,2 km/h (1 Bft) O 90 0 min 0,000 mm 0,0 UV-I 0 W/m -1,5 C 4,9 C 4,8 km/h (1 Bft) 94,34 %
22.03.2019 00:12 4,9 C 7,2 C -2,2 C 64 % 1031,9 hPa 0,0 l/m 2,1 km/h (1 Bft) O 89 0 min 0,000 mm 0,0 UV-I 0 W/m -1,3 C 4,9 C 3,2 km/h (1 Bft) 95,12 %
22.03.2019 00:14 4,8 C 7,2 C -2,2 C 64 % 1031,9 hPa 0,0 l/m 2,0 km/h (1 Bft) O 89 0 min 0,000 mm 0,0 UV-I 0 W/m -1,4 C 4,8 C 4,8 km/h (1 Bft) 97,73 %
22.03.2019 00:16 4,7 C 7,2 C -2,8 C 65 % 1031,8 hPa 0,0 l/m 2,7 km/h (1 Bft) O 90 0 min 0,000 mm 0,0 UV-I 0 W/m -1,3 C 4,7 C 4,8 km/h (1 Bft) 98,00 %
22.03.2019 00:18 4,4 C 7,2 C -2,8 C 65 % 1031,8 hPa 0,0 l/m 3,2 km/h (1 Bft) O 89 0 min 0,000 mm 0,0 UV-I 0 W/m -1,6 C 4,4 C 4,8 km/h (1 Bft) 97,87 %
22.03.2019 00:20 4,2 C 7,2 C -2,8 C 66 % 1031,8 hPa 0,0 l/m 2,7 km/h (1 Bft) O 90 0 min 0,000 mm 0,0 UV-I 0 W/m -1,6 C 4,2 C 3,2 km/h (1 Bft) 96,00 %
22.03.2019 00:22 3,9 C 7,2 C -2,8 C 67 % 1031,8 hPa 0,0 l/m 2,8 km/h (1 Bft) O 92 0 min 0,000 mm 0,0 UV-I 0 W/m -1,7 C 3,9 C 4,8 km/h (1 Bft) 97,62 %
22.03.2019 00:24 3,7 C 7,2 C -2,8 C 68 % 1031,8 hPa 0,0 l/m 3,3 km/h (1 Bft) O 94 0 min 0,000 mm 0,0 UV-I 0 W/m -1,6 C 3,7 C 4,8 km/h (1 Bft) 98,00 %
22.03.2019 00:26 3,4 C 7,2 C -2,8 C 69 % 1031,9 hPa 0,0 l/m 3,3 km/h (1 Bft) O 92 0 min 0,000 mm 0,0 UV-I 0 W/m -1,7 C 3,4 C 4,8 km/h (1 Bft) 96,00 %
22.03.2019 00:28 3,4 C 7,2 C -2,8 C 70 % 1031,8 hPa 0,0 l/m 3,2 km/h (1 Bft) O 93 0 min 0,000 mm 0,0 UV-I 0 W/m -1,5 C 3,4 C 4,8 km/h (1 Bft) 100,00 %
22.03.2019 00:30 3,5 C 7,2 C -2,8 C 69 % 1031,8 hPa 0,0 l/m 2,8 km/h (1 Bft) O 93 0 min 0,000 mm 0,0 UV-I 0 W/m -1,6 C 3,5 C 3,2 km/h (1 Bft) 100,00 %
22.03.2019 00:32 3,7 C 7,2 C -2,8 C 69 % 1031,8 hPa 0,0 l/m 2,8 km/h (1 Bft) O 93 0 min 0,000 mm 0,0 UV-I 0 W/m -1,4 C 3,7 C 3,2 km/h (1 Bft) 100,00 %
22.03.2019 00:34 3,8 C 7,2 C -3,3 C 69 % 1031,8 hPa 0,0 l/m 2,8 km/h (1 Bft) O 93 0 min 0,000 mm 0,0 UV-I 0 W/m -1,4 C 3,8 C 3,2 km/h (1 Bft) 100,00 %
22.03.2019 00:36 3,8 C 7,2 C -3,3 C 68 % 1031,8 hPa 0,0 l/m 3,2 km/h (1 Bft) O 93 0 min 0,000 mm 0,0 UV-I 0 W/m -1,6 C 3,8 C 4,8 km/h (1 Bft) 100,00 %
22.03.2019 00:38 3,8 C 7,2 C -3,3 C 68 % 1031,8 hPa 0,0 l/m 3,1 km/h (1 Bft) O 93 0 min 0,000 mm 0,0 UV-I 0 W/m -1,6 C 3,8 C 4,8 km/h (1 Bft) 100,00 %
22.03.2019 00:40 3,7 C 7,2 C -2,8 C 68 % 1031,8 hPa 0,0 l/m 3,1 km/h (1 Bft) O 93 0 min 0,000 mm 0,0 UV-I 0 W/m -1,6 C 3,7 C 4,8 km/h (1 Bft) 100,00 %
22.03.2019 00:42 3,6 C 7,2 C -3,3 C 69 % 1031,8 hPa 0,0 l/m 3,1 km/h (1 Bft) O 94 0 min 0,000 mm 0,0 UV-I 0 W/m -1,5 C 3,6 C 4,8 km/h (1 Bft) 100,00 %
22.03.2019 00:44 3,4 C 7,2 C -3,3 C 69 % 1031,8 hPa 0,0 l/m 2,8 km/h (1 Bft) O 94 0 min 0,000 mm 0,0 UV-I 0 W/m -1,7 C 3,4 C 4,8 km/h (1 Bft) 100,00 %
22.03.2019 00:46 3,2 C 7,2 C -3,3 C 70 % 1031,8 hPa 0,0 l/m 2,8 km/h (1 Bft) O 93 0 min 0,000 mm 0,0 UV-I 0 W/m -1,7 C 3,2 C 3,2 km/h (1 Bft) 100,00 %
22.03.2019 00:48 3,1 C 7,2 C -3,3 C 71 % 1031,8 hPa 0,0 l/m 2,3 km/h (1 Bft) O 93 0 min 0,000 mm 0,0 UV-I 0 W/m -1,6 C 3,1 C 3,2 km/h (1 Bft) 100,00 %
22.03.2019 00:50 3,1 C 7,2 C -3,3 C 71 % 1031,8 hPa 0,0 l/m 2,6 km/h (1 Bft) O 93 0 min 0,000 mm 0,0 UV-I 0 W/m -1,6 C 3,1 C 3,2 km/h (1 Bft) 100,00 %
22.03.2019 00:52 3,2 C 7,2 C -3,3 C 71 % 1031,8 hPa 0,0 l/m 2,4 km/h (1 Bft) O 93 0 min 0,000 mm 0,0 UV-I 0 W/m -1,5 C 3,2 C 4,8 km/h (1 Bft) 100,00 %
22.03.2019 00:54 3,3 C 7,2 C -3,9 C 70 % 1031,8 hPa 0,0 l/m 2,4 km/h (1 Bft) O 93 0 min 0,000 mm 0,0 UV-I 0 W/m -1,6 C 3,3 C 3,2 km/h (1 Bft) 97,56 %
22.03.2019 00:56 3,6 C 7,2 C -3,3 C 69 % 1031,8 hPa 0,0 l/m 2,4 km/h (1 Bft) O 93 0 min 0,000 mm 0,0 UV-I 0 W/m -1,5 C 3,6 C 3,2 km/h (1 Bft) 100,00 %
22.03.2019 00:58 3,7 C 7,2 C -3,3 C 69 % 1031,7 hPa 0,0 l/m 2,0 km/h (1 Bft) O 93 0 min 0,000 mm 0,0 UV-I 0 W/m -1,4 C 3,7 C 3,2 km/h (1 Bft) 100,00 %
22.03.2019 01:00 3,8 C 7,2 C -3,3 C 68 % 1031,8 hPa 0,0 l/m 1,8 km/h (1 Bft) O 93 0 min 0,025 mm 0,0 UV-I 0 W/m -1,6 C 3,8 C 3,2 km/h (1 Bft) 98,00 %
22.03.2019 01:02 3,7 C 7,2 C -3,3 C 68 % 1031,7 hPa 0,0 l/m 0,9 km/h (0 Bft) O 93 0 min 0,000 mm 0,0 UV-I 0 W/m -1,6 C 3,7 C 1,6 km/h (1 Bft) 100,00 %
22.03.2019 01:04 3,5 C 7,2 C -3,3 C 69 % 1031,7 hPa 0,0 l/m 0,3 km/h (0 Bft) O 93 0 min 0,000 mm 0,0 UV-I 0 W/m -1,6 C 3,5 C 1,6 km/h (1 Bft) 100,00 %
22.03.2019 01:06 3,3 C 7,2 C -3,3 C 70 % 1031,7 hPa 0,0 l/m 0,3 km/h (0 Bft) O 93 0 min 0,000 mm 0,0 UV-I 0 W/m -1,6 C 3,3 C 1,6 km/h (1 Bft) 100,00 %
22.03.2019 01:08 3,2 C 7,2 C -3,3 C 70 % 1031,7 hPa 0,0 l/m 0,4 km/h (0 Bft) O 93 0 min 0,000 mm 0,0 UV-I 0 W/m -1,7 C 3,2 C 1,6 km/h (1 Bft) 100,00 %
22.03.2019 01:10 3,0 C 7,2 C -3,3 C 71 % 1031,7 hPa 0,0 l/m 1,0 km/h (0 Bft) O 93 0 min 0,000 mm 0,0 UV-I 0 W/m -1,7 C 3,0 C 1,6 km/h (1 Bft) 94,64 %
22.03.2019 01:12 2,6 C 7,2 C -2,8 C 71 % 1031,7 hPa 0,0 l/m 1,2 km/h (1 Bft) O 93 0 min 0,000 mm 0,0 UV-I 0 W/m -2,1 C 2,6 C 1,6 km/h (1 Bft) 100,00 %
22.03.2019 01:14 2,3 C 7,2 C -2,8 C 73 % 1031,8 hPa 0,0 l/m 1,6 km/h (1 Bft) O 93 0 min 0,000 mm 0,0 UV-I 0 W/m -2,0 C 2,3 C 3,2 km/h (1 Bft) 100,00 %
22.03.2019 01:16 2,3 C 7,2 C -2,8 C 74 % 1031,7 hPa 0,0 l/m 1,7 km/h (1 Bft) O 93 0 min 0,000 mm 0,0 UV-I 0 W/m -1,8 C 2,3 C 3,2 km/h (1 Bft) 100,00 %
22.03.2019 01:18 2,4 C 7,2 C -2,8 C 73 % 1031,7 hPa 0,0 l/m 2,4 km/h (1 Bft) O 93 0 min 0,000 mm 0,0 UV-I 0 W/m -1,9 C 2,4 C 3,2 km/h (1 Bft) 93,62 %
22.03.2019 01:20 2,5 C 7,2 C -3,3 C 73 % 1031,7 hPa 0,0 l/m 2,9 km/h (1 Bft) O 93 0 min 0,000 mm 0,0 UV-I 0 W/m -1,8 C 2,5 C 3,2 km/h (1 Bft) 96,00 %
22.03.2019 01:22 2,5 C 7,2 C -2,8 C 73 % 1031,6 hPa 0,0 l/m 3,5 km/h (1 Bft) O 93 0 min 0,000 mm 0,0 UV-I 0 W/m -1,8 C 2,5 C 4,8 km/h (1 Bft) 98,00 %
22.03.2019 01:24 2,4 C 7,2 C -2,8 C 73 % 1031,6 hPa 0,0 l/m 3,7 km/h (1 Bft) O 95 0 min 0,000 mm 0,0 UV-I 0 W/m -1,9 C 2,4 C 4,8 km/h (1 Bft) 97,14 %
22.03.2019 01:26 2,4 C 7,2 C -3,3 C 73 % 1031,6 hPa 0,0 l/m 3,7 km/h (1 Bft) O-SO 105 0 min 0,000 mm 0,0 UV-I 0 W/m -1,9 C 2,4 C 4,8 km/h (1 Bft) 96,43 %
22.03.2019 01:28 2,3 C 7,2 C -2,8 C 73 % 1031,6 hPa 0,0 l/m 3,5 km/h (1 Bft) O-SO 105 0 min 0,000 mm 0,0 UV-I 0 W/m -2,0 C 2,3 C 4,8 km/h (1 Bft) 97,37 %
22.03.2019 01:30 2,3 C 7,2 C -3,3 C 74 % 1031,6 hPa 0,0 l/m 4,2 km/h (1 Bft) O-SO 103 0 min 0,000 mm 0,0 UV-I 0 W/m -1,8 C 2,3 C 4,8 km/h (1 Bft) 98,00 %
22.03.2019 01:32 2,4 C 7,2 C -3,3 C 74 % 1031,5 hPa 0,0 l/m 3,8 km/h (1 Bft) O 99 0 min 0,000 mm 0,0 UV-I 0 W/m -1,7 C 2,4 C 6,4 km/h (2 Bft) 93,18 %
22.03.2019 01:34 2,9 C 7,2 C -3,3 C 73 % 1031,6 hPa 0,0 l/m 3,8 km/h (1 Bft) O-NO 67 0 min 0,000 mm 0,0 UV-I 0 W/m -1,5 C 2,9 C 4,8 km/h (1 Bft) 98,00 %
22.03.2019 01:36 3,2 C 7,2 C -3,3 C 71 % 1031,6 hPa 0,0 l/m 4,3 km/h (1 Bft) O-NO 69 0 min 0,000 mm 0,0 UV-I 0 W/m -1,5 C 3,2 C 6,4 km/h (2 Bft) 97,87 %
22.03.2019 01:38 3,4 C 7,2 C -3,3 C 70 % 1031,5 hPa 0,0 l/m 3,2 km/h (1 Bft) O-NO 69 0 min 0,000 mm 0,0 UV-I 0 W/m -1,5 C 3,4 C 4,8 km/h (1 Bft) 100,00 %
22.03.2019 01:40 3,6 C 7,2 C -2,8 C 69 % 1031,5 hPa 0,0 l/m 3,8 km/h (1 Bft) O-NO 72 0 min 0,000 mm 0,0 UV-I 0 W/m -1,5 C 3,6 C 4,8 km/h (1 Bft) 100,00 %
22.03.2019 01:42 3,6 C 7,2 C -2,8 C 69 % 1031,5 hPa 0,0 l/m 3,3 km/h (1 Bft) O-NO 75 0 min 0,000 mm 0,0 UV-I 0 W/m -1,5 C 3,6 C 4,8 km/h (1 Bft) 100,00 %
22.03.2019 01:44 3,4 C 7,2 C -3,3 C 69 % 1031,5 hPa 0,0 l/m 2,5 km/h (1 Bft) O-NO 76 0 min 0,000 mm 0,0 UV-I 0 W/m -1,7 C 3,4 C 3,2 km/h (1 Bft) 97,62 %
22.03.2019 01:46 3,4 C 7,2 C -3,3 C 69 % 1031,5 hPa 0,0 l/m 2,4 km/h (1 Bft) O-NO 76 0 min 0,000 mm 0,0 UV-I 0 W/m -1,7 C 3,4 C 3,2 km/h (1 Bft) 97,87 %
22.03.2019 01:48 3,4 C 7,2 C -2,8 C 69 % 1031,5 hPa 0,0 l/m 2,8 km/h (1 Bft) O 88 0 min 0,000 mm 0,0 UV-I 0 W/m -1,7 C 3,4 C 4,8 km/h (1 Bft) 100,00 %
22.03.2019 01:50 3,3 C 7,2 C -2,8 C 70 % 1031,4 hPa 0,0 l/m 2,7 km/h (1 Bft) O 87 0 min 0,000 mm 0,0 UV-I 0 W/m -1,6 C 3,3 C 4,8 km/h (1 Bft) 100,00 %
22.03.2019 01:52 3,2 C 7,2 C -3,3 C 70 % 1031,4 hPa 0,0 l/m 3,0 km/h (1 Bft) O 88 0 min 0,000 mm 0,0 UV-I 0 W/m -1,7 C 3,2 C 4,8 km/h (1 Bft) 100,00 %
22.03.2019 01:54 3,2 C 7,2 C -3,3 C 70 % 1031,5 hPa 0,0 l/m 2,3 km/h (1 Bft) O 87 0 min 0,000 mm 0,0 UV-I 0 W/m -1,7 C 3,2 C 3,2 km/h (1 Bft) 100,00 %
22.03.2019 01:56 3,3 C 7,2 C -3,3 C 70 % 1031,4 hPa 0,0 l/m 2,1 km/h (1 Bft) O 87 0 min 0,000 mm 0,0 UV-I 0 W/m -1,6 C 3,3 C 3,2 km/h (1 Bft) 100,00 %
22.03.2019 01:58 3,3 C 7,2 C -3,3 C 70 % 1031,5 hPa 0,0 l/m 2,2 km/h (1 Bft) O 87 0 min 0,000 mm 0,0 UV-I 0 W/m -1,6 C 3,3 C 3,2 km/h (1 Bft) 100,00 %
22.03.2019 02:00 3,3 C 7,2 C -3,3 C 70 % 1031,4 hPa 0,0 l/m 1,9 km/h (1 Bft) O 87 0 min 0,000 mm 0,0 UV-I 0 W/m -1,6 C 3,3 C 3,2 km/h (1 Bft) 97,87 %
22.03.2019 02:02 3,3 C 7,2 C -3,9 C 70 % 1031,4 hPa 0,0 l/m 2,1 km/h (1 Bft) O 87 0 min 0,000 mm 0,0 UV-I 0 W/m -1,6 C 3,3 C 3,2 km/h (1 Bft) 100,00 %
22.03.2019 02:04 3,3 C 7,2 C -3,9 C 69 % 1031,4 hPa 0,0 l/m 1,9 km/h (1 Bft) O 87 0 min 0,000 mm 0,0 UV-I 0 W/m -1,8 C 3,3 C 3,2 km/h (1 Bft) 97,37 %
22.03.2019 02:06 3,2 C 7,2 C -3,9 C 69 % 1031,4 hPa 0,0 l/m 1,5 km/h (1 Bft) O 87 0 min 0,000 mm 0,0 UV-I 0 W/m -1,9 C 3,2 C 3,2 km/h (1 Bft) 98,11 %
22.03.2019 02:08 3,1 C 7,2 C -3,9 C 70 % 1031,3 hPa 0,0 l/m 3,1 km/h (1 Bft) O 90 0 min 0,000 mm 0,0 UV-I 0 W/m -1,8 C 3,1 C 4,8 km/h (1 Bft) 98,00 %
22.03.2019 02:10 2,8 C 7,2 C -3,9 C 71 % 1031,3 hPa 0,0 l/m 3,4 km/h (1 Bft) O 99 0 min 0,000 mm 0,0 UV-I 0 W/m -1,9 C 2,8 C 4,8 km/h (1 Bft) 94,74 %
22.03.2019 02:12 2,3 C 7,2 C -3,3 C 72 % 1031,4 hPa 0,0 l/m 3,2 km/h (1 Bft) SO 128 0 min 0,000 mm 0,0 UV-I 0 W/m -2,2 C 2,3 C 4,8 km/h (1 Bft) 96,23 %
22.03.2019 02:14 1,9 C 7,2 C -3,3 C 73 % 1031,3 hPa 0,0 l/m 2,0 km/h (1 Bft) SO 128 0 min 0,000 mm 0,0 UV-I 0 W/m -2,4 C 1,9 C 3,2 km/h (1 Bft) 97,73 %
22.03.2019 02:16 1,6 C 7,2 C -2,8 C 75 % 1031,3 hPa 0,0 l/m 1,6 km/h (1 Bft) SO 128 0 min 0,000 mm 0,0 UV-I 0 W/m -2,3 C 1,6 C 3,2 km/h (1 Bft) 98,00 %
22.03.2019 02:18 1,5 C 7,2 C -3,3 C 76 % 1031,4 hPa 0,0 l/m 1,0 km/h (0 Bft) SO 128 0 min 0,000 mm 0,0 UV-I 0 W/m -2,3 C 1,5 C 3,2 km/h (1 Bft) 97,62 %
22.03.2019 02:20 1,4 C 7,2 C -3,3 C 77 % 1031,3 hPa 0,0 l/m 0,3 km/h (0 Bft) SO 128 0 min 0,000 mm 0,0 UV-I 0 W/m -2,2 C 1,4 C 1,6 km/h (1 Bft) 95,74 %
22.03.2019 02:22 1,3 C 7,2 C -3,3 C 77 % 1031,3 hPa 0,0 l/m 1,1 km/h (1 Bft) SO 128 0 min 0,000 mm 0,0 UV-I 0 W/m -2,3 C 1,3 C 1,6 km/h (1 Bft) 96,00 %
22.03.2019 02:24 1,3 C 7,2 C -2,8 C 77 % 1031,3 hPa 0,0 l/m 2,1 km/h (1 Bft) SO 128 0 min 0,000 mm 0,0 UV-I 0 W/m -2,3 C 1,3 C 3,2 km/h (1 Bft) 97,37 %
22.03.2019 02:26 1,2 C 7,2 C -2,8 C 77 % 1031,2 hPa 0,0 l/m 2,2 km/h (1 Bft) SO 128 0 min 0,000 mm 0,0 UV-I 0 W/m -2,4 C 1,2 C 3,2 km/h (1 Bft) 98,00 %
22.03.2019 02:28 0,9 C 7,2 C -2,8 C 78 % 1031,2 hPa 0,0 l/m 2,4 km/h (1 Bft) SO 128 0 min 0,000 mm 0,0 UV-I 0 W/m -2,5 C 0,9 C 3,2 km/h (1 Bft) 95,74 %
22.03.2019 02:30 0,8 C 7,2 C -3,3 C 80 % 1031,3 hPa 0,0 l/m 3,0 km/h (1 Bft) O-SO 117 0 min 0,000 mm 0,0 UV-I 0 W/m -2,2 C 0,8 C 4,8 km/h (1 Bft) 95,12 %
22.03.2019 02:32 1,1 C 7,2 C -3,3 C 80 % 1031,2 hPa 0,0 l/m 2,5 km/h (1 Bft) O-SO 117 0 min 0,000 mm 0,0 UV-I 0 W/m -2,0 C 1,1 C 4,8 km/h (1 Bft) 92,86 %
22.03.2019 02:34 1,3 C 7,2 C -3,3 C 79 % 1031,2 hPa 0,0 l/m 2,1 km/h (1 Bft) O-SO 117 0 min 0,000 mm 0,0 UV-I 0 W/m -1,9 C 1,3 C 3,2 km/h (1 Bft) 96,00 %
22.03.2019 02:36 1,3 C 7,2 C -3,3 C 79 % 1031,2 hPa 0,0 l/m 2,5 km/h (1 Bft) O-SO 117 0 min 0,000 mm 0,0 UV-I 0 W/m -1,9 C 1,3 C 3,2 km/h (1 Bft) 96,00 %
22.03.2019 02:38 1,3 C 7,2 C -3,9 C 79 % 1031,2 hPa 0,0 l/m 2,8 km/h (1 Bft) O-SO 117 0 min 0,000 mm 0,0 UV-I 0 W/m -1,9 C 1,3 C 4,8 km/h (1 Bft) 94,74 %
22.03.2019 02:40 1,4 C 7,2 C -3,9 C 78 % 1031,2 hPa 0,0 l/m 2,5 km/h (1 Bft) O-SO 111 0 min 0,000 mm 0,0 UV-I 0 W/m -2,0 C 1,4 C 4,8 km/h (1 Bft) 91,49 %
22.03.2019 02:42 1,6 C 7,2 C -3,9 C 78 % 1031,2 hPa 0,0 l/m 3,4 km/h (1 Bft) O-SO 103 0 min 0,000 mm 0,0 UV-I 0 W/m -1,8 C 1,6 C 4,8 km/h (1 Bft) 96,00 %
22.03.2019 02:44 1,8 C 7,2 C -3,9 C 77 % 1031,1 hPa 0,0 l/m 3,0 km/h (1 Bft) O-SO 103 0 min 0,000 mm 0,0 UV-I 0 W/m -1,8 C 1,8 C 4,8 km/h (1 Bft) 91,49 %
22.03.2019 02:46 1,8 C 7,2 C -3,9 C 76 % 1031,2 hPa 0,0 l/m 2,9 km/h (1 Bft) O-SO 103 0 min 0,000 mm 0,0 UV-I 0 W/m -2,0 C 1,8 C 4,8 km/h (1 Bft) 97,87 %
22.03.2019 02:48 1,9 C 7,2 C -3,9 C 76 % 1031,1 hPa 0,0 l/m 3,0 km/h (1 Bft) O-SO 103 0 min 0,000 mm 0,0 UV-I 0 W/m -1,9 C 1,9 C 4,8 km/h (1 Bft) 95,74 %
22.03.2019 02:50 2,1 C 7,2 C -3,9 C 76 % 1031,1 hPa 0,0 l/m 2,4 km/h (1 Bft) O-SO 103 0 min 0,000 mm 0,0 UV-I 0 W/m -1,7 C 2,1 C 3,2 km/h (1 Bft) 100,00 %
22.03.2019 02:52 2,0 C 7,2 C -3,9 C 75 % 1031,1 hPa 0,0 l/m 1,9 km/h (1 Bft) O-SO 103 0 min 0,000 mm 0,0 UV-I 0 W/m -2,0 C 2,0 C 3,2 km/h (1 Bft) 100,00 %
22.03.2019 02:54 1,7 C 7,2 C -3,9 C 75 % 1031,1 hPa 0,0 l/m 1,4 km/h (1 Bft) O-SO 103 0 min 0,000 mm 0,0 UV-I 0 W/m -2,2 C 1,7 C 3,2 km/h (1 Bft) 96,00 %
22.03.2019 02:56 1,4 C 7,2 C -3,9 C 76 % 1031,2 hPa 0,0 l/m 0,0 km/h (0 Bft) O-SO 103 0 min 0,000 mm 0,0 UV-I 0 W/m -2,4 C 1,4 C 0,0 km/h (0 Bft) 95,74 %
22.03.2019 02:58 1,3 C 7,2 C -3,9 C 77 % 1031,2 hPa 0,0 l/m 0,3 km/h (0 Bft) O-SO 103 0 min 0,000 mm 0,0 UV-I 0 W/m -2,3 C 1,3 C 1,6 km/h (1 Bft) 96,00 %
22.03.2019 03:00 1,1 C 7,2 C -3,9 C 77 % 1031,2 hPa 0,0 l/m 0,0 km/h (0 Bft) O-SO 103 0 min 0,000 mm 0,0 UV-I 0 W/m -2,5 C 1,1 C 1,6 km/h (1 Bft) 98,00 %
22.03.2019 03:02 1,1 C 7,2 C -3,9 C 78 % 1031,2 hPa 0,0 l/m 0,5 km/h (0 Bft) O-SO 103 0 min 0,000 mm 0,0 UV-I 0 W/m -2,3 C 1,1 C 1,6 km/h (1 Bft) 94,44 %
22.03.2019 03:04 0,9 C 7,2 C -3,9 C 78 % 1031,2 hPa 0,0 l/m 0,0 km/h (0 Bft) O-SO 103 0 min 0,000 mm 0,0 UV-I 0 W/m -2,5 C 0,9 C 0,0 km/h (0 Bft) 98,00 %
22.03.2019 03:06 0,7 C 7,2 C -3,9 C 79 % 1031,1 hPa 0,0 l/m 0,0 km/h (0 Bft) O-SO 103 0 min 0,000 mm 0,0 UV-I 0 W/m -2,5 C 0,7 C 0,0 km/h (0 Bft) 95,74 %
22.03.2019 03:08 0,7 C 7,2 C -3,3 C 80 % 1031,0 hPa 0,0 l/m 0,1 km/h (0 Bft) O-SO 103 0 min 0,000 mm 0,0 UV-I 0 W/m -2,3 C 0,7 C 1,6 km/h (1 Bft) 98,00 %
22.03.2019 03:10 0,6 C 7,2 C -3,3 C 80 % 1031,1 hPa 0,0 l/m 1,5 km/h (1 Bft) O-SO 103 0 min 0,000 mm 0,0 UV-I 0 W/m -2,4 C 0,6 C 1,6 km/h (1 Bft) 98,00 %
22.03.2019 03:12 0,6 C 7,2 C -3,9 C 81 % 1031,0 hPa 0,0 l/m 1,6 km/h (1 Bft) O-SO 103 0 min 0,000 mm 0,0 UV-I 0 W/m -2,3 C 0,6 C 3,2 km/h (1 Bft) 98,00 %
22.03.2019 03:14 0,6 C 7,2 C -3,3 C 81 % 1031,0 hPa 0,0 l/m 1,5 km/h (1 Bft) O-SO 103 0 min 0,000 mm 0,0 UV-I 0 W/m -2,3 C 0,6 C 3,2 km/h (1 Bft) 97,37 %
22.03.2019 03:16 0,6 C 7,2 C -2,8 C 81 % 1031,1 hPa 0,0 l/m 1,2 km/h (1 Bft) O-SO 103 0 min 0,000 mm 0,0 UV-I 0 W/m -2,3 C 0,6 C 3,2 km/h (1 Bft) 97,87 %
22.03.2019 03:18 0,4 C 7,2 C -2,8 C 81 % 1031,0 hPa 0,0 l/m 1,5 km/h (1 Bft) O-SO 103 0 min 0,000 mm 0,0 UV-I 0 W/m -2,5 C 0,4 C 3,2 km/h (1 Bft) 97,87 %
22.03.2019 03:20 0,4 C 7,2 C -2,8 C 82 % 1031,0 hPa 0,0 l/m 1,4 km/h (1 Bft) O-SO 103 0 min 0,000 mm 0,0 UV-I 0 W/m -2,3 C 0,4 C 1,6 km/h (1 Bft) 95,74 %
22.03.2019 03:22 0,4 C 7,2 C -2,8 C 82 % 1031,0 hPa 0,0 l/m 1,1 km/h (1 Bft) O-SO 103 0 min 0,000 mm 0,0 UV-I 0 W/m -2,3 C 0,4 C 3,2 km/h (1 Bft) 98,00 %
22.03.2019 03:24 0,4 C 7,2 C -2,8 C 82 % 1031,0 hPa 0,0 l/m 0,0 km/h (0 Bft) O-SO 103 0 min 0,000 mm 0,0 UV-I 0 W/m -2,3 C 0,4 C 1,6 km/h (1 Bft) 97,87 %
22.03.2019 03:26 0,2 C 7,2 C -3,3 C 81 % 1031,1 hPa 0,0 l/m 0,0 km/h (0 Bft) O-SO 103 0 min 0,000 mm 0,0 UV-I 0 W/m -2,7 C 0,2 C 0,0 km/h (0 Bft) 95,74 %
22.03.2019 03:28 0,2 C 7,2 C -3,9 C 83 % 1031,1 hPa 0,0 l/m 0,0 km/h (0 Bft) O-SO 103 0 min 0,000 mm 0,0 UV-I 0 W/m -2,3 C 0,2 C 0,0 km/h (0 Bft) 98,00 %
22.03.2019 03:30 0,2 C 7,2 C -3,9 C 83 % 1031,1 hPa 0,0 l/m 0,0 km/h (0 Bft) O-SO 103 0 min 0,000 mm 0,0 UV-I 0 W/m -2,3 C 0,2 C 0,0 km/h (0 Bft) 95,74 %
22.03.2019 03:32 0,2 C 7,2 C -3,3 C 83 % 1031,1 hPa 0,0 l/m 1,2 km/h (1 Bft) O-SO 103 0 min 0,000 mm 0,0 UV-I 0 W/m -2,3 C 0,2 C 3,2 km/h (1 Bft) 97,37 %
22.03.2019 03:34 0,1 C 7,2 C -3,3 C 83 % 1031,0 hPa 0,0 l/m 2,1 km/h (1 Bft) O-SO 103 0 min 0,000 mm 0,0 UV-I 0 W/m -2,4 C 0,1 C 3,2 km/h (1 Bft) 98,00 %
22.03.2019 03:36 -0,1 C 7,2 C -3,3 C 83 % 1031,0 hPa 0,0 l/m 2,6 km/h (1 Bft) O-SO 103 0 min 0,000 mm 0,0 UV-I 0 W/m -2,6 C -0,1 C 4,8 km/h (1 Bft) 95,74 %
22.03.2019 03:38 -0,1 C 7,2 C -3,9 C 83 % 1031,0 hPa 0,0 l/m 3,0 km/h (1 Bft) O-SO 103 0 min 0,000 mm 0,0 UV-I 0 W/m -2,6 C -0,1 C 4,8 km/h (1 Bft) 95,74 %
22.03.2019 03:40 -0,2 C 7,2 C -3,9 C 83 % 1031,0 hPa 0,0 l/m 2,7 km/h (1 Bft) O-SO 103 0 min 0,000 mm 0,0 UV-I 0 W/m -2,7 C -0,2 C 4,8 km/h (1 Bft) 96,00 %
22.03.2019 03:42 -0,3 C 7,2 C -3,9 C 85 % 1031,0 hPa 0,0 l/m 2,3 km/h (1 Bft) O-SO 103 0 min 0,000 mm 0,0 UV-I 0 W/m -2,5 C -0,3 C 3,2 km/h (1 Bft) 95,83 %
22.03.2019 03:44 -0,3 C 7,2 C -3,9 C 85 % 1030,9 hPa 0,0 l/m 3,7 km/h (1 Bft) O 88 0 min 0,000 mm 0,0 UV-I 0 W/m -2,5 C -0,3 C 6,4 km/h (2 Bft) 94,29 %
22.03.2019 03:46 0,0 C 7,2 C -3,9 C 86 % 1030,9 hPa 0,0 l/m 4,1 km/h (1 Bft) O 92 0 min 0,000 mm 0,0 UV-I 0 W/m -2,1 C 0,0 C 4,8 km/h (1 Bft) 96,23 %
22.03.2019 03:48 0,5 C 7,2 C -4,4 C 84 % 1031,0 hPa 0,0 l/m 3,3 km/h (1 Bft) O 92 0 min 0,000 mm 0,0 UV-I 0 W/m -1,9 C 0,5 C 4,8 km/h (1 Bft) 94,34 %
22.03.2019 03:50 0,8 C 7,2 C -4,4 C 83 % 1031,0 hPa 0,0 l/m 2,3 km/h (1 Bft) O 92 0 min 0,000 mm 0,0 UV-I 0 W/m -1,8 C 0,8 C 4,8 km/h (1 Bft) 92,11 %
22.03.2019 03:52 1,1 C 7,2 C -4,4 C 81 % 1031,0 hPa 0,0 l/m 0,5 km/h (0 Bft) O 92 0 min 0,000 mm 0,0 UV-I 0 W/m -1,8 C 1,1 C 1,6 km/h (1 Bft) 92,00 %
22.03.2019 03:54 0,9 C 7,2 C -4,4 C 80 % 1031,0 hPa 0,0 l/m 0,3 km/h (0 Bft) O 92 0 min 0,000 mm 0,0 UV-I 0 W/m -2,2 C 0,9 C 1,6 km/h (1 Bft) 96,00 %
22.03.2019 03:56 0,9 C 7,2 C -4,4 C 80 % 1031,0 hPa 0,0 l/m 1,4 km/h (1 Bft) O 92 0 min 0,000 mm 0,0 UV-I 0 W/m -2,2 C 0,9 C 1,6 km/h (1 Bft) 95,12 %
22.03.2019 03:58 0,9 C 7,2 C -5,0 C 80 % 1031,0 hPa 0,0 l/m 0,9 km/h (0 Bft) O 92 0 min 0,000 mm 0,0 UV-I 0 W/m -2,2 C 0,9 C 1,6 km/h (1 Bft) 98,00 %
22.03.2019 04:00 0,9 C 7,2 C -5,0 C 80 % 1031,0 hPa 0,0 l/m 0,6 km/h (0 Bft) O 92 0 min 0,000 mm 0,0 UV-I 0 W/m -2,2 C 0,9 C 1,6 km/h (1 Bft) 100,00 %
22.03.2019 04:02 0,9 C 7,2 C -5,0 C 80 % 1031,0 hPa 0,0 l/m 1,6 km/h (1 Bft) O 92 0 min 0,000 mm 0,0 UV-I 0 W/m -2,2 C 0,9 C 1,6 km/h (1 Bft) 100,00 %
22.03.2019 04:04 0,8 C 7,2 C -5,0 C 80 % 1031,0 hPa 0,0 l/m 1,3 km/h (1 Bft) O 92 0 min 0,000 mm 0,0 UV-I 0 W/m -2,2 C 0,8 C 3,2 km/h (1 Bft) 100,00 %
22.03.2019 04:06 0,8 C 7,2 C -5,0 C 80 % 1031,0 hPa 0,0 l/m 0,9 km/h (0 Bft) O 92 0 min 0,000 mm 0,0 UV-I 0 W/m -2,2 C 0,8 C 3,2 km/h (1 Bft) 100,00 %
22.03.2019 04:08 0,8 C 7,2 C -5,0 C 80 % 1031,0 hPa 0,0 l/m 0,6 km/h (0 Bft) O 92 0 min 0,000 mm 0,0 UV-I 0 W/m -2,2 C 0,8 C 1,6 km/h (1 Bft) 100,00 %
22.03.2019 04:10 0,7 C 7,2 C -5,0 C 80 % 1031,0 hPa 0,0 l/m 1,5 km/h (1 Bft) O 92 0 min 0,000 mm 0,0 UV-I 0 W/m -2,3 C 0,7 C 1,6 km/h (1 Bft) 100,00 %
22.03.2019 04:12 0,6 C 7,2 C -5,0 C 80 % 1031,0 hPa 0,0 l/m 1,0 km/h (0 Bft) O 92 0 min 0,000 mm 0,0 UV-I 0 W/m -2,4 C 0,6 C 1,6 km/h (1 Bft) 100,00 %
22.03.2019 04:14 0,4 C 7,2 C -4,4 C 80 % 1031,0 hPa 0,0 l/m 0,8 km/h (0 Bft) O 92 0 min 0,000 mm 0,0 UV-I 0 W/m -2,6 C 0,4 C 3,2 km/h (1 Bft) 96,00 %
22.03.2019 04:16 0,3 C 7,2 C -4,4 C 81 % 1031,0 hPa 0,0 l/m 0,6 km/h (0 Bft) O 92 0 min 0,000 mm 0,0 UV-I 0 W/m -2,6 C 0,3 C 1,6 km/h (1 Bft) 100,00 %
22.03.2019 04:18 0,3 C 7,2 C -4,4 C 82 % 1031,0 hPa 0,0 l/m 1,5 km/h (1 Bft) O 92 0 min 0,000 mm 0,0 UV-I 0 W/m -2,4 C 0,3 C 3,2 km/h (1 Bft) 100,00 %
22.03.2019 04:20 0,4 C 7,2 C -4,4 C 82 % 1031,0 hPa 0,0 l/m 1,9 km/h (1 Bft) O 92 0 min 0,000 mm 0,0 UV-I 0 W/m -2,3 C 0,4 C 3,2 km/h (1 Bft) 100,00 %
22.03.2019 04:22 0,6 C 7,2 C -5,0 C 81 % 1031,0 hPa 0,0 l/m 1,5 km/h (1 Bft) O 92 0 min 0,000 mm 0,0 UV-I 0 W/m -2,3 C 0,6 C 3,2 km/h (1 Bft) 100,00 %
22.03.2019 04:24 0,7 C 7,2 C -5,0 C 81 % 1030,9 hPa 0,0 l/m 1,2 km/h (1 Bft) O 92 0 min 0,000 mm 0,0 UV-I 0 W/m -2,2 C 0,7 C 3,2 km/h (1 Bft) 100,00 %
22.03.2019 04:26 0,9 C 7,2 C -5,0 C 81 % 1030,8 hPa 0,0 l/m 2,1 km/h (1 Bft) O-SO 102 0 min 0,000 mm 0,0 UV-I 0 W/m -2,0 C 0,9 C 6,4 km/h (2 Bft) 100,00 %
22.03.2019 04:28 0,8 C 7,2 C -5,0 C 79 % 1030,8 hPa 0,0 l/m 3,3 km/h (1 Bft) O-SO 102 0 min 0,000 mm 0,0 UV-I 0 W/m -2,4 C 0,8 C 6,4 km/h (2 Bft) 100,00 %
22.03.2019 04:30 0,4 C 7,2 C -4,4 C 80 % 1030,8 hPa 0,0 l/m 1,5 km/h (1 Bft) O-SO 102 0 min 0,000 mm 0,0 UV-I 0 W/m -2,6 C 0,4 C 3,2 km/h (1 Bft) 100,00 %
22.03.2019 04:32 0,3 C 7,2 C -4,4 C 81 % 1030,7 hPa 0,0 l/m 1,7 km/h (1 Bft) O-SO 102 0 min 0,000 mm 0,0 UV-I 0 W/m -2,6 C 0,3 C 3,2 km/h (1 Bft) 100,00 %
22.03.2019 04:34 0,3 C 7,2 C -4,4 C 82 % 1030,7 hPa 0,0 l/m 2,4 km/h (1 Bft) O 88 0 min 0,000 mm 0,0 UV-I 0 W/m -2,4 C 0,3 C 4,8 km/h (1 Bft) 100,00 %
22.03.2019 04:36 0,2 C 7,2 C -4,4 C 82 % 1030,8 hPa 0,0 l/m 3,2 km/h (1 Bft) O 92 0 min 0,000 mm 0,0 UV-I 0 W/m -2,5 C 0,2 C 4,8 km/h (1 Bft) 97,56 %
22.03.2019 04:38 0,3 C 7,2 C -4,4 C 83 % 1030,7 hPa 0,0 l/m 2,4 km/h (1 Bft) O 94 0 min 0,000 mm 0,0 UV-I 0 W/m -2,2 C 0,3 C 4,8 km/h (1 Bft) 100,00 %
22.03.2019 04:40 0,2 C 7,2 C -3,9 C 82 % 1030,8 hPa 0,0 l/m 1,7 km/h (1 Bft) O 92 0 min 0,000 mm 0,0 UV-I 0 W/m -2,5 C 0,2 C 3,2 km/h (1 Bft) 100,00 %
22.03.2019 04:42 0,2 C 7,2 C -3,9 C 83 % 1030,7 hPa 0,0 l/m 1,5 km/h (1 Bft) O 92 0 min 0,000 mm 0,0 UV-I 0 W/m -2,3 C 0,2 C 3,2 km/h (1 Bft) 100,00 %
22.03.2019 04:44 0,2 C 7,2 C -3,9 C 82 % 1030,8 hPa 0,0 l/m 0,9 km/h (0 Bft) O 92 0 min 0,000 mm 0,0 UV-I 0 W/m -2,5 C 0,2 C 3,2 km/h (1 Bft) 97,37 %
22.03.2019 04:46 0,2 C 7,2 C -3,9 C 83 % 1030,8 hPa 0,0 l/m 1,1 km/h (1 Bft) O 92 0 min 0,000 mm 0,0 UV-I 0 W/m -2,3 C 0,2 C 3,2 km/h (1 Bft) 94,00 %
22.03.2019 04:48 0,1 C 7,2 C -3,9 C 82 % 1030,8 hPa 0,0 l/m 1,9 km/h (1 Bft) O 95 0 min 0,000 mm 0,0 UV-I 0 W/m -2,6 C 0,1 C 3,2 km/h (1 Bft) 98,11 %
22.03.2019 04:50 -0,1 C 7,2 C -3,3 C 82 % 1030,7 hPa 0,0 l/m 1,2 km/h (1 Bft) O 95 0 min 0,000 mm 0,0 UV-I 0 W/m -2,8 C -0,1 C 3,2 km/h (1 Bft) 95,74 %
22.03.2019 04:52 -0,3 C 7,2 C -3,9 C 82 % 1030,8 hPa 0,0 l/m 0,0 km/h (0 Bft) O 95 0 min 0,000 mm 0,0 UV-I 0 W/m -3,0 C -0,3 C 0,0 km/h (0 Bft) 97,87 %
22.03.2019 04:54 -0,4 C 7,2 C -3,9 C 83 % 1030,7 hPa 0,0 l/m 1,2 km/h (1 Bft) O 95 0 min 0,000 mm 0,0 UV-I 0 W/m -2,9 C -0,4 C 3,2 km/h (1 Bft) 94,87 %
22.03.2019 04:56 -0,4 C 7,2 C -3,9 C 84 % 1030,7 hPa 0,0 l/m 2,0 km/h (1 Bft) S-SO 156 0 min 0,000 mm 0,0 UV-I 0 W/m -2,8 C -0,4 C 3,2 km/h (1 Bft) 96,15 %
22.03.2019 04:58 -0,4 C 7,2 C -3,9 C 85 % 1030,7 hPa 0,0 l/m 1,5 km/h (1 Bft) S-SO 156 0 min 0,000 mm 0,0 UV-I 0 W/m -2,6 C -0,4 C 3,2 km/h (1 Bft) 98,00 %
22.03.2019 05:00 -0,4 C 7,2 C -4,4 C 85 % 1030,7 hPa 0,0 l/m 1,3 km/h (1 Bft) S-SO 156 0 min 0,000 mm 0,0 UV-I 0 W/m -2,6 C -0,4 C 3,2 km/h (1 Bft) 97,92 %
22.03.2019 05:02 -0,4 C 7,2 C -4,4 C 85 % 1030,7 hPa 0,0 l/m 2,2 km/h (1 Bft) S-SO 156 0 min 0,000 mm 0,0 UV-I 0 W/m -2,6 C -0,4 C 3,2 km/h (1 Bft) 100,00 %
22.03.2019 05:04 -0,4 C 7,2 C -4,4 C 85 % 1030,7 hPa 0,0 l/m 1,9 km/h (1 Bft) S-SO 156 0 min 0,000 mm 0,0 UV-I 0 W/m -2,6 C -0,4 C 3,2 km/h (1 Bft) 100,00 %
22.03.2019 05:06 -0,4 C 7,2 C -3,9 C 85 % 1030,7 hPa 0,0 l/m 1,5 km/h (1 Bft) S-SO 156 0 min 0,000 mm 0,0 UV-I 0 W/m -2,6 C -0,4 C 3,2 km/h (1 Bft) 96,00 %
22.03.2019 05:08 -0,4 C 7,2 C -4,4 C 85 % 1030,7 hPa 0,0 l/m 2,1 km/h (1 Bft) S-SO 156 0 min 0,000 mm 0,0 UV-I 0 W/m -2,6 C -0,4 C 3,2 km/h (1 Bft) 98,00 %
22.03.2019 05:10 -0,4 C 7,2 C -4,4 C 85 % 1030,7 hPa 0,0 l/m 2,4 km/h (1 Bft) S-SO 163 0 min 0,000 mm 0,0 UV-I 0 W/m -2,6 C -0,4 C 3,2 km/h (1 Bft) 97,14 %
22.03.2019 05:12 -0,4 C 7,2 C -4,4 C 85 % 1030,7 hPa 0,0 l/m 3,2 km/h (1 Bft) S-SO 164 0 min 0,000 mm 0,0 UV-I 0 W/m -2,6 C -0,4 C 6,4 km/h (2 Bft) 97,73 %
22.03.2019 05:14 -0,4 C 7,2 C -4,4 C 85 % 1030,7 hPa 0,0 l/m 2,5 km/h (1 Bft) O-SO 123 0 min 0,000 mm 0,0 UV-I 0 W/m -2,6 C -0,4 C 4,8 km/h (1 Bft) 98,00 %
22.03.2019 05:16 -0,5 C 7,2 C -4,4 C 85 % 1030,7 hPa 0,0 l/m 2,0 km/h (1 Bft) O-SO 123 0 min 0,000 mm 0,0 UV-I 0 W/m -2,7 C -0,5 C 3,2 km/h (1 Bft) 96,00 %
22.03.2019 05:18 -0,5 C 7,2 C -4,4 C 85 % 1030,7 hPa 0,0 l/m 2,2 km/h (1 Bft) O-SO 123 0 min 0,000 mm 0,0 UV-I 0 W/m -2,7 C -0,5 C 4,8 km/h (1 Bft) 98,00 %
22.03.2019 05:20 -0,4 C 7,2 C -4,4 C 86 % 1030,7 hPa 0,0 l/m 1,5 km/h (1 Bft) O-SO 123 0 min 0,000 mm 0,0 UV-I 0 W/m -2,4 C -0,4 C 3,2 km/h (1 Bft) 98,00 %
22.03.2019 05:22 -0,4 C 7,2 C -5,0 C 85 % 1030,8 hPa 0,0 l/m 2,3 km/h (1 Bft) O-SO 123 0 min 0,000 mm 0,0 UV-I 0 W/m -2,6 C -0,4 C 3,2 km/h (1 Bft) 95,74 %
22.03.2019 05:24 -0,4 C 7,2 C -5,0 C 85 % 1030,8 hPa 0,0 l/m 2,6 km/h (1 Bft) O-SO 123 0 min 0,000 mm 0,0 UV-I 0 W/m -2,6 C -0,4 C 3,2 km/h (1 Bft) 97,87 %
22.03.2019 05:26 -0,5 C 7,2 C -5,0 C 85 % 1030,8 hPa 0,0 l/m 2,4 km/h (1 Bft) O-SO 123 0 min 0,000 mm 0,0 UV-I 0 W/m -2,7 C -0,5 C 3,2 km/h (1 Bft) 97,56 %
22.03.2019 05:28 -0,6 C 7,2 C -5,0 C 85 % 1030,8 hPa 0,0 l/m 0,9 km/h (0 Bft) O-SO 123 0 min 0,000 mm 0,0 UV-I 0 W/m -2,8 C -0,6 C 1,6 km/h (1 Bft) 94,34 %
22.03.2019 05:30 -0,6 C 7,2 C -5,0 C 86 % 1030,8 hPa 0,0 l/m 1,2 km/h (1 Bft) O-SO 123 0 min 0,000 mm 0,0 UV-I 0 W/m -2,6 C -0,6 C 3,2 km/h (1 Bft) 95,74 %
22.03.2019 05:32 -0,4 C 7,2 C -5,6 C 86 % 1031,0 hPa 0,0 l/m 1,2 km/h (1 Bft) O-SO 123 0 min 0,000 mm 0,0 UV-I 0 W/m -2,4 C -0,4 C 3,2 km/h (1 Bft) 97,87 %
22.03.2019 05:34 -0,4 C 7,2 C -5,6 C 86 % 1031,0 hPa 0,0 l/m 1,1 km/h (1 Bft) O-SO 123 0 min 0,000 mm 0,0 UV-I 0 W/m -2,4 C -0,4 C 1,6 km/h (1 Bft) 97,44 %
22.03.2019 05:36 -0,4 C 7,2 C -5,6 C 86 % 1031,0 hPa 0,0 l/m 1,6 km/h (1 Bft) O-SO 123 0 min 0,000 mm 0,0 UV-I 0 W/m -2,4 C -0,4 C 3,2 km/h (1 Bft) 97,87 %
22.03.2019 05:38 -0,5 C 7,2 C -5,6 C 85 % 1030,9 hPa 0,0 l/m 0,3 km/h (0 Bft) O-SO 123 0 min 0,000 mm 0,0 UV-I 0 W/m -2,7 C -0,5 C 1,6 km/h (1 Bft) 98,00 %
22.03.2019 05:40 -0,6 C 7,2 C -5,6 C 86 % 1031,0 hPa 0,0 l/m 0,0 km/h (0 Bft) O-SO 123 0 min 0,000 mm 0,0 UV-I 0 W/m -2,6 C -0,6 C 0,0 km/h (0 Bft) 97,56 %
22.03.2019 05:42 -0,5 C 7,2 C -5,6 C 86 % 1031,1 hPa 0,0 l/m 0,2 km/h (0 Bft) O-SO 123 0 min 0,000 mm 0,0 UV-I 0 W/m -2,5 C -0,5 C 1,6 km/h (1 Bft) 95,74 %
22.03.2019 05:44 -0,4 C 7,2 C -6,1 C 87 % 1031,1 hPa 0,0 l/m 0,6 km/h (0 Bft) O-SO 123 0 min 0,000 mm 0,0 UV-I 0 W/m -2,3 C -0,4 C 1,6 km/h (1 Bft) 98,00 %
22.03.2019 05:46 -0,2 C 7,2 C -6,1 C 86 % 1031,1 hPa 0,0 l/m 1,4 km/h (1 Bft) O-SO 123 0 min 0,000 mm 0,0 UV-I 0 W/m -2,3 C -0,2 C 3,2 km/h (1 Bft) 96,00 %
22.03.2019 05:48 -0,2 C 7,2 C -6,1 C 86 % 1031,1 hPa 0,0 l/m 2,0 km/h (1 Bft) O-SO 123 0 min 0,000 mm 0,0 UV-I 0 W/m -2,3 C -0,2 C 3,2 km/h (1 Bft) 98,00 %
22.03.2019 05:50 -0,2 C 7,2 C -6,1 C 85 % 1031,1 hPa 0,0 l/m 3,0 km/h (1 Bft) O-SO 123 0 min 0,000 mm 0,0 UV-I 3 W/m -2,4 C -0,2 C 3,2 km/h (1 Bft) 92,11 %
22.03.2019 05:52 -0,3 C 7,2 C -6,1 C 86 % 1031,1 hPa 0,0 l/m 3,1 km/h (1 Bft) O-SO 123 0 min 0,000 mm 0,0 UV-I 5 W/m -2,3 C -0,3 C 4,8 km/h (1 Bft) 98,11 %
22.03.2019 05:54 -0,3 C 7,2 C -6,1 C 86 % 1031,1 hPa 0,0 l/m 2,8 km/h (1 Bft) O-SO 123 0 min 0,000 mm 0,0 UV-I 5 W/m -2,3 C -0,3 C 3,2 km/h (1 Bft) 94,74 %
22.03.2019 05:56 -0,3 C 7,2 C -6,1 C 86 % 1031,1 hPa 0,0 l/m 1,8 km/h (1 Bft) O-SO 123 0 min 0,000 mm 0,0 UV-I 5 W/m -2,3 C -0,3 C 3,2 km/h (1 Bft) 98,11 %
22.03.2019 05:58 -0,3 C 7,2 C -6,1 C 86 % 1031,1 hPa 0,0 l/m 1,0 km/h (0 Bft) O-SO 123 0 min 0,000 mm 0,0 UV-I 7 W/m -2,3 C -0,3 C 1,6 km/h (1 Bft) 98,00 %
22.03.2019 06:00 -0,2 C 7,2 C -6,1 C 86 % 1031,1 hPa 0,0 l/m 0,3 km/h (0 Bft) O-SO 123 0 min 0,000 mm 0,0 UV-I 7 W/m -2,3 C -0,2 C 1,6 km/h (1 Bft) 97,87 %
22.03.2019 06:02 -0,1 C 7,2 C -6,1 C 86 % 1031,2 hPa 0,0 l/m 0,1 km/h (0 Bft) O-SO 123 0 min 0,000 mm 0,0 UV-I 7 W/m -2,2 C -0,1 C 1,6 km/h (1 Bft) 98,00 %
22.03.2019 06:04 -0,1 C 7,2 C -6,1 C 85 % 1031,2 hPa 0,0 l/m 0,2 km/h (0 Bft) O-SO 121 0 min 0,000 mm 0,0 UV-I 9 W/m -2,3 C -0,1 C 1,6 km/h (1 Bft) 95,74 %
22.03.2019 06:06 0,0 C 7,2 C -6,1 C 85 % 1031,2 hPa 0,0 l/m 0,6 km/h (0 Bft) O-SO 114 0 min 0,000 mm 0,0 UV-I 9 W/m -2,2 C 0,0 C 1,6 km/h (1 Bft) 97,37 %
22.03.2019 06:08 0,0 C 7,2 C -6,1 C 85 % 1031,2 hPa 0,0 l/m 1,4 km/h (1 Bft) O-SO 114 0 min 0,000 mm 0,0 UV-I 11 W/m -2,2 C 0,0 C 1,6 km/h (1 Bft) 98,00 %
22.03.2019 06:10 -0,1 C 7,2 C -6,1 C 85 % 1031,1 hPa 0,0 l/m 1,9 km/h (1 Bft) O-SO 114 0 min 0,000 mm 0,0 UV-I 13 W/m -2,3 C -0,1 C 3,2 km/h (1 Bft) 98,00 %
22.03.2019 06:12 -0,2 C 7,2 C -5,6 C 85 % 1031,2 hPa 0,0 l/m 2,9 km/h (1 Bft) O-SO 114 0 min 0,000 mm 0,0 UV-I 17 W/m -2,4 C -0,2 C 4,8 km/h (1 Bft) 97,22 %
22.03.2019 06:14 -0,3 C 7,2 C -5,6 C 85 % 1031,1 hPa 0,0 l/m 2,6 km/h (1 Bft) O-SO 114 2 min 0,000 mm 0,0 UV-I 20 W/m -2,5 C -0,3 C 3,2 km/h (1 Bft) 100,00 %
22.03.2019 06:16 -0,4 C 7,2 C -5,6 C 85 % 1031,2 hPa 0,0 l/m 1,9 km/h (1 Bft) O-SO 114 2 min 0,000 mm 0,0 UV-I 23 W/m -2,6 C -0,4 C 3,2 km/h (1 Bft) 100,00 %
22.03.2019 06:18 -0,6 C 7,2 C -4,4 C 86 % 1031,2 hPa 0,0 l/m 3,1 km/h (1 Bft) O-SO 114 2 min 0,000 mm 0,0 UV-I 26 W/m -2,6 C -0,6 C 4,8 km/h (1 Bft) 100,00 %
22.03.2019 06:20 -0,7 C 7,2 C -3,9 C 86 % 1031,2 hPa 0,0 l/m 3,3 km/h (1 Bft) O-SO 116 2 min 0,000 mm 0,0 UV-I 28 W/m -2,7 C -0,7 C 4,8 km/h (1 Bft) 100,00 %
22.03.2019 06:22 -0,6 C 7,2 C -3,9 C 87 % 1031,1 hPa 0,0 l/m 2,5 km/h (1 Bft) O-SO 118 2 min 0,000 mm 0,0 UV-I 32 W/m -2,5 C -0,6 C 4,8 km/h (1 Bft) 100,00 %
22.03.2019 06:24 -0,7 C 7,2 C -3,9 C 86 % 1031,1 hPa 0,0 l/m 2,9 km/h (1 Bft) O-SO 119 2 min 0,000 mm 0,0 UV-I 36 W/m -2,7 C -0,7 C 4,8 km/h (1 Bft) 100,00 %
22.03.2019 06:26 -0,8 C 7,2 C -3,9 C 87 % 1031,1 hPa 0,0 l/m 3,1 km/h (1 Bft) O 89 2 min 0,000 mm 0,0 UV-I 40 W/m -2,7 C -0,8 C 4,8 km/h (1 Bft) 100,00 %
22.03.2019 06:28 -0,7 C 7,2 C -3,9 C 87 % 1031,1 hPa 0,0 l/m 3,0 km/h (1 Bft) O 98 2 min 0,000 mm 0,0 UV-I 45 W/m -2,6 C -0,7 C 4,8 km/h (1 Bft) 97,87 %
22.03.2019 06:30 -0,6 C 7,2 C -3,9 C 87 % 1031,2 hPa 0,0 l/m 3,5 km/h (1 Bft) O 87 2 min 0,000 mm 0,0 UV-I 50 W/m -2,5 C -0,6 C 6,4 km/h (2 Bft) 96,00 %
22.03.2019 06:32 -0,5 C 7,2 C -3,3 C 87 % 1031,2 hPa 0,0 l/m 3,6 km/h (1 Bft) O 87 2 min 0,000 mm 0,0 UV-I 54 W/m -2,4 C -0,5 C 4,8 km/h (1 Bft) 95,74 %
22.03.2019 06:34 -0,5 C 7,2 C -3,3 C 86 % 1031,2 hPa 0,0 l/m 2,4 km/h (1 Bft) O 87 2 min 0,000 mm 0,0 UV-I 58 W/m -2,5 C -0,5 C 4,8 km/h (1 Bft) 97,37 %
22.03.2019 06:36 -0,5 C 7,2 C -3,3 C 86 % 1031,2 hPa 0,0 l/m 2,7 km/h (1 Bft) O-SO 111 2 min 0,000 mm 0,0 UV-I 63 W/m -2,5 C -0,5 C 4,8 km/h (1 Bft) 92,45 %
22.03.2019 06:38 -0,5 C 7,2 C -3,3 C 86 % 1031,2 hPa 0,0 l/m 2,2 km/h (1 Bft) O-SO 111 2 min 0,000 mm 0,0 UV-I 69 W/m -2,5 C -0,5 C 6,4 km/h (2 Bft) 100,00 %
22.03.2019 06:40 -0,6 C 7,2 C -3,3 C 86 % 1031,3 hPa 0,0 l/m 1,4 km/h (1 Bft) O-SO 110 2 min 0,000 mm 0,0 UV-I 73 W/m -2,6 C -0,6 C 3,2 km/h (1 Bft) 95,74 %
22.03.2019 06:42 -0,6 C 7,2 C -3,3 C 86 % 1031,3 hPa 0,0 l/m 0,4 km/h (0 Bft) O-SO 110 2 min 0,000 mm 0,0 UV-I 77 W/m -2,6 C -0,6 C 1,6 km/h (1 Bft) 98,00 %
22.03.2019 06:44 -0,7 C 7,2 C -3,3 C 87 % 1031,3 hPa 0,0 l/m 0,1 km/h (0 Bft) O-SO 110 2 min 0,000 mm 0,0 UV-I 81 W/m -2,6 C -0,7 C 1,6 km/h (1 Bft) 97,62 %
22.03.2019 06:46 -0,6 C 7,2 C -2,8 C 87 % 1031,3 hPa 0,0 l/m 0,7 km/h (0 Bft) O-SO 110 2 min 0,000 mm 0,0 UV-I 87 W/m -2,5 C -0,6 C 1,6 km/h (1 Bft) 96,00 %
22.03.2019 06:48 -0,6 C 7,2 C -2,8 C 87 % 1031,3 hPa 0,0 l/m 1,9 km/h (1 Bft) O-SO 110 2 min 0,000 mm 0,0 UV-I 91 W/m -2,5 C -0,6 C 4,8 km/h (1 Bft) 96,36 %
22.03.2019 06:50 -0,5 C 7,2 C -2,8 C 87 % 1031,3 hPa 0,0 l/m 1,0 km/h (0 Bft) O-SO 110 2 min 0,000 mm 0,0 UV-I 95 W/m -2,4 C -0,5 C 1,6 km/h (1 Bft) 94,87 %
22.03.2019 06:52 -0,5 C 7,2 C -2,2 C 87 % 1031,3 hPa 0,0 l/m 1,7 km/h (1 Bft) O-SO 110 2 min 0,000 mm 0,0 UV-I 101 W/m -2,4 C -0,5 C 3,2 km/h (1 Bft) 98,11 %
22.03.2019 06:54 -0,4 C 7,2 C -2,2 C 87 % 1031,3 hPa 0,0 l/m 0,3 km/h (0 Bft) O-SO 110 2 min 0,000 mm 0,0 UV-I 105 W/m -2,3 C -0,4 C 1,6 km/h (1 Bft) 97,87 %
22.03.2019 06:56 -0,3 C 7,2 C -2,8 C 87 % 1031,3 hPa 0,0 l/m 1,2 km/h (1 Bft) O-SO 110 2 min 0,000 mm 0,0 UV-I 111 W/m -2,2 C -0,3 C 3,2 km/h (1 Bft) 97,87 %
22.03.2019 06:58 -0,2 C 7,2 C -2,2 C 87 % 1031,3 hPa 0,0 l/m 1,4 km/h (1 Bft) O-SO 110 2 min 0,000 mm 0,0 UV-I 116 W/m -2,1 C -0,2 C 3,2 km/h (1 Bft) 96,00 %
22.03.2019 07:00 0,0 C 7,2 C -2,2 C 87 % 1031,3 hPa 0,0 l/m 1,0 km/h (0 Bft) O-SO 110 2 min 0,026 mm 0,0 UV-I 121 W/m -1,9 C 0,0 C 1,6 km/h (1 Bft) 100,00 %
22.03.2019 07:02 0,1 C 7,2 C -2,2 C 86 % 1031,3 hPa 0,0 l/m 0,3 km/h (0 Bft) O-SO 110 2 min 0,000 mm 0,0 UV-I 125 W/m -2,0 C 0,1 C 1,6 km/h (1 Bft) 93,62 %
22.03.2019 07:04 0,2 C 7,2 C -2,2 C 86 % 1031,3 hPa 0,0 l/m 0,0 km/h (0 Bft) O-SO 110 2 min 0,000 mm 0,0 UV-I 131 W/m -1,9 C 0,2 C 0,0 km/h (0 Bft) 96,00 %
22.03.2019 07:06 0,4 C 7,2 C -2,2 C 86 % 1031,3 hPa 0,0 l/m 0,0 km/h (0 Bft) O-SO 110 2 min 0,000 mm 0,0 UV-I 137 W/m -1,7 C 0,4 C 0,0 km/h (0 Bft) 95,74 %
22.03.2019 07:08 0,6 C 7,2 C -2,2 C 86 % 1031,3 hPa 0,0 l/m 0,1 km/h (0 Bft) O-SO 110 2 min 0,000 mm 0,0 UV-I 142 W/m -1,5 C 0,6 C 1,6 km/h (1 Bft) 93,62 %
22.03.2019 07:10 0,7 C 7,2 C -1,7 C 85 % 1031,3 hPa 0,0 l/m 1,4 km/h (1 Bft) O-SO 110 2 min 0,000 mm 0,0 UV-I 147 W/m -1,5 C 0,7 C 1,6 km/h (1 Bft) 93,62 %
22.03.2019 07:12 0,8 C 7,2 C -1,7 C 85 % 1031,3 hPa 0,0 l/m 1,0 km/h (0 Bft) O-SO 110 2 min 0,000 mm 0,0 UV-I 151 W/m -1,4 C 0,8 C 1,6 km/h (1 Bft) 94,00 %
22.03.2019 07:14 0,8 C 7,2 C -1,1 C 86 % 1031,3 hPa 0,0 l/m 1,0 km/h (0 Bft) O-SO 110 2 min 0,000 mm 0,0 UV-I 157 W/m -1,3 C 0,8 C 1,6 km/h (1 Bft) 92,68 %
22.03.2019 07:16 0,9 C 7,2 C -0,6 C 86 % 1031,3 hPa 0,0 l/m 0,0 km/h (0 Bft) O-SO 110 2 min 0,000 mm 0,0 UV-I 160 W/m -1,2 C 0,9 C 1,6 km/h (1 Bft) 94,00 %
22.03.2019 07:18 1,1 C 7,2 C 0,0 C 86 % 1031,3 hPa 0,0 l/m 0,0 km/h (0 Bft) O-SO 110 2 min 0,000 mm 0,0 UV-I 168 W/m -1,0 C 1,1 C 0,0 km/h (0 Bft) 97,73 %
22.03.2019 07:20 1,3 C 7,2 C 1,1 C 85 % 1031,2 hPa 0,0 l/m 0,6 km/h (0 Bft) O-SO 110 2 min 0,000 mm 0,0 UV-I 174 W/m -0,9 C 1,3 C 3,2 km/h (1 Bft) 96,23 %
22.03.2019 07:22 1,4 C 7,2 C 2,2 C 84 % 1031,3 hPa 0,0 l/m 0,2 km/h (0 Bft) O-SO 110 2 min 0,000 mm 0,0 UV-I 179 W/m -1,0 C 1,4 C 1,6 km/h (1 Bft) 98,00 %
22.03.2019 07:24 1,6 C 7,2 C 3,3 C 84 % 1031,3 hPa 0,0 l/m 1,8 km/h (1 Bft) O-SO 110 2 min 0,000 mm 0,0 UV-I 185 W/m -0,8 C 1,6 C 3,2 km/h (1 Bft) 97,87 %
22.03.2019 07:26 1,9 C 7,2 C 3,9 C 84 % 1031,3 hPa 0,0 l/m 2,1 km/h (1 Bft) O-SO 110 2 min 0,000 mm 0,0 UV-I 191 W/m -0,5 C 1,9 C 3,2 km/h (1 Bft) 97,44 %
22.03.2019 07:28 2,2 C 7,2 C 3,9 C 83 % 1031,3 hPa 0,0 l/m 1,4 km/h (1 Bft) O-SO 110 2 min 0,000 mm 0,0 UV-I 196 W/m -0,4 C 2,2 C 3,2 km/h (1 Bft) 96,00 %
22.03.2019 07:30 2,5 C 7,2 C 3,9 C 82 % 1031,4 hPa 0,0 l/m 1,6 km/h (1 Bft) O-SO 110 2 min 0,000 mm 0,0 UV-I 201 W/m -0,3 C 2,5 C 3,2 km/h (1 Bft) 97,73 %
22.03.2019 07:32 2,6 C 7,2 C 3,9 C 82 % 1031,4 hPa 0,0 l/m 2,1 km/h (1 Bft) O-SO 109 2 min 0,000 mm 0,0 UV-I 206 W/m -0,2 C 2,6 C 4,8 km/h (1 Bft) 97,87 %
22.03.2019 07:34 2,6 C 7,2 C 3,9 C 81 % 1031,3 hPa 0,0 l/m 3,1 km/h (1 Bft) O 93 2 min 0,000 mm 0,0 UV-I 212 W/m -0,3 C 2,6 C 4,8 km/h (1 Bft) 100,00 %
22.03.2019 07:36 2,7 C 7,2 C 3,9 C 80 % 1031,4 hPa 0,0 l/m 3,4 km/h (1 Bft) O 85 2 min 0,000 mm 0,0 UV-I 218 W/m -0,4 C 2,7 C 4,8 km/h (1 Bft) 98,39 %
22.03.2019 07:38 2,8 C 7,2 C 3,9 C 80 % 1031,4 hPa 0,0 l/m 4,1 km/h (1 Bft) O 94 2 min 0,000 mm 0,0 UV-I 224 W/m -0,3 C 2,8 C 6,4 km/h (2 Bft) 100,00 %
22.03.2019 07:40 2,9 C 7,2 C 3,3 C 80 % 1031,4 hPa 0,0 l/m 4,0 km/h (1 Bft) O-NO 72 2 min 0,000 mm 0,0 UV-I 227 W/m -0,2 C 2,9 C 4,8 km/h (1 Bft) 100,00 %
22.03.2019 07:42 2,9 C 7,2 C 3,9 C 80 % 1031,4 hPa 0,0 l/m 4,3 km/h (1 Bft) O-NO 70 2 min 0,000 mm 0,0 UV-I 234 W/m -0,2 C 2,9 C 6,4 km/h (2 Bft) 100,00 %
22.03.2019 07:44 3,1 C 7,2 C 3,9 C 80 % 1031,4 hPa 0,0 l/m 4,0 km/h (1 Bft) O 80 2 min 0,000 mm 0,0 UV-I 240 W/m -0,0 C 3,1 C 6,4 km/h (2 Bft) 100,00 %
22.03.2019 07:46 3,1 C 7,2 C 3,9 C 79 % 1031,4 hPa 0,0 l/m 5,5 km/h (1 Bft) O-NO 66 2 min 0,000 mm 0,0 UV-I 247 W/m -0,2 C 3,1 C 8,0 km/h (2 Bft) 100,00 %
22.03.2019 07:48 3,2 C 7,2 C 3,9 C 80 % 1031,4 hPa 0,0 l/m 5,1 km/h (1 Bft) O-NO 73 2 min 0,000 mm 0,0 UV-I 251 W/m 0,1 C 3,2 C 6,4 km/h (2 Bft) 100,00 %
22.03.2019 07:50 3,3 C 7,2 C 3,9 C 79 % 1031,4 hPa 0,0 l/m 5,2 km/h (1 Bft) O-NO 73 2 min 0,000 mm 0,0 UV-I 258 W/m 0,0 C 3,3 C 8,0 km/h (2 Bft) 100,00 %
22.03.2019 07:52 3,4 C 7,2 C 3,9 C 79 % 1031,3 hPa 0,0 l/m 4,8 km/h (1 Bft) O 90 2 min 0,000 mm 0,0 UV-I 263 W/m 0,1 C 3,4 C 6,4 km/h (2 Bft) 100,00 %
22.03.2019 07:54 3,4 C 7,2 C 3,9 C 78 % 1031,3 hPa 0,0 l/m 5,3 km/h (1 Bft) O 94 2 min 0,000 mm 0,0 UV-I 267 W/m -0,1 C 3,4 C 9,7 km/h (2 Bft) 100,00 %
22.03.2019 07:56 3,6 C 7,2 C 4,4 C 78 % 1031,2 hPa 0,0 l/m 6,6 km/h (2 Bft) O 96 2 min 0,000 mm 0,0 UV-I 260 W/m 0,1 C 3,4 C 11,3 km/h (2 Bft) 97,87 %
22.03.2019 07:58 3,7 C 7,2 C 4,4 C 77 % 1031,2 hPa 0,0 l/m 4,4 km/h (1 Bft) O 90 2 min 0,000 mm 0,0 UV-I 268 W/m 0,1 C 3,7 C 9,7 km/h (2 Bft) 100,00 %
22.03.2019 08:00 3,8 C 7,2 C 4,4 C 76 % 1031,3 hPa 0,0 l/m 4,5 km/h (1 Bft) O-NO 75 2 min 0,076 mm 0,3 UV-I 281 W/m -0,0 C 3,8 C 6,4 km/h (2 Bft) 98,00 %
22.03.2019 08:02 3,8 C 7,2 C 4,4 C 76 % 1031,2 hPa 0,0 l/m 4,8 km/h (1 Bft) O-NO 67 2 min 0,000 mm 0,5 UV-I 295 W/m -0,0 C 3,8 C 6,4 km/h (2 Bft) 97,87 %
22.03.2019 08:04 4,0 C 7,2 C 5,0 C 76 % 1031,2 hPa 0,0 l/m 4,8 km/h (1 Bft) O-NO 78 2 min 0,000 mm 0,5 UV-I 300 W/m 0,2 C 4,0 C 6,4 km/h (2 Bft) 95,74 %
22.03.2019 08:06 4,2 C 7,2 C 5,0 C 77 % 1031,2 hPa 0,0 l/m 4,0 km/h (1 Bft) O 101 2 min 0,000 mm 0,5 UV-I 304 W/m 0,5 C 4,2 C 6,4 km/h (2 Bft) 95,24 %
22.03.2019 08:08 4,3 C 7,2 C 5,0 C 75 % 1031,2 hPa 0,0 l/m 4,6 km/h (1 Bft) O 89 2 min 0,000 mm 0,5 UV-I 309 W/m 0,3 C 4,3 C 6,4 km/h (2 Bft) 96,15 %
22.03.2019 08:10 4,3 C 7,2 C 5,6 C 75 % 1031,2 hPa 0,0 l/m 5,2 km/h (1 Bft) O-NO 67 2 min 0,000 mm 0,5 UV-I 315 W/m 0,3 C 4,3 C 6,4 km/h (2 Bft) 92,31 %
22.03.2019 08:12 4,5 C 7,2 C 6,1 C 74 % 1031,2 hPa 0,0 l/m 5,1 km/h (1 Bft) O 87 2 min 0,000 mm 0,6 UV-I 322 W/m 0,3 C 4,5 C 9,7 km/h (2 Bft) 94,64 %
22.03.2019 08:14 4,7 C 7,2 C 6,1 C 73 % 1031,1 hPa 0,0 l/m 5,0 km/h (1 Bft) O 86 2 min 0,000 mm 0,6 UV-I 327 W/m 0,3 C 4,7 C 9,7 km/h (2 Bft) 94,74 %
22.03.2019 08:16 4,7 C 7,2 C 6,1 C 73 % 1031,1 hPa 0,0 l/m 5,6 km/h (1 Bft) O-NO 67 2 min 0,000 mm 0,6 UV-I 332 W/m 0,3 C 4,7 C 8,0 km/h (2 Bft) 93,62 %
22.03.2019 08:18 4,8 C 7,2 C 6,7 C 74 % 1031,1 hPa 0,0 l/m 5,6 km/h (1 Bft) O-NO 74 2 min 0,000 mm 0,6 UV-I 338 W/m 0,6 C 4,8 C 6,4 km/h (2 Bft) 94,00 %
22.03.2019 08:20 4,9 C 7,2 C 6,7 C 74 % 1031,1 hPa 0,0 l/m 4,8 km/h (1 Bft) O-NO 71 2 min 0,000 mm 0,6 UV-I 344 W/m 0,7 C 4,9 C 9,7 km/h (2 Bft) 96,00 %
22.03.2019 08:22 5,1 C 7,2 C 6,7 C 74 % 1031,0 hPa 0,0 l/m 6,0 km/h (2 Bft) O-NO 77 2 min 0,000 mm 0,6 UV-I 346 W/m 0,9 C 5,1 C 8,0 km/h (2 Bft) 97,37 %
22.03.2019 08:24 5,2 C 7,2 C 6,7 C 73 % 1031,0 hPa 0,0 l/m 5,6 km/h (1 Bft) O 85 2 min 0,000 mm 0,7 UV-I 351 W/m 0,8 C 5,2 C 6,4 km/h (2 Bft) 96,00 %
22.03.2019 08:26 5,1 C 7,2 C 7,2 C 73 % 1031,1 hPa 0,0 l/m 3,7 km/h (1 Bft) O 94 2 min 0,000 mm 0,7 UV-I 356 W/m 0,7 C 5,1 C 4,8 km/h (1 Bft) 97,73 %
22.03.2019 08:28 5,2 C 7,2 C 7,8 C 73 % 1031,0 hPa 0,0 l/m 5,1 km/h (1 Bft) NO 51 2 min 0,000 mm 0,7 UV-I 356 W/m 0,8 C 5,2 C 6,4 km/h (2 Bft) 98,21 %
22.03.2019 08:30 5,4 C 7,2 C 8,3 C 75 % 1031,0 hPa 0,0 l/m 6,2 km/h (2 Bft) O-NO 63 2 min 0,000 mm 0,7 UV-I 364 W/m 1,3 C 5,4 C 8,0 km/h (2 Bft) 100,00 %
22.03.2019 08:32 5,5 C 7,2 C 8,3 C 73 % 1031,0 hPa 0,0 l/m 6,6 km/h (2 Bft) NO 46 2 min 0,000 mm 0,7 UV-I 370 W/m 1,1 C 5,3 C 11,3 km/h (2 Bft) 100,00 %
22.03.2019 08:34 5,7 C 7,2 C 8,3 C 74 % 1031,1 hPa 0,0 l/m 6,7 km/h (2 Bft) O 85 2 min 0,000 mm 0,8 UV-I 375 W/m 1,4 C 5,5 C 9,7 km/h (2 Bft) 100,00 %
22.03.2019 08:36 5,8 C 7,2 C 8,3 C 71 % 1031,1 hPa 0,0 l/m 8,0 km/h (2 Bft) O-NO 57 2 min 0,000 mm 0,8 UV-I 385 W/m 1,0 C 4,4 C 12,9 km/h (3 Bft) 100,00 %
22.03.2019 08:38 5,9 C 7,2 C 8,3 C 71 % 1031,1 hPa 0,0 l/m 7,0 km/h (2 Bft) NO 45 2 min 0,000 mm 0,8 UV-I 387 W/m 1,1 C 5,4 C 9,7 km/h (2 Bft) 100,00 %
22.03.2019 08:40 5,9 C 7,2 C 8,3 C 69 % 1031,1 hPa 0,0 l/m 6,0 km/h (2 Bft) O-NO 73 2 min 0,000 mm 0,8 UV-I 391 W/m 0,7 C 5,9 C 9,7 km/h (2 Bft) 98,28 %
22.03.2019 08:42 6,1 C 7,2 C 8,9 C 71 % 1031,0 hPa 0,0 l/m 6,5 km/h (2 Bft) O 86 2 min 0,000 mm 0,8 UV-I 395 W/m 1,2 C 6,0 C 12,9 km/h (3 Bft) 100,00 %
22.03.2019 08:44 6,2 C 7,2 C 9,4 C 69 % 1031,0 hPa 0,0 l/m 8,7 km/h (2 Bft) O 90 2 min 0,000 mm 0,8 UV-I 397 W/m 0,9 C 4,3 C 11,3 km/h (2 Bft) 100,00 %
22.03.2019 08:46 6,3 C 7,2 C 9,4 C 67 % 1030,9 hPa 0,0 l/m 8,6 km/h (2 Bft) O-NO 71 2 min 0,000 mm 0,9 UV-I 404 W/m 0,6 C 4,5 C 12,9 km/h (3 Bft) 100,00 %
22.03.2019 08:48 6,4 C 7,2 C 10,0 C 67 % 1030,9 hPa 0,0 l/m 11,5 km/h (2 Bft) O 88 2 min 0,000 mm 0,9 UV-I 410 W/m 0,7 C 2,7 C 19,3 km/h (3 Bft) 100,00 %
22.03.2019 08:50 6,6 C 7,2 C 10,0 C 65 % 1030,8 hPa 0,0 l/m 11,9 km/h (2 Bft) O-NO 67 2 min 0,000 mm 0,9 UV-I 417 W/m 0,5 C 2,7 C 16,1 km/h (3 Bft) 100,00 %
22.03.2019 08:52 6,6 C 7,2 C 10,6 C 66 % 1030,9 hPa 0,0 l/m 8,4 km/h (2 Bft) O 85 2 min 0,000 mm 0,9 UV-I 424 W/m 0,7 C 5,0 C 12,9 km/h (3 Bft) 100,00 %
22.03.2019 08:54 6,7 C 7,2 C 10,6 C 64 % 1030,8 hPa 0,0 l/m 10,9 km/h (2 Bft) O 79 2 min 0,000 mm 1,0 UV-I 432 W/m 0,4 C 3,4 C 17,7 km/h (3 Bft) 100,00 %
22.03.2019 08:56 6,8 C 7,2 C 11,1 C 65 % 1030,8 hPa 0,0 l/m 9,2 km/h (2 Bft) O 90 2 min 0,000 mm 1,0 UV-I 437 W/m 0,7 C 4,6 C 14,5 km/h (3 Bft) 100,00 %
22.03.2019 08:58 6,9 C 7,2 C 12,2 C 64 % 1030,8 hPa 0,0 l/m 11,5 km/h (2 Bft) O-NO 63 2 min 0,000 mm 1,0 UV-I 441 W/m 0,6 C 3,2 C 14,5 km/h (3 Bft) 100,00 %
22.03.2019 09:00 7,1 C 7,2 C 13,3 C 65 % 1030,8 hPa 0,0 l/m 7,9 km/h (2 Bft) O-NO 74 2 min 0,178 mm 1,0 UV-I 445 W/m 1,0 C 5,9 C 12,9 km/h (3 Bft) 100,00 %
22.03.2019 09:02 7,1 C 7,2 C 13,9 C 65 % 1030,7 hPa 0,0 l/m 8,6 km/h (2 Bft) O 87 2 min 0,000 mm 1,0 UV-I 450 W/m 1,0 C 5,4 C 12,9 km/h (3 Bft) 98,00 %
22.03.2019 09:04 7,2 C 7,2 C 14,4 C 64 % 1030,7 hPa 0,0 l/m 11,8 km/h (2 Bft) O-NO 59 2 min 0,000 mm 1,1 UV-I 455 W/m 0,9 C 3,4 C 17,7 km/h (3 Bft) 98,11 %
22.03.2019 09:06 7,3 C 7,2 C 15,0 C 63 % 1030,7 hPa 0,0 l/m 13,8 km/h (3 Bft) O 81 2 min 0,000 mm 1,1 UV-I 459 W/m 0,7 C 2,4 C 17,7 km/h (3 Bft) 100,00 %
22.03.2019 09:08 7,3 C 7,2 C 15,0 C 63 % 1030,7 hPa 0,0 l/m 10,3 km/h (2 Bft) O 82 2 min 0,000 mm 1,1 UV-I 462 W/m 0,7 C 4,4 C 17,7 km/h (3 Bft) 97,87 %
22.03.2019 09:10 7,3 C 7,2 C 15,0 C 63 % 1030,7 hPa 0,0 l/m 16,0 km/h (3 Bft) O 82 2 min 0,000 mm 1,1 UV-I 468 W/m 0,7 C 1,4 C 22,5 km/h (4 Bft) 98,00 %
22.03.2019 09:12 7,4 C 7,2 C 15,0 C 63 % 1030,7 hPa 0,0 l/m 15,7 km/h (3 Bft) O 84 2 min 0,000 mm 1,2 UV-I 473 W/m 0,8 C 1,7 C 19,3 km/h (3 Bft) 97,87 %
22.03.2019 09:14 7,4 C 7,2 C 15,6 C 63 % 1030,7 hPa 0,0 l/m 15,3 km/h (3 Bft) O-NO 62 2 min 0,000 mm 1,2 UV-I 478 W/m 0,8 C 1,8 C 19,3 km/h (3 Bft) 96,00 %
22.03.2019 09:16 7,5 C 7,2 C 16,1 C 62 % 1030,7 hPa 0,0 l/m 14,9 km/h (3 Bft) O-NO 71 2 min 0,000 mm 1,2 UV-I 482 W/m 0,7 C 2,2 C 22,5 km/h (4 Bft) 97,87 %
22.03.2019 09:18 7,6 C 7,2 C 15,6 C 62 % 1030,7 hPa 0,0 l/m 16,8 km/h (3 Bft) O-NO 75 2 min 0,000 mm 1,2 UV-I 486 W/m 0,8 C 1,4 C 24,1 km/h (4 Bft) 97,44 %
22.03.2019 09:20 7,7 C 7,2 C 16,1 C 62 % 1030,7 hPa 0,0 l/m 18,8 km/h (3 Bft) O 86 2 min 0,000 mm 1,2 UV-I 490 W/m 0,9 C 0,8 C 24,1 km/h (4 Bft) 98,18 %
22.03.2019 09:22 7,8 C 7,2 C 16,1 C 61 % 1030,7 hPa 0,0 l/m 16,5 km/h (3 Bft) O 82 2 min 0,000 mm 1,3 UV-I 494 W/m 0,8 C 1,8 C 24,1 km/h (4 Bft) 97,44 %
22.03.2019 09:24 7,8 C 7,2 C 16,1 C 60 % 1030,7 hPa 0,0 l/m 17,7 km/h (3 Bft) O 98 2 min 0,000 mm 1,3 UV-I 497 W/m 0,5 C 1,3 C 24,1 km/h (4 Bft) 98,00 %
22.03.2019 09:26 7,9 C 7,2 C 16,1 C 60 % 1030,7 hPa 0,0 l/m 16,1 km/h (3 Bft) O 92 2 min 0,000 mm 1,3 UV-I 503 W/m 0,6 C 2,1 C 22,5 km/h (4 Bft) 97,87 %
22.03.2019 09:28 8,1 C 7,2 C 17,2 C 61 % 1030,7 hPa 0,0 l/m 13,9 km/h (3 Bft) O 80 2 min 0,000 mm 1,3 UV-I 507 W/m 1,0 C 3,3 C 19,3 km/h (3 Bft) 100,00 %
22.03.2019 09:30 8,2 C 7,2 C 17,8 C 61 % 1030,6 hPa 0,0 l/m 15,8 km/h (3 Bft) O-NO 75 2 min 0,000 mm 1,3 UV-I 511 W/m 1,1 C 2,6 C 19,3 km/h (3 Bft) 100,00 %
22.03.2019 09:32 8,3 C 7,2 C 18,3 C 62 % 1030,6 hPa 0,0 l/m 12,1 km/h (2 Bft) O-NO 72 2 min 0,000 mm 1,4 UV-I 516 W/m 1,5 C 4,5 C 16,1 km/h (3 Bft) 97,56 %
22.03.2019 09:34 8,5 C 7,2 C 18,9 C 61 % 1030,6 hPa 0,0 l/m 12,2 km/h (2 Bft) O-NO 67 2 min 0,000 mm 1,4 UV-I 520 W/m 1,4 C 4,7 C 17,7 km/h (3 Bft) 98,21 %
22.03.2019 09:36 8,6 C 7,2 C 18,9 C 60 % 1030,6 hPa 0,0 l/m 15,4 km/h (3 Bft) NO 54 2 min 0,000 mm 1,4 UV-I 525 W/m 1,3 C 3,3 C 19,3 km/h (3 Bft) 97,56 %
22.03.2019 09:38 8,7 C 7,2 C 18,9 C 59 % 1030,6 hPa 0,0 l/m 15,6 km/h (3 Bft) O-NO 57 2 min 0,000 mm 1,4 UV-I 529 W/m 1,1 C 3,3 C 19,3 km/h (3 Bft) 97,56 %
22.03.2019 09:40 8,8 C 7,2 C 19,4 C 59 % 1030,6 hPa 0,0 l/m 15,3 km/h (3 Bft) O 85 2 min 0,000 mm 1,5 UV-I 533 W/m 1,2 C 3,5 C 17,7 km/h (3 Bft) 96,43 %
22.03.2019 09:42 8,8 C 7,2 C 19,4 C 59 % 1030,6 hPa 0,0 l/m 15,2 km/h (3 Bft) O-NO 71 2 min 0,000 mm 1,5 UV-I 537 W/m 1,2 C 3,6 C 17,7 km/h (3 Bft) 97,73 %
22.03.2019 09:44 8,9 C 7,2 C 19,4 C 58 % 1030,7 hPa 0,0 l/m 17,9 km/h (3 Bft) O-NO 72 2 min 0,000 mm 1,5 UV-I 541 W/m 1,1 C 2,6 C 24,1 km/h (4 Bft) 95,74 %
22.03.2019 09:46 9,1 C 7,2 C 20,0 C 58 % 1030,6 hPa 0,0 l/m 16,1 km/h (3 Bft) O-NO 66 2 min 0,000 mm 1,5 UV-I 545 W/m 1,3 C 3,6 C 20,9 km/h (4 Bft) 97,37 %
22.03.2019 09:48 9,3 C 7,2 C 20,6 C 57 % 1030,6 hPa 0,0 l/m 14,9 km/h (3 Bft) O 86 2 min 0,000 mm 1,6 UV-I 549 W/m 1,2 C 4,3 C 22,5 km/h (4 Bft) 98,00 %
22.03.2019 09:50 9,5 C 7,2 C 20,6 C 57 % 1030,7 hPa 0,0 l/m 13,4 km/h (3 Bft) NO 51 2 min 0,000 mm 1,6 UV-I 554 W/m 1,4 C 5,2 C 20,9 km/h (4 Bft) 96,23 %
22.03.2019 09:52 9,7 C 7,2 C 21,1 C 56 % 1030,7 hPa 0,0 l/m 18,0 km/h (3 Bft) O-SO 108 2 min 0,000 mm 1,6 UV-I 557 W/m 1,4 C 3,6 C 24,1 km/h (4 Bft) 98,00 %
22.03.2019 09:54 9,8 C 7,2 C 20,6 C 56 % 1030,7 hPa 0,0 l/m 17,4 km/h (3 Bft) O-NO 69 2 min 0,000 mm 1,6 UV-I 562 W/m 1,4 C 3,9 C 25,7 km/h (4 Bft) 97,56 %
22.03.2019 09:56 9,9 C 7,2 C 21,1 C 55 % 1030,7 hPa 0,0 l/m 16,8 km/h (3 Bft) O-NO 58 2 min 0,000 mm 1,7 UV-I 565 W/m 1,3 C 4,3 C 24,1 km/h (4 Bft) 98,00 %
22.03.2019 09:58 10,1 C 7,2 C 21,1 C 56 % 1030,7 hPa 0,0 l/m 17,9 km/h (3 Bft) O 87 2 min 0,000 mm 1,7 UV-I 564 W/m 1,7 C 4,1 C 24,1 km/h (4 Bft) 98,04 %
22.03.2019 10:00 10,1 C 7,2 C 21,7 C 55 % 1030,7 hPa 0,0 l/m 18,5 km/h (3 Bft) NO 54 2 min 0,279 mm 1,7 UV-I 571 W/m 1,5 C 3,9 C 27,4 km/h (4 Bft) 100,00 %
22.03.2019 10:02 10,2 C 7,2 C 21,7 C 57 % 1030,7 hPa 0,0 l/m 21,7 km/h (4 Bft) O-NO 65 2 min 0,000 mm 1,7 UV-I 568 W/m 2,1 C 3,0 C 27,4 km/h (4 Bft) 100,00 %
22.03.2019 10:04 10,3 C 7,2 C 21,1 C 55 % 1030,6 hPa 0,0 l/m 19,7 km/h (3 Bft) O-NO 66 2 min 0,000 mm 1,7 UV-I 579 W/m 1,7 C 3,8 C 25,7 km/h (4 Bft) 100,00 %
22.03.2019 10:06 10,3 C 7,2 C 21,1 C 55 % 1030,6 hPa 0,0 l/m 14,6 km/h (3 Bft) O 97 2 min 0,000 mm 1,8 UV-I 580 W/m 1,7 C 5,7 C 20,9 km/h (4 Bft) 100,00 %
22.03.2019 10:08 10,3 C 7,2 C 21,1 C 55 % 1030,6 hPa 0,0 l/m 17,6 km/h (3 Bft) NO 44 2 min 0,000 mm 1,8 UV-I 571 W/m 1,7 C 4,5 C 24,1 km/h (4 Bft) 100,00 %
22.03.2019 10:10 10,4 C 7,2 C 20,6 C 54 % 1030,6 hPa 0,0 l/m 16,5 km/h (3 Bft) O-NO 62 2 min 0,000 mm 1,8 UV-I 586 W/m 1,5 C 5,0 C 22,5 km/h (4 Bft) 100,00 %
22.03.2019 10:12 10,4 C 7,2 C 20,6 C 54 % 1030,5 hPa 0,0 l/m 17,5 km/h (3 Bft) O 86 2 min 0,000 mm 1,8 UV-I 575 W/m 1,5 C 4,7 C 22,5 km/h (4 Bft) 100,00 %
22.03.2019 10:14 10,5 C 7,2 C 21,1 C 54 % 1030,5 hPa 0,0 l/m 18,1 km/h (3 Bft) NO 50 2 min 0,000 mm 1,8 UV-I 574 W/m 1,6 C 4,6 C 22,5 km/h (4 Bft) 100,00 %
22.03.2019 10:16 10,6 C 7,2 C 21,7 C 56 % 1030,5 hPa 0,0 l/m 15,6 km/h (3 Bft) O 90 2 min 0,000 mm 1,9 UV-I 601 W/m 2,2 C 5,6 C 22,5 km/h (4 Bft) 100,00 %
22.03.2019 10:18 10,7 C 7,2 C 21,7 C 53 % 1030,6 hPa 0,0 l/m 16,9 km/h (3 Bft) O-NO 74 2 min 0,000 mm 1,9 UV-I 613 W/m 1,5 C 5,2 C 22,5 km/h (4 Bft) 100,00 %
22.03.2019 10:20 10,8 C 7,2 C 21,7 C 54 % 1030,5 hPa 0,0 l/m 18,4 km/h (3 Bft) O 94 2 min 0,000 mm 1,9 UV-I 617 W/m 1,9 C 4,8 C 25,7 km/h (4 Bft) 97,87 %
22.03.2019 10:22 10,8 C 7,2 C 20,6 C 54 % 1030,5 hPa 0,0 l/m 16,9 km/h (3 Bft) O-NO 76 2 min 0,000 mm 1,9 UV-I 553 W/m 1,9 C 5,4 C 22,5 km/h (4 Bft) 97,87 %
22.03.2019 10:24 10,8 C 7,2 C 20,6 C 53 % 1030,5 hPa 0,0 l/m 18,3 km/h (3 Bft) O-NO 67 2 min 0,000 mm 1,9 UV-I 586 W/m 1,6 C 4,9 C 24,1 km/h (4 Bft) 98,00 %
22.03.2019 10:26 10,9 C 7,2 C 21,1 C 55 % 1030,4 hPa 0,0 l/m 16,1 km/h (3 Bft) O-NO 57 2 min 0,000 mm 2,0 UV-I 606 W/m 2,2 C 5,8 C 22,5 km/h (4 Bft) 97,56 %
22.03.2019 10:28 11,0 C 7,2 C 21,1 C 54 % 1030,4 hPa 0,0 l/m 15,0 km/h (3 Bft) O-NO 76 2 min 0,000 mm 2,0 UV-I 618 W/m 2,1 C 6,3 C 22,5 km/h (4 Bft) 97,87 %
22.03.2019 10:30 11,2 C 7,2 C 21,7 C 55 % 1030,4 hPa 0,0 l/m 16,5 km/h (3 Bft) O 97 2 min 0,000 mm 2,0 UV-I 608 W/m 2,5 C 6,0 C 24,1 km/h (4 Bft) 97,87 %
22.03.2019 10:32 11,3 C 7,2 C 22,2 C 56 % 1030,4 hPa 0,0 l/m 16,1 km/h (3 Bft) O 82 2 min 0,000 mm 2,1 UV-I 627 W/m 2,8 C 6,3 C 20,9 km/h (4 Bft) 97,92 %
22.03.2019 10:34 11,4 C 7,2 C 22,2 C 54 % 1030,4 hPa 0,0 l/m 14,4 km/h (3 Bft) O 82 2 min 0,000 mm 2,1 UV-I 640 W/m 2,4 C 7,1 C 19,3 km/h (3 Bft) 97,96 %
22.03.2019 10:36 11,5 C 7,2 C 22,2 C 54 % 1030,4 hPa 0,0 l/m 18,4 km/h (3 Bft) O 82 2 min 0,000 mm 2,1 UV-I 612 W/m 2,5 C 5,7 C 24,1 km/h (4 Bft) 97,44 %
22.03.2019 10:38 11,5 C 7,2 C 22,2 C 54 % 1030,4 hPa 0,0 l/m 12,4 km/h (3 Bft) NO 48 2 min 0,000 mm 2,0 UV-I 537 W/m 2,5 C 8,1 C 17,7 km/h (3 Bft) 96,43 %
22.03.2019 10:40 11,7 C 7,2 C 22,8 C 56 % 1030,4 hPa 0,0 l/m 13,8 km/h (3 Bft) O-NO 68 2 min 0,000 mm 2,1 UV-I 619 W/m 3,2 C 7,7 C 19,3 km/h (3 Bft) 94,74 %
22.03.2019 10:42 11,9 C 7,2 C 23,3 C 55 % 1030,4 hPa 0,0 l/m 14,4 km/h (3 Bft) O-SO 108 2 min 0,000 mm 2,2 UV-I 637 W/m 3,2 C 7,7 C 20,9 km/h (4 Bft) 98,21 %
22.03.2019 10:44 12,1 C 7,2 C 23,9 C 55 % 1030,4 hPa 0,0 l/m 14,8 km/h (3 Bft) O 98 2 min 0,000 mm 2,2 UV-I 643 W/m 3,3 C 7,8 C 19,3 km/h (3 Bft) 100,00 %
22.03.2019 10:46 12,3 C 7,2 C 23,9 C 54 % 1030,3 hPa 0,0 l/m 13,6 km/h (3 Bft) NO 54 2 min 0,000 mm 2,3 UV-I 645 W/m 3,3 C 8,5 C 17,7 km/h (3 Bft) 97,14 %
22.03.2019 10:54 12,6 C 7,2 C 22,2 C 53 % 1030,1 hPa 0,0 l/m 18,9 km/h (3 Bft) O 89 8 min 0,000 mm 2,3 UV-I 634 W/m 3,3 C 7,0 C 29,0 km/h (5 Bft) 100,00 %
22.03.2019 10:56 12,8 C 7,2 C 23,3 C 53 % 1030,1 hPa 0,0 l/m 13,7 km/h (3 Bft) O-NO 67 2 min 0,000 mm 2,4 UV-I 670 W/m 3,5 C 9,0 C 22,5 km/h (4 Bft) 100,00 %
22.03.2019 10:58 13,1 C 7,2 C 23,9 C 53 % 1030,1 hPa 0,0 l/m 16,4 km/h (3 Bft) O-NO 78 2 min 0,000 mm 2,4 UV-I 658 W/m 3,7 C 8,4 C 25,7 km/h (4 Bft) 100,00 %
22.03.2019 11:00 13,2 C 7,2 C 23,9 C 53 % 1030,1 hPa 0,0 l/m 19,8 km/h (3 Bft) O-NO 71 2 min 0,381 mm 2,4 UV-I 667 W/m 3,8 C 7,5 C 29,0 km/h (5 Bft) 100,00 %
22.03.2019 11:02 13,4 C 7,2 C 23,9 C 52 % 1030,1 hPa 0,0 l/m 19,1 km/h (3 Bft) O-NO 67 2 min 0,000 mm 2,4 UV-I 651 W/m 3,7 C 7,9 C 24,1 km/h (4 Bft) 100,00 %
22.03.2019 11:04 13,4 C 7,2 C 23,9 C 52 % 1030,0 hPa 0,0 l/m 18,9 km/h (3 Bft) O-NO 67 2 min 0,000 mm 2,3 UV-I 635 W/m 3,7 C 8,0 C 25,7 km/h (4 Bft) 100,00 %
22.03.2019 11:06 13,6 C 7,2 C 23,3 C 50 % 1030,1 hPa 0,0 l/m 19,5 km/h (3 Bft) O-NO 71 2 min 0,000 mm 2,3 UV-I 621 W/m 3,4 C 8,1 C 27,4 km/h (4 Bft) 97,22 %
22.03.2019 11:08 13,5 C 7,2 C 22,2 C 51 % 1030,1 hPa 0,0 l/m 13,1 km/h (3 Bft) O-NO 61 2 min 0,000 mm 2,2 UV-I 547 W/m 3,6 C 10,1 C 17,7 km/h (3 Bft) 98,11 %
22.03.2019 11:10 13,6 C 7,2 C 22,2 C 51 % 1030,0 hPa 0,0 l/m 18,1 km/h (3 Bft) O 82 2 min 0,000 mm 2,2 UV-I 535 W/m 3,7 C 8,5 C 24,1 km/h (4 Bft) 93,62 %
22.03.2019 11:12 13,5 C 7,2 C 21,1 C 52 % 1030,1 hPa 0,0 l/m 21,5 km/h (4 Bft) O-NO 76 2 min 0,000 mm 2,1 UV-I 481 W/m 3,8 C 7,4 C 27,4 km/h (4 Bft) 100,00 %
22.03.2019 11:14 13,5 C 7,2 C 20,6 C 50 % 1030,0 hPa 0,0 l/m 22,0 km/h (4 Bft) O 93 2 min 0,000 mm 2,1 UV-I 475 W/m 3,3 C 7,3 C 30,6 km/h (5 Bft) 96,23 %
22.03.2019 11:16 13,4 C 7,2 C 21,1 C 49 % 1030,0 hPa 0,0 l/m 22,1 km/h (4 Bft) O 98 2 min 0,000 mm 2,2 UV-I 551 W/m 2,9 C 7,1 C 32,2 km/h (5 Bft) 98,21 %
22.03.2019 11:18 13,4 C 7,2 C 21,7 C 50 % 1030,0 hPa 0,0 l/m 23,8 km/h (4 Bft) O-SO 105 2 min 0,000 mm 2,3 UV-I 579 W/m 3,2 C 6,7 C 32,2 km/h (5 Bft) 96,00 %
22.03.2019 11:20 13,5 C 7,2 C 22,2 C 51 % 1030,0 hPa 0,0 l/m 20,7 km/h (4 Bft) O 89 2 min 0,000 mm 2,3 UV-I 577 W/m 3,6 C 7,6 C 27,4 km/h (4 Bft) 96,15 %
22.03.2019 11:22 13,6 C 7,2 C 22,2 C 51 % 1030,0 hPa 0,0 l/m 22,8 km/h (4 Bft) O 84 2 min 0,000 mm 2,4 UV-I 626 W/m 3,7 C 7,2 C 30,6 km/h (5 Bft) 98,31 %
22.03.2019 11:24 13,6 C 7,2 C 22,2 C 50 % 1030,0 hPa 0,0 l/m 20,0 km/h (4 Bft) O-NO 78 2 min 0,000 mm 2,5 UV-I 639 W/m 3,4 C 7,9 C 27,4 km/h (4 Bft) 98,00 %
22.03.2019 11:26 13,6 C 7,2 C 22,8 C 50 % 1029,9 hPa 0,0 l/m 21,0 km/h (4 Bft) O-NO 71 2 min 0,000 mm 2,5 UV-I 631 W/m 3,4 C 7,7 C 25,7 km/h (4 Bft) 95,12 %
22.03.2019 11:28 13,7 C 7,2 C 22,8 C 50 % 1030,0 hPa 0,0 l/m 20,9 km/h (4 Bft) O-SO 104 2 min 0,000 mm 2,4 UV-I 610 W/m 3,5 C 7,8 C 30,6 km/h (5 Bft) 98,00 %
22.03.2019 11:30 13,7 C 7,2 C 22,8 C 50 % 1029,9 hPa 0,0 l/m 21,3 km/h (4 Bft) O-NO 71 2 min 0,000 mm 2,5 UV-I 603 W/m 3,5 C 7,7 C 29,0 km/h (5 Bft) 97,73 %
22.03.2019 11:32 13,8 C 7,2 C 22,8 C 52 % 1029,9 hPa 0,0 l/m 16,5 km/h (3 Bft) O-NO 68 2 min 0,000 mm 2,5 UV-I 631 W/m 4,1 C 9,2 C 22,5 km/h (4 Bft) 98,11 %
22.03.2019 11:34 13,9 C 7,2 C 23,3 C 51 % 1029,8 hPa 0,0 l/m 20,4 km/h (4 Bft) O 96 2 min 0,000 mm 2,5 UV-I 606 W/m 3,9 C 8,2 C 29,0 km/h (5 Bft) 100,00 %
22.03.2019 11:36 13,9 C 7,2 C 22,8 C 50 % 1029,9 hPa 0,0 l/m 23,2 km/h (4 Bft) O-NO 65 2 min 0,000 mm 2,5 UV-I 624 W/m 3,7 C 7,5 C 30,6 km/h (5 Bft) 100,00 %
22.03.2019 11:38 14,1 C 7,2 C 22,8 C 51 % 1029,8 hPa 0,0 l/m 22,3 km/h (4 Bft) O 84 2 min 0,000 mm 2,5 UV-I 640 W/m 4,1 C 8,0 C 27,4 km/h (4 Bft) 100,00 %
22.03.2019 11:40 14,1 C 7,2 C 22,2 C 50 % 1029,8 hPa 0,0 l/m 21,7 km/h (4 Bft) O-NO 66 2 min 0,000 mm 2,3 UV-I 562 W/m 3,8 C 8,1 C 29,0 km/h (5 Bft) 100,00 %
22.03.2019 11:42 14,1 C 7,2 C 22,2 C 49 % 1029,8 hPa 0,0 l/m 20,7 km/h (4 Bft) O-NO 72 2 min 0,000 mm 2,4 UV-I 576 W/m 3,6 C 8,4 C 27,4 km/h (4 Bft) 97,62 %
22.03.2019 11:44 14,0 C 7,2 C 22,2 C 49 % 1029,7 hPa 0,0 l/m 19,8 km/h (3 Bft) O-NO 75 2 min 0,000 mm 2,4 UV-I 565 W/m 3,5 C 8,5 C 25,7 km/h (4 Bft) 96,36 %
22.03.2019 11:46 14,0 C 7,2 C 22,2 C 50 % 1029,8 hPa 0,0 l/m 21,3 km/h (4 Bft) O-NO 66 2 min 0,000 mm 2,5 UV-I 601 W/m 3,7 C 8,1 C 30,6 km/h (5 Bft) 97,92 %
22.03.2019 11:48 14,1 C 7,2 C 22,8 C 49 % 1029,7 hPa 0,0 l/m 23,0 km/h (4 Bft) O 96 2 min 0,000 mm 2,5 UV-I 611 W/m 3,6 C 7,8 C 32,2 km/h (5 Bft) 98,00 %
22.03.2019 11:50 14,1 C 7,2 C 22,8 C 49 % 1029,7 hPa 0,0 l/m 23,1 km/h (4 Bft) O 79 2 min 0,000 mm 2,5 UV-I 645 W/m 3,6 C 7,8 C 32,2 km/h (5 Bft) 97,87 %
22.03.2019 11:52 14,2 C 7,2 C 22,8 C 49 % 1029,7 hPa 0,0 l/m 22,2 km/h (4 Bft) O-SO 113 2 min 0,000 mm 2,7 UV-I 707 W/m 3,6 C 8,2 C 30,6 km/h (5 Bft) 97,14 %
22.03.2019 11:54 14,3 C 7,2 C 23,9 C 49 % 1029,7 hPa 0,0 l/m 21,8 km/h (4 Bft) O 91 2 min 0,000 mm 2,7 UV-I 686 W/m 3,7 C 8,4 C 32,2 km/h (5 Bft) 95,45 %
22.03.2019 11:56 14,4 C 7,2 C 23,9 C 49 % 1029,7 hPa 0,0 l/m 21,1 km/h (4 Bft) O 97 2 min 0,000 mm 2,8 UV-I 709 W/m 3,8 C 8,7 C 30,6 km/h (5 Bft) 98,21 %
22.03.2019 11:58 14,5 C 7,2 C 24,4 C 49 % 1029,7 hPa 0,0 l/m 19,5 km/h (3 Bft) O-SO 105 2 min 0,000 mm 2,8 UV-I 713 W/m 3,9 C 9,2 C 25,7 km/h (4 Bft) 98,00 %
22.03.2019 12:00 14,6 C 7,2 C 24,4 C 48 % 1029,7 hPa 0,0 l/m 23,1 km/h (4 Bft) NO 46 2 min 0,432 mm 2,8 UV-I 710 W/m 3,7 C 8,5 C 33,8 km/h (5 Bft) 95,74 %
22.03.2019 12:02 14,7 C 7,2 C 23,9 C 48 % 1029,7 hPa 0,0 l/m 25,6 km/h (4 Bft) O-NO 78 2 min 0,000 mm 2,8 UV-I 688 W/m 3,8 C 8,1 C 30,6 km/h (5 Bft) 97,73 %
22.03.2019 12:04 14,7 C 7,2 C 23,9 C 48 % 1029,6 hPa 0,0 l/m 24,0 km/h (4 Bft) O-NO 74 2 min 0,000 mm 2,7 UV-I 681 W/m 3,8 C 8,4 C 30,6 km/h (5 Bft) 96,00 %
22.03.2019 12:06 14,8 C 7,2 C 24,4 C 50 % 1029,6 hPa 0,0 l/m 23,0 km/h (4 Bft) O 84 2 min 0,000 mm 2,7 UV-I 691 W/m 4,5 C 8,8 C 30,6 km/h (5 Bft) 100,00 %
22.03.2019 12:08 14,8 C 7,2 C 24,4 C 49 % 1029,6 hPa 0,0 l/m 20,5 km/h (4 Bft) O 91 2 min 0,000 mm 2,7 UV-I 686 W/m 4,2 C 9,4 C 27,4 km/h (4 Bft) 100,00 %
22.03.2019 12:10 14,9 C 7,2 C 24,4 C 49 % 1029,6 hPa 0,0 l/m 18,8 km/h (3 Bft) O-NO 74 2 min 0,000 mm 2,7 UV-I 676 W/m 4,3 C 9,9 C 25,7 km/h (4 Bft) 97,37 %
22.03.2019 12:12 14,9 C 7,2 C 24,4 C 50 % 1029,6 hPa 0,0 l/m 18,7 km/h (3 Bft) O 82 2 min 0,000 mm 2,7 UV-I 661 W/m 4,6 C 10,0 C 24,1 km/h (4 Bft) 100,00 %
22.03.2019 12:14 15,1 C 7,2 C 24,4 C 48 % 1029,6 hPa 0,0 l/m 20,8 km/h (4 Bft) O-NO 69 2 min 0,000 mm 2,7 UV-I 673 W/m 4,2 C 9,7 C 29,0 km/h (5 Bft) 100,00 %
22.03.2019 12:16 15,2 C 7,2 C 23,9 C 49 % 1029,6 hPa 0,0 l/m 22,2 km/h (4 Bft) O 96 2 min 0,000 mm 2,6 UV-I 600 W/m 4,6 C 9,5 C 29,0 km/h (5 Bft) 98,18 %
22.03.2019 12:18 15,1 C 7,2 C 23,9 C 47 % 1029,5 hPa 0,0 l/m 23,7 km/h (4 Bft) O 94 2 min 0,000 mm 2,5 UV-I 584 W/m 3,9 C 9,0 C 32,2 km/h (5 Bft) 100,00 %
22.03.2019 12:20 15,1 C 7,2 C 23,9 C 48 % 1029,5 hPa 0,0 l/m 23,4 km/h (4 Bft) O 100 2 min 0,000 mm 2,7 UV-I 673 W/m 4,2 C 9,1 C 29,0 km/h (5 Bft) 100,00 %
22.03.2019 12:22 15,1 C 7,2 C 23,9 C 48 % 1029,5 hPa 0,0 l/m 22,1 km/h (4 Bft) O 100 2 min 0,000 mm 2,7 UV-I 671 W/m 4,2 C 9,4 C 30,6 km/h (5 Bft) 100,00 %
22.03.2019 12:24 15,1 C 7,2 C 23,3 C 47 % 1029,5 hPa 0,0 l/m 24,0 km/h (4 Bft) O-SO 103 2 min 0,000 mm 2,8 UV-I 687 W/m 3,9 C 9,0 C 32,2 km/h (5 Bft) 100,00 %
22.03.2019 12:26 15,2 C 7,2 C 24,4 C 49 % 1029,4 hPa 0,0 l/m 20,2 km/h (4 Bft) O-NO 66 2 min 0,000 mm 2,8 UV-I 705 W/m 4,6 C 10,0 C 27,4 km/h (4 Bft) 98,00 %
22.03.2019 12:28 15,2 C 7,2 C 24,4 C 47 % 1029,4 hPa 0,0 l/m 25,1 km/h (4 Bft) O-NO 67 2 min 0,000 mm 2,8 UV-I 722 W/m 4,0 C 8,9 C 32,2 km/h (5 Bft) 100,00 %
22.03.2019 12:30 15,3 C 7,2 C 24,4 C 47 % 1029,5 hPa 0,0 l/m 23,2 km/h (4 Bft) O 88 2 min 0,000 mm 2,9 UV-I 745 W/m 4,1 C 9,4 C 33,8 km/h (5 Bft) 98,00 %
22.03.2019 12:32 15,3 C 7,2 C 25,0 C 48 % 1029,4 hPa 0,0 l/m 23,4 km/h (4 Bft) O 82 2 min 0,000 mm 2,8 UV-I 726 W/m 4,4 C 9,3 C 33,8 km/h (5 Bft) 100,00 %
22.03.2019 12:34 15,3 C 7,2 C 24,4 C 48 % 1029,5 hPa 0,0 l/m 23,6 km/h (4 Bft) O 85 2 min 0,000 mm 2,8 UV-I 740 W/m 4,4 C 9,3 C 33,8 km/h (5 Bft) 100,00 %
22.03.2019 12:36 15,4 C 7,2 C 25,0 C 48 % 1029,4 hPa 0,0 l/m 20,9 km/h (4 Bft) NO 55 2 min 0,000 mm 2,9 UV-I 743 W/m 4,4 C 10,0 C 32,2 km/h (5 Bft) 100,00 %
22.03.2019 12:38 15,6 C 7,8 C 25,6 C 49 % 1029,4 hPa 0,0 l/m 19,8 km/h (3 Bft) O 86 2 min 0,000 mm 2,8 UV-I 738 W/m 4,9 C 10,6 C 25,7 km/h (4 Bft) 97,73 %
22.03.2019 12:40 15,7 C 7,8 C 25,6 C 49 % 1029,4 hPa 0,0 l/m 19,9 km/h (4 Bft) O 82 2 min 0,000 mm 2,6 UV-I 677 W/m 5,0 C 10,7 C 25,7 km/h (4 Bft) 100,00 %
22.03.2019 12:42 15,7 C 7,8 C 24,4 C 48 % 1029,3 hPa 0,0 l/m 20,6 km/h (4 Bft) O 100 2 min 0,000 mm 2,5 UV-I 566 W/m 4,7 C 10,5 C 29,0 km/h (5 Bft) 100,00 %
22.03.2019 12:44 15,8 C 7,8 C 25,0 C 48 % 1029,4 hPa 0,0 l/m 20,8 km/h (4 Bft) O-NO 74 2 min 0,000 mm 2,5 UV-I 616 W/m 4,8 C 10,6 C 25,7 km/h (4 Bft) 100,00 %
22.03.2019 12:46 15,8 C 7,8 C 25,0 C 48 % 1029,4 hPa 0,0 l/m 17,0 km/h (3 Bft) O-SO 116 2 min 0,000 mm 2,6 UV-I 662 W/m 4,8 C 11,6 C 27,4 km/h (4 Bft) 100,00 %
22.03.2019 12:48 15,9 C 7,8 C 25,0 C 48 % 1029,3 hPa 0,0 l/m 18,2 km/h (3 Bft) O-SO 105 2 min 0,000 mm 2,5 UV-I 599 W/m 4,9 C 11,4 C 25,7 km/h (4 Bft) 100,00 %
22.03.2019 12:50 15,9 C 7,8 C 24,4 C 48 % 1029,3 hPa 0,0 l/m 19,4 km/h (3 Bft) O-SO 106 2 min 0,000 mm 2,5 UV-I 597 W/m 4,9 C 11,1 C 25,7 km/h (4 Bft) 97,73 %
22.03.2019 12:52 15,9 C 7,8 C 25,0 C 49 % 1029,4 hPa 0,0 l/m 17,7 km/h (3 Bft) O 96 2 min 0,000 mm 2,6 UV-I 630 W/m 5,2 C 11,5 C 29,0 km/h (5 Bft) 93,18 %
22.03.2019 12:54 15,9 C 7,8 C 25,0 C 46 % 1029,3 hPa 0,0 l/m 17,8 km/h (3 Bft) O 94 2 min 0,000 mm 2,5 UV-I 589 W/m 4,3 C 11,5 C 25,7 km/h (4 Bft) 96,23 %
22.03.2019 12:56 15,9 C 7,8 C 24,4 C 49 % 1029,3 hPa 0,0 l/m 17,0 km/h (3 Bft) O-SO 115 2 min 0,000 mm 2,4 UV-I 571 W/m 5,2 C 11,7 C 24,1 km/h (4 Bft) 97,87 %
22.03.2019 12:58 16,1 C 7,8 C 25,0 C 50 % 1029,3 hPa 0,0 l/m 15,9 km/h (3 Bft) O 95 2 min 0,000 mm 2,4 UV-I 571 W/m 5,7 C 12,3 C 22,5 km/h (4 Bft) 95,74 %
22.03.2019 13:00 16,2 C 7,8 C 25,0 C 48 % 1029,2 hPa 0,0 l/m 17,5 km/h (3 Bft) O 94 2 min 0,483 mm 2,4 UV-I 612 W/m 5,2 C 11,9 C 24,1 km/h (4 Bft) 95,45 %
22.03.2019 13:02 16,1 C 7,8 C 23,9 C 47 % 1029,2 hPa 0,0 l/m 20,0 km/h (4 Bft) O 79 2 min 0,000 mm 2,3 UV-I 592 W/m 4,8 C 11,2 C 25,7 km/h (4 Bft) 98,00 %
22.03.2019 13:04 16,1 C 7,8 C 22,2 C 47 % 1029,2 hPa 0,0 l/m 17,3 km/h (3 Bft) O-NO 76 2 min 0,000 mm 2,0 UV-I 439 W/m 4,8 C 11,9 C 24,1 km/h (4 Bft) 92,86 %
22.03.2019 13:06 16,0 C 7,8 C 22,2 C 49 % 1029,2 hPa 0,0 l/m 20,3 km/h (4 Bft) O-NO 71 2 min 0,000 mm 2,1 UV-I 419 W/m 5,3 C 11,0 C 25,7 km/h (4 Bft) 93,62 %
22.03.2019 13:08 15,9 C 7,8 C 22,2 C 48 % 1029,2 hPa 0,0 l/m 19,0 km/h (3 Bft) O 88 2 min 0,000 mm 2,2 UV-I 512 W/m 4,9 C 11,2 C 25,7 km/h (4 Bft) 90,00 %
22.03.2019 13:10 16,0 C 7,8 C 22,8 C 50 % 1029,0 hPa 0,0 l/m 16,9 km/h (3 Bft) NO 53 2 min 0,000 mm 2,3 UV-I 546 W/m 5,6 C 11,8 C 25,7 km/h (4 Bft) 89,36 %
22.03.2019 13:12 16,1 C 7,8 C 23,9 C 49 % 1029,0 hPa 0,0 l/m 17,3 km/h (3 Bft) O-NO 71 2 min 0,000 mm 2,4 UV-I 600 W/m 5,4 C 11,9 C 27,4 km/h (4 Bft) 90,24 %
22.03.2019 13:14 16,2 C 7,8 C 25,0 C 50 % 1029,0 hPa 0,0 l/m 17,0 km/h (3 Bft) O 92 2 min 0,000 mm 2,5 UV-I 629 W/m 5,8 C 12,1 C 25,7 km/h (4 Bft) 96,00 %
22.03.2019 13:16 16,3 C 7,8 C 25,0 C 48 % 1029,0 hPa 0,0 l/m 20,4 km/h (4 Bft) O-SO 104 2 min 0,000 mm 2,5 UV-I 649 W/m 5,3 C 11,3 C 27,4 km/h (4 Bft) 93,62 %
22.03.2019 13:18 16,3 C 7,8 C 25,0 C 48 % 1029,0 hPa 0,0 l/m 19,9 km/h (4 Bft) O 99 2 min 0,000 mm 2,5 UV-I 638 W/m 5,3 C 11,4 C 24,1 km/h (4 Bft) 89,47 %
22.03.2019 13:20 16,4 C 7,8 C 24,4 C 47 % 1028,9 hPa 0,0 l/m 25,8 km/h (4 Bft) O-SO 112 2 min 0,000 mm 2,4 UV-I 593 W/m 5,1 C 10,4 C 33,8 km/h (5 Bft) 96,23 %
22.03.2019 13:22 16,4 C 7,8 C 23,9 C 47 % 1028,9 hPa 0,0 l/m 25,8 km/h (4 Bft) O-NO 67 2 min 0,000 mm 2,3 UV-I 572 W/m 5,1 C 10,4 C 32,2 km/h (5 Bft) 96,00 %
22.03.2019 13:24 16,4 C 7,8 C 23,9 C 47 % 1028,9 hPa 0,0 l/m 25,0 km/h (4 Bft) O-NO 74 2 min 0,000 mm 2,4 UV-I 613 W/m 5,1 C 10,5 C 33,8 km/h (5 Bft) 96,00 %
22.03.2019 13:26 16,4 C 7,8 C 22,8 C 47 % 1028,9 hPa 0,0 l/m 27,4 km/h (4 Bft) O 82 2 min 0,000 mm 2,3 UV-I 583 W/m 5,1 C 10,1 C 35,4 km/h (5 Bft) 93,18 %
22.03.2019 13:28 16,3 C 7,8 C 22,2 C 46 % 1028,9 hPa 0,0 l/m 27,4 km/h (4 Bft) O 92 2 min 0,000 mm 2,2 UV-I 554 W/m 4,7 C 9,9 C 37,0 km/h (5 Bft) 92,11 %
22.03.2019 13:30 16,3 C 7,8 C 22,8 C 47 % 1028,9 hPa 0,0 l/m 24,2 km/h (4 Bft) O-NO 58 2 min 0,000 mm 2,2 UV-I 552 W/m 5,0 C 10,5 C 32,2 km/h (5 Bft) 96,23 %
22.03.2019 13:32 16,3 C 7,8 C 22,8 C 47 % 1028,8 hPa 0,0 l/m 25,9 km/h (4 Bft) O-NO 69 2 min 0,000 mm 2,3 UV-I 579 W/m 5,0 C 10,2 C 33,8 km/h (5 Bft) 94,00 %
22.03.2019 13:34 16,3 C 7,8 C 23,3 C 47 % 1028,8 hPa 0,0 l/m 24,0 km/h (4 Bft) O-NO 68 2 min 0,000 mm 2,3 UV-I 608 W/m 5,0 C 10,6 C 30,6 km/h (5 Bft) 98,00 %
22.03.2019 13:36 16,4 C 7,8 C 23,9 C 48 % 1028,8 hPa 0,0 l/m 22,1 km/h (4 Bft) O-NO 78 2 min 0,000 mm 2,3 UV-I 623 W/m 5,4 C 11,1 C 29,0 km/h (5 Bft) 97,56 %
22.03.2019 13:38 16,4 C 7,8 C 23,9 C 47 % 1028,8 hPa 0,0 l/m 23,0 km/h (4 Bft) O-NO 77 2 min 0,000 mm 2,3 UV-I 632 W/m 5,1 C 10,9 C 29,0 km/h (5 Bft) 97,62 %
22.03.2019 13:40 16,5 C 7,8 C 23,9 C 47 % 1028,8 hPa 0,0 l/m 24,5 km/h (4 Bft) O-NO 73 2 min 0,000 mm 2,3 UV-I 639 W/m 5,2 C 10,7 C 30,6 km/h (5 Bft) 98,00 %
22.03.2019 13:42 16,6 C 7,8 C 23,9 C 47 % 1028,8 hPa 0,0 l/m 24,9 km/h (4 Bft) NO 53 2 min 0,000 mm 2,3 UV-I 630 W/m 5,2 C 10,8 C 32,2 km/h (5 Bft) 97,87 %
22.03.2019 13:44 16,6 C 7,8 C 23,9 C 47 % 1028,8 hPa 0,0 l/m 23,0 km/h (4 Bft) O-NO 66 2 min 0,000 mm 2,3 UV-I 628 W/m 5,2 C 11,2 C 29,0 km/h (5 Bft) 98,00 %
22.03.2019 13:46 16,6 C 7,8 C 23,3 C 47 % 1028,7 hPa 0,0 l/m 24,2 km/h (4 Bft) O 88 2 min 0,000 mm 2,2 UV-I 546 W/m 5,2 C 10,9 C 32,2 km/h (5 Bft) 98,00 %
22.03.2019 13:48 16,6 C 7,8 C 22,8 C 48 % 1028,6 hPa 0,0 l/m 24,3 km/h (4 Bft) O 82 2 min 0,000 mm 2,1 UV-I 512 W/m 5,5 C 10,9 C 32,2 km/h (5 Bft) 97,37 %
22.03.2019 13:50 16,7 C 7,8 C 23,9 C 49 % 1028,6 hPa 0,0 l/m 17,1 km/h (3 Bft) O-NO 68 2 min 0,000 mm 2,1 UV-I 574 W/m 5,9 C 12,7 C 27,4 km/h (4 Bft) 96,00 %
22.03.2019 13:52 16,8 C 7,8 C 24,4 C 48 % 1028,7 hPa 0,0 l/m 22,2 km/h (4 Bft) O 90 2 min 0,000 mm 2,2 UV-I 606 W/m 5,7 C 11,6 C 29,0 km/h (5 Bft) 97,87 %
22.03.2019 13:54 16,8 C 7,8 C 24,4 C 48 % 1028,6 hPa 0,0 l/m 21,8 km/h (4 Bft) O 92 2 min 0,000 mm 2,1 UV-I 571 W/m 5,7 C 11,7 C 30,6 km/h (5 Bft) 94,00 %
22.03.2019 13:56 16,9 C 7,8 C 25,0 C 48 % 1028,5 hPa 0,0 l/m 18,6 km/h (3 Bft) O 93 2 min 0,000 mm 2,1 UV-I 588 W/m 5,8 C 12,5 C 24,1 km/h (4 Bft) 97,37 %
22.03.2019 13:58 17,1 C 7,8 C 25,0 C 49 % 1028,5 hPa 0,0 l/m 15,4 km/h (3 Bft) O-NO 78 2 min 0,000 mm 2,1 UV-I 578 W/m 6,3 C 13,6 C 22,5 km/h (4 Bft) 96,43 %
22.03.2019 14:00 17,1 C 7,8 C 23,9 C 49 % 1028,5 hPa 0,0 l/m 18,6 km/h (3 Bft) O-NO 60 2 min 0,457 mm 1,9 UV-I 478 W/m 6,3 C 12,8 C 24,1 km/h (4 Bft) 92,68 %
22.03.2019 14:02 17,1 C 7,8 C 23,9 C 47 % 1028,5 hPa 0,0 l/m 18,1 km/h (3 Bft) O 90 2 min 0,000 mm 1,9 UV-I 481 W/m 5,7 C 12,9 C 25,7 km/h (4 Bft) 95,74 %
22.03.2019 14:04 17,2 C 7,8 C 23,3 C 47 % 1028,4 hPa 0,0 l/m 19,9 km/h (4 Bft) O 92 2 min 0,000 mm 1,9 UV-I 497 W/m 5,8 C 12,6 C 25,7 km/h (4 Bft) 96,00 %
22.03.2019 14:06 17,1 C 7,8 C 22,8 C 46 % 1028,3 hPa 0,0 l/m 20,5 km/h (4 Bft) O-NO 69 2 min 0,000 mm 1,8 UV-I 495 W/m 5,4 C 12,3 C 29,0 km/h (5 Bft) 97,87 %
22.03.2019 14:08 17,1 C 7,8 C 23,3 C 48 % 1028,3 hPa 0,0 l/m 19,8 km/h (3 Bft) O-SO 110 2 min 0,000 mm 1,8 UV-I 495 W/m 6,0 C 12,5 C 27,4 km/h (4 Bft) 97,87 %
22.03.2019 14:10 17,1 C 7,8 C 23,3 C 47 % 1028,3 hPa 0,0 l/m 18,0 km/h (3 Bft) O-NO 64 2 min 0,000 mm 1,7 UV-I 462 W/m 5,7 C 12,9 C 25,7 km/h (4 Bft) 97,56 %
22.03.2019 14:12 17,1 C 7,8 C 22,8 C 46 % 1028,3 hPa 0,0 l/m 22,4 km/h (4 Bft) O 93 2 min 0,000 mm 1,7 UV-I 443 W/m 5,4 C 11,9 C 30,6 km/h (5 Bft) 96,23 %
22.03.2019 14:14 17,0 C 7,8 C 21,7 C 46 % 1028,3 hPa 0,0 l/m 19,6 km/h (3 Bft) O 101 2 min 0,000 mm 1,6 UV-I 384 W/m 5,3 C 12,4 C 25,7 km/h (4 Bft) 97,44 %
22.03.2019 14:16 16,9 C 7,8 C 21,7 C 46 % 1028,3 hPa 0,0 l/m 20,4 km/h (4 Bft) O-SO 106 2 min 0,000 mm 1,6 UV-I 404 W/m 5,2 C 12,1 C 27,4 km/h (4 Bft) 96,23 %
22.03.2019 14:18 16,9 C 7,8 C 22,2 C 47 % 1028,3 hPa 0,0 l/m 16,9 km/h (3 Bft) O 92 2 min 0,000 mm 1,5 UV-I 387 W/m 5,5 C 13,0 C 25,7 km/h (4 Bft) 96,00 %
22.03.2019 14:20 16,9 C 7,8 C 21,7 C 47 % 1028,3 hPa 0,0 l/m 22,2 km/h (4 Bft) O 86 2 min 0,000 mm 1,5 UV-I 371 W/m 5,5 C 11,7 C 27,4 km/h (4 Bft) 97,14 %
22.03.2019 14:22 16,9 C 7,8 C 21,7 C 46 % 1028,3 hPa 0,0 l/m 19,0 km/h (3 Bft) O-SO 105 2 min 0,000 mm 1,5 UV-I 408 W/m 5,2 C 12,4 C 29,0 km/h (5 Bft) 96,23 %
22.03.2019 14:24 16,9 C 7,8 C 21,7 C 48 % 1028,3 hPa 0,0 l/m 19,6 km/h (3 Bft) O-NO 71 2 min 0,000 mm 1,5 UV-I 430 W/m 5,8 C 12,3 C 25,7 km/h (4 Bft) 92,68 %
22.03.2019 14:26 16,8 C 7,8 C 21,1 C 46 % 1028,2 hPa 0,0 l/m 22,9 km/h (4 Bft) O-NO 70 2 min 0,000 mm 1,5 UV-I 401 W/m 5,1 C 11,4 C 30,6 km/h (5 Bft) 98,21 %
22.03.2019 14:28 16,8 C 7,8 C 20,6 C 46 % 1028,2 hPa 0,0 l/m 21,5 km/h (4 Bft) O-NO 66 2 min 0,000 mm 1,4 UV-I 362 W/m 5,1 C 11,7 C 27,4 km/h (4 Bft) 97,37 %
22.03.2019 14:30 16,8 C 7,8 C 20,0 C 46 % 1028,2 hPa 0,0 l/m 18,5 km/h (3 Bft) O-NO 71 2 min 0,000 mm 1,3 UV-I 314 W/m 5,1 C 12,4 C 25,7 km/h (4 Bft) 98,11 %
22.03.2019 14:32 16,7 C 7,8 C 20,0 C 47 % 1028,2 hPa 0,0 l/m 18,3 km/h (3 Bft) NO 40 2 min 0,000 mm 1,4 UV-I 382 W/m 5,3 C 12,4 C 27,4 km/h (4 Bft) 95,12 %
22.03.2019 14:34 16,7 C 7,8 C 20,6 C 46 % 1028,1 hPa 0,0 l/m 23,1 km/h (4 Bft) O-NO 63 2 min 0,000 mm 1,5 UV-I 434 W/m 5,0 C 11,3 C 30,6 km/h (5 Bft) 96,43 %
22.03.2019 14:36 16,7 C 7,8 C 20,6 C 46 % 1028,1 hPa 0,0 l/m 21,4 km/h (4 Bft) O-NO 74 2 min 0,000 mm 1,5 UV-I 419 W/m 5,0 C 11,6 C 29,0 km/h (5 Bft) 95,45 %
22.03.2019 14:38 16,7 C 7,8 C 20,6 C 46 % 1028,1 hPa 0,0 l/m 19,9 km/h (4 Bft) O-NO 70 2 min 0,000 mm 1,5 UV-I 419 W/m 5,0 C 12,0 C 27,4 km/h (4 Bft) 94,00 %
22.03.2019 14:40 16,8 C 7,8 C 21,7 C 46 % 1028,1 hPa 0,0 l/m 15,7 km/h (3 Bft) O-NO 66 2 min 0,000 mm 1,5 UV-I 445 W/m 5,1 C 13,2 C 20,9 km/h (4 Bft) 95,45 %
22.03.2019 14:42 16,8 C 7,8 C 22,2 C 47 % 1028,0 hPa 0,0 l/m 18,4 km/h (3 Bft) O-NO 67 2 min 0,000 mm 1,5 UV-I 472 W/m 5,4 C 12,5 C 27,4 km/h (4 Bft) 92,00 %
22.03.2019 14:44 16,9 C 7,8 C 22,2 C 47 % 1028,1 hPa 0,0 l/m 14,0 km/h (3 Bft) O 98 2 min 0,000 mm 1,5 UV-I 473 W/m 5,5 C 13,8 C 20,9 km/h (4 Bft) 95,74 %
22.03.2019 14:46 16,9 C 7,8 C 22,8 C 46 % 1028,1 hPa 0,0 l/m 18,5 km/h (3 Bft) O-NO 74 2 min 0,000 mm 1,5 UV-I 486 W/m 5,2 C 12,6 C 25,7 km/h (4 Bft) 92,59 %
22.03.2019 14:48 17,0 C 7,8 C 23,3 C 46 % 1028,0 hPa 0,0 l/m 15,8 km/h (3 Bft) O 87 2 min 0,000 mm 1,5 UV-I 514 W/m 5,3 C 13,4 C 27,4 km/h (4 Bft) 97,14 %
22.03.2019 14:50 17,1 C 7,8 C 22,8 C 44 % 1028,1 hPa 0,0 l/m 19,7 km/h (3 Bft) O-SO 104 2 min 0,000 mm 1,5 UV-I 530 W/m 4,8 C 12,5 C 27,4 km/h (4 Bft) 90,91 %
22.03.2019 14:52 17,1 C 7,8 C 22,8 C 45 % 1028,0 hPa 0,0 l/m 16,2 km/h (3 Bft) O 87 2 min 0,000 mm 1,5 UV-I 521 W/m 5,1 C 13,4 C 22,5 km/h (4 Bft) 94,87 %
22.03.2019 14:54 17,1 C 7,8 C 22,8 C 46 % 1028,0 hPa 0,0 l/m 13,9 km/h (3 Bft) O 96 2 min 0,000 mm 1,5 UV-I 515 W/m 5,4 C 14,1 C 19,3 km/h (3 Bft) 96,23 %
22.03.2019 14:56 17,2 C 7,8 C 23,3 C 46 % 1028,0 hPa 0,0 l/m 17,3 km/h (3 Bft) O-NO 78 2 min 0,000 mm 1,4 UV-I 507 W/m 5,5 C 13,2 C 24,1 km/h (4 Bft) 95,45 %
22.03.2019 14:58 17,2 C 7,8 C 23,3 C 46 % 1028,0 hPa 0,0 l/m 13,1 km/h (3 Bft) O 86 2 min 0,000 mm 1,2 UV-I 488 W/m 5,5 C 14,4 C 20,9 km/h (4 Bft) 98,11 %
22.03.2019 15:00 17,3 C 7,8 C 22,8 C 46 % 1028,0 hPa 0,0 l/m 13,4 km/h (3 Bft) O 83 2 min 0,381 mm 1,3 UV-I 481 W/m 5,6 C 14,5 C 24,1 km/h (4 Bft) 97,56 %
22.03.2019 15:02 17,4 C 7,8 C 21,1 C 45 % 1028,0 hPa 0,0 l/m 19,8 km/h (3 Bft) NO 55 2 min 0,000 mm 1,3 UV-I 461 W/m 5,3 C 12,9 C 24,1 km/h (4 Bft) 96,00 %
22.03.2019 15:04 17,3 C 7,8 C 20,6 C 47 % 1027,9 hPa 0,0 l/m 16,1 km/h (3 Bft) O 98 2 min 0,000 mm 1,3 UV-I 415 W/m 5,9 C 13,7 C 22,5 km/h (4 Bft) 97,87 %
22.03.2019 15:06 17,3 C 7,8 C 20,6 C 46 % 1027,9 hPa 0,0 l/m 18,3 km/h (3 Bft) O-SO 113 2 min 0,000 mm 1,3 UV-I 438 W/m 5,6 C 13,1 C 25,7 km/h (4 Bft) 98,00 %
22.03.2019 15:08 17,3 C 7,8 C 20,6 C 45 % 1027,9 hPa 0,0 l/m 19,8 km/h (3 Bft) NO 55 2 min 0,000 mm 1,3 UV-I 450 W/m 5,3 C 12,8 C 29,0 km/h (5 Bft) 97,37 %
22.03.2019 15:10 17,3 C 7,8 C 20,0 C 44 % 1027,8 hPa 0,0 l/m 16,0 km/h (3 Bft) O 90 2 min 0,000 mm 1,2 UV-I 447 W/m 4,9 C 13,7 C 20,9 km/h (4 Bft) 98,00 %
22.03.2019 15:12 17,3 C 7,8 C 20,0 C 44 % 1027,9 hPa 0,0 l/m 16,2 km/h (3 Bft) O-SO 103 2 min 0,000 mm 1,2 UV-I 436 W/m 4,9 C 13,6 C 20,9 km/h (4 Bft) 100,00 %
22.03.2019 15:14 17,3 C 7,8 C 20,0 C 44 % 1027,8 hPa 0,0 l/m 19,4 km/h (3 Bft) O-SO 106 2 min 0,000 mm 1,2 UV-I 431 W/m 4,9 C 12,9 C 27,4 km/h (4 Bft) 98,00 %
22.03.2019 15:16 17,4 C 7,8 C 20,0 C 44 % 1027,8 hPa 0,0 l/m 19,7 km/h (3 Bft) O 82 2 min 0,000 mm 1,2 UV-I 415 W/m 5,0 C 12,9 C 25,7 km/h (4 Bft) 100,00 %
22.03.2019 15:18 17,4 C 7,8 C 20,0 C 45 % 1027,8 hPa 0,0 l/m 17,2 km/h (3 Bft) O-SO 117 2 min 0,000 mm 1,1 UV-I 397 W/m 5,3 C 13,5 C 24,1 km/h (4 Bft) 100,00 %
22.03.2019 15:20 17,3 C 7,8 C 19,4 C 44 % 1027,8 hPa 0,0 l/m 18,3 km/h (3 Bft) O-NO 71 2 min 0,000 mm 1,1 UV-I 366 W/m 4,9 C 13,1 C 25,7 km/h (4 Bft) 100,00 %
22.03.2019 15:22 17,2 C 7,8 C 18,9 C 44 % 1027,7 hPa 0,0 l/m 20,0 km/h (4 Bft) O 96 2 min 0,000 mm 1,1 UV-I 381 W/m 4,8 C 12,6 C 27,4 km/h (4 Bft) 100,00 %
22.03.2019 15:24 17,2 C 7,8 C 18,9 C 44 % 1027,6 hPa 0,0 l/m 21,9 km/h (4 Bft) O-NO 70 2 min 0,000 mm 1,0 UV-I 382 W/m 4,8 C 12,2 C 27,4 km/h (4 Bft) 97,56 %
22.03.2019 15:26 17,2 C 7,8 C 18,3 C 44 % 1027,6 hPa 0,0 l/m 18,7 km/h (3 Bft) O-NO 77 2 min 0,000 mm 1,0 UV-I 402 W/m 4,8 C 12,9 C 24,1 km/h (4 Bft) 100,00 %
22.03.2019 15:28 17,2 C 7,8 C 18,3 C 45 % 1027,6 hPa 0,0 l/m 19,1 km/h (3 Bft) O 98 2 min 0,000 mm 1,0 UV-I 410 W/m 5,2 C 12,8 C 25,7 km/h (4 Bft) 100,00 %
22.03.2019 15:30 17,2 C 7,8 C 18,3 C 45 % 1027,6 hPa 0,0 l/m 17,6 km/h (3 Bft) O-SO 115 2 min 0,000 mm 1,0 UV-I 404 W/m 5,2 C 13,2 C 24,1 km/h (4 Bft) 100,00 %
22.03.2019 15:32 17,2 C 7,8 C 18,3 C 45 % 1027,6 hPa 0,0 l/m 17,3 km/h (3 Bft) O-NO 72 2 min 0,000 mm 1,0 UV-I 400 W/m 5,2 C 13,2 C 24,1 km/h (4 Bft) 100,00 %
22.03.2019 15:34 17,2 C 7,8 C 18,3 C 45 % 1027,6 hPa 0,0 l/m 18,2 km/h (3 Bft) O-NO 74 2 min 0,000 mm 0,9 UV-I 378 W/m 5,2 C 13,0 C 25,7 km/h (4 Bft) 100,00 %
22.03.2019 15:36 17,2 C 7,8 C 17,8 C 45 % 1027,6 hPa 0,0 l/m 16,9 km/h (3 Bft) O-NO 78 2 min 0,000 mm 0,9 UV-I 347 W/m 5,2 C 13,3 C 24,1 km/h (4 Bft) 100,00 %
22.03.2019 15:39 17,2 C 7,8 C 17,8 C 46 % 1027,5 hPa 0,0 l/m 17,2 km/h (3 Bft) O-NO 66 3 min 0,000 mm 0,9 UV-I 338 W/m 5,5 C 13,3 C 24,1 km/h (4 Bft) 100,00 %
22.03.2019 15:40 17,1 C 7,8 C 17,8 C 45 % 1027,5 hPa 0,0 l/m 15,7 km/h (3 Bft) O-NO 71 1 min 0,000 mm 0,8 UV-I 320 W/m 5,1 C 13,5 C 19,3 km/h (3 Bft) 100,00 %
22.03.2019 15:42 17,1 C 7,8 C 17,8 C 46 % 1027,5 hPa 0,0 l/m 20,5 km/h (4 Bft) O 90 2 min 0,000 mm 0,8 UV-I 320 W/m 5,4 C 12,3 C 29,0 km/h (5 Bft) 100,00 %
22.03.2019 15:44 17,1 C 7,8 C 17,2 C 44 % 1027,5 hPa 0,0 l/m 19,1 km/h (3 Bft) NO 52 2 min 0,000 mm 0,8 UV-I 338 W/m 4,8 C 12,7 C 24,1 km/h (4 Bft) 97,56 %
22.03.2019 15:46 17,1 C 7,8 C 17,2 C 45 % 1027,5 hPa 0,0 l/m 18,1 km/h (3 Bft) O-NO 74 2 min 0,000 mm 0,8 UV-I 364 W/m 5,1 C 12,9 C 25,7 km/h (4 Bft) 100,00 %
22.03.2019 15:48 17,2 C 7,8 C 17,2 C 45 % 1027,5 hPa 0,0 l/m 19,5 km/h (3 Bft) O 80 2 min 0,000 mm 0,8 UV-I 371 W/m 5,2 C 12,7 C 25,7 km/h (4 Bft) 98,11 %
22.03.2019 15:50 17,2 C 7,8 C 17,2 C 45 % 1027,5 hPa 0,0 l/m 21,4 km/h (4 Bft) O-NO 75 2 min 0,000 mm 0,8 UV-I 361 W/m 5,2 C 12,3 C 29,0 km/h (5 Bft) 100,00 %
22.03.2019 15:52 17,2 C 7,8 C 17,2 C 45 % 1027,5 hPa 0,0 l/m 20,5 km/h (4 Bft) O 88 2 min 0,000 mm 0,8 UV-I 341 W/m 5,2 C 12,5 C 27,4 km/h (4 Bft) 100,00 %
22.03.2019 15:54 17,2 C 7,8 C 17,2 C 45 % 1027,5 hPa 0,0 l/m 18,4 km/h (3 Bft) O 85 2 min 0,000 mm 0,7 UV-I 343 W/m 5,2 C 13,0 C 24,1 km/h (4 Bft) 100,00 %
22.03.2019 15:56 17,2 C 7,8 C 17,2 C 46 % 1027,5 hPa 0,0 l/m 15,8 km/h (3 Bft) O 84 2 min 0,000 mm 0,7 UV-I 335 W/m 5,5 C 13,6 C 20,9 km/h (4 Bft) 100,00 %
22.03.2019 15:58 17,2 C 7,8 C 17,2 C 47 % 1027,5 hPa 0,0 l/m 19,2 km/h (3 Bft) O 86 2 min 0,000 mm 0,7 UV-I 304 W/m 5,8 C 12,8 C 27,4 km/h (4 Bft) 97,37 %
22.03.2019 16:00 17,1 C 7,8 C 16,7 C 45 % 1027,5 hPa 0,0 l/m 22,1 km/h (4 Bft) O-SO 103 2 min 0,330 mm 0,6 UV-I 254 W/m 5,1 C 12,0 C 29,0 km/h (5 Bft) 92,86 %
22.03.2019 16:02 17,1 C 7,8 C 16,7 C 45 % 1027,5 hPa 0,0 l/m 18,4 km/h (3 Bft) O 89 2 min 0,000 mm 0,6 UV-I 242 W/m 5,1 C 12,8 C 27,4 km/h (4 Bft) 94,34 %
22.03.2019 16:04 16,9 C 7,8 C 16,7 C 45 % 1027,5 hPa 0,0 l/m 21,2 km/h (4 Bft) NO 44 2 min 0,000 mm 0,6 UV-I 243 W/m 4,9 C 11,9 C 25,7 km/h (4 Bft) 96,36 %
22.03.2019 16:06 16,9 C 7,8 C 16,1 C 46 % 1027,5 hPa 0,0 l/m 21,2 km/h (4 Bft) O 83 2 min 0,000 mm 0,6 UV-I 237 W/m 5,2 C 11,9 C 29,0 km/h (5 Bft) 97,22 %
22.03.2019 16:08 16,8 C 7,8 C 16,1 C 46 % 1027,5 hPa 0,0 l/m 21,4 km/h (4 Bft) O 84 2 min 0,000 mm 0,6 UV-I 222 W/m 5,1 C 11,8 C 29,0 km/h (5 Bft) 98,11 %
22.03.2019 16:10 16,8 C 7,8 C 15,6 C 46 % 1027,5 hPa 0,0 l/m 19,2 km/h (3 Bft) O 96 2 min 0,000 mm 0,5 UV-I 196 W/m 5,1 C 12,3 C 25,7 km/h (4 Bft) 95,74 %
22.03.2019 16:12 16,7 C 7,8 C 15,6 C 46 % 1027,5 hPa 0,0 l/m 20,8 km/h (4 Bft) O 98 2 min 0,000 mm 0,5 UV-I 203 W/m 5,0 C 11,8 C 32,2 km/h (5 Bft) 98,00 %
22.03.2019 16:14 16,7 C 7,8 C 15,6 C 45 % 1027,5 hPa 0,0 l/m 20,1 km/h (4 Bft) O 98 0 min 0,000 mm 0,5 UV-I 155 W/m 4,7 C 11,9 C 27,4 km/h (4 Bft) 97,73 %
22.03.2019 16:16 16,6 C 7,8 C 15,6 C 45 % 1027,5 hPa 0,0 l/m 18,5 km/h (3 Bft) O 84 2 min 0,000 mm 0,5 UV-I 198 W/m 4,6 C 12,2 C 25,7 km/h (4 Bft) 95,74 %
22.03.2019 16:18 16,6 C 7,8 C 15,6 C 46 % 1027,4 hPa 0,0 l/m 17,6 km/h (3 Bft) O 95 2 min 0,000 mm 0,5 UV-I 267 W/m 4,9 C 12,4 C 24,1 km/h (4 Bft) 97,56 %
22.03.2019 16:20 16,6 C 7,8 C 15,6 C 46 % 1027,4 hPa 0,0 l/m 16,2 km/h (3 Bft) O-SO 115 2 min 0,000 mm 0,5 UV-I 280 W/m 4,9 C 12,8 C 22,5 km/h (4 Bft) 96,43 %
22.03.2019 16:22 16,6 C 7,8 C 15,6 C 46 % 1027,4 hPa 0,0 l/m 13,9 km/h (3 Bft) SO 132 2 min 0,000 mm 0,5 UV-I 272 W/m 4,9 C 13,5 C 19,3 km/h (3 Bft) 100,00 %
22.03.2019 16:24 16,7 C 7,8 C 15,0 C 45 % 1027,4 hPa 0,0 l/m 16,2 km/h (3 Bft) O 96 2 min 0,000 mm 0,5 UV-I 256 W/m 4,7 C 12,9 C 22,5 km/h (4 Bft) 100,00 %
22.03.2019 16:26 16,7 C 7,8 C 15,0 C 46 % 1027,4 hPa 0,0 l/m 14,2 km/h (3 Bft) O-SO 107 2 min 0,000 mm 0,1 UV-I 244 W/m 5,0 C 13,5 C 19,3 km/h (3 Bft) 95,74 %
22.03.2019 16:28 16,8 C 7,8 C 15,0 C 46 % 1027,4 hPa 0,0 l/m 13,5 km/h (3 Bft) O 98 2 min 0,000 mm 0,0 UV-I 239 W/m 5,1 C 13,8 C 20,9 km/h (4 Bft) 100,00 %
22.03.2019 16:30 16,8 C 7,8 C 15,0 C 46 % 1027,4 hPa 0,0 l/m 16,6 km/h (3 Bft) O 96 2 min 0,000 mm 0,0 UV-I 222 W/m 5,1 C 12,9 C 24,1 km/h (4 Bft) 97,87 %
22.03.2019 16:32 16,8 C 7,8 C 15,0 C 45 % 1027,4 hPa 0,0 l/m 14,9 km/h (3 Bft) O-SO 113 2 min 0,000 mm 0,0 UV-I 223 W/m 4,8 C 13,4 C 22,5 km/h (4 Bft) 97,73 %
22.03.2019 16:34 16,7 C 7,8 C 15,0 C 46 % 1027,4 hPa 0,0 l/m 11,9 km/h (2 Bft) O 96 2 min 0,000 mm 0,0 UV-I 222 W/m 5,0 C 14,3 C 17,7 km/h (3 Bft) 97,62 %
22.03.2019 16:36 16,7 C 7,8 C 14,4 C 46 % 1027,3 hPa 0,0 l/m 16,0 km/h (3 Bft) NO 53 2 min 0,000 mm 0,0 UV-I 220 W/m 5,0 C 13,0 C 24,1 km/h (4 Bft) 96,36 %
22.03.2019 16:38 16,7 C 7,8 C 14,4 C 46 % 1027,4 hPa 0,0 l/m 14,1 km/h (3 Bft) O-SO 108 2 min 0,000 mm 0,0 UV-I 216 W/m 5,0 C 13,5 C 19,3 km/h (3 Bft) 98,00 %
22.03.2019 16:40 16,7 C 7,8 C 14,4 C 46 % 1027,4 hPa 0,0 l/m 18,9 km/h (3 Bft) O-SO 109 2 min 0,000 mm 0,0 UV-I 209 W/m 5,0 C 12,2 C 27,4 km/h (4 Bft) 95,74 %
22.03.2019 16:42 16,6 C 7,8 C 14,4 C 46 % 1027,4 hPa 0,0 l/m 20,1 km/h (4 Bft) O 92 2 min 0,000 mm 0,0 UV-I 210 W/m 4,9 C 11,8 C 29,0 km/h (5 Bft) 95,74 %
22.03.2019 16:44 16,6 C 7,8 C 14,4 C 46 % 1027,4 hPa 0,0 l/m 15,2 km/h (3 Bft) O-SO 106 2 min 0,000 mm 0,0 UV-I 204 W/m 4,9 C 13,1 C 22,5 km/h (4 Bft) 97,44 %
22.03.2019 16:46 16,6 C 7,8 C 14,4 C 46 % 1027,5 hPa 0,0 l/m 16,0 km/h (3 Bft) O 84 2 min 0,000 mm 0,0 UV-I 198 W/m 4,9 C 12,8 C 24,1 km/h (4 Bft) 98,21 %
22.03.2019 16:48 16,6 C 7,8 C 14,4 C 46 % 1027,4 hPa 0,0 l/m 18,8 km/h (3 Bft) O-NO 64 2 min 0,000 mm 0,0 UV-I 186 W/m 4,9 C 12,1 C 27,4 km/h (4 Bft) 95,12 %
22.03.2019 16:50 16,4 C 7,8 C 14,4 C 46 % 1027,4 hPa 0,0 l/m 17,5 km/h (3 Bft) O-SO 107 2 min 0,000 mm 0,0 UV-I 183 W/m 4,8 C 12,2 C 24,1 km/h (4 Bft) 98,00 %
22.03.2019 16:52 16,4 C 7,8 C 14,4 C 47 % 1027,4 hPa 0,0 l/m 12,6 km/h (3 Bft) O 97 2 min 0,000 mm 0,0 UV-I 185 W/m 5,1 C 13,7 C 16,1 km/h (3 Bft) 98,11 %
22.03.2019 16:54 16,4 C 7,8 C 14,4 C 46 % 1027,4 hPa 0,0 l/m 15,4 km/h (3 Bft) O-NO 68 2 min 0,000 mm 0,0 UV-I 179 W/m 4,8 C 12,8 C 22,5 km/h (4 Bft) 97,37 %
22.03.2019 16:56 16,3 C 7,8 C 14,4 C 47 % 1027,4 hPa 0,0 l/m 16,6 km/h (3 Bft) O 93 2 min 0,000 mm 0,0 UV-I 173 W/m 5,0 C 12,3 C 22,5 km/h (4 Bft) 96,00 %
22.03.2019 16:58 16,3 C 7,8 C 14,4 C 47 % 1027,4 hPa 0,0 l/m 15,7 km/h (3 Bft) O 101 2 min 0,000 mm 0,0 UV-I 167 W/m 5,0 C 12,6 C 22,5 km/h (4 Bft) 95,74 %
22.03.2019 17:00 16,3 C 7,8 C 13,9 C 46 % 1027,4 hPa 0,0 l/m 15,5 km/h (3 Bft) O 101 2 min 0,000 mm 0,0 UV-I 165 W/m 4,7 C 12,6 C 22,5 km/h (4 Bft) 96,00 %
22.03.2019 17:02 16,3 C 7,8 C 13,9 C 47 % 1027,3 hPa 0,0 l/m 16,4 km/h (3 Bft) O-NO 72 2 min 0,229 mm 0,0 UV-I 158 W/m 5,0 C 12,4 C 22,5 km/h (4 Bft) 95,45 %
22.03.2019 17:04 16,2 C 7,8 C 14,4 C 47 % 1027,3 hPa 0,0 l/m 16,3 km/h (3 Bft) O 91 2 min 0,000 mm 0,0 UV-I 150 W/m 4,9 C 12,3 C 24,1 km/h (4 Bft) 98,11 %
22.03.2019 17:06 16,2 C 7,8 C 14,4 C 47 % 1027,3 hPa 0,0 l/m 18,4 km/h (3 Bft) O 80 2 min 0,000 mm 0,0 UV-I 143 W/m 4,9 C 11,7 C 24,1 km/h (4 Bft) 100,00 %
22.03.2019 17:08 16,2 C 7,8 C 13,9 C 47 % 1027,3 hPa 0,0 l/m 16,3 km/h (3 Bft) O 95 2 min 0,000 mm 0,0 UV-I 144 W/m 4,9 C 12,3 C 22,5 km/h (4 Bft) 100,00 %
22.03.2019 17:10 16,2 C 7,8 C 13,9 C 48 % 1027,3 hPa 0,0 l/m 13,5 km/h (3 Bft) O-SO 107 2 min 0,000 mm 0,0 UV-I 136 W/m 5,2 C 13,1 C 17,7 km/h (3 Bft) 100,00 %
22.03.2019 17:12 16,1 C 7,8 C 13,9 C 50 % 1027,3 hPa 0,0 l/m 14,5 km/h (3 Bft) O-SO 114 2 min 0,000 mm 0,0 UV-I 128 W/m 5,7 C 12,7 C 19,3 km/h (3 Bft) 97,87 %
22.03.2019 17:14 16,0 C 7,8 C 13,9 C 49 % 1027,3 hPa 0,0 l/m 14,8 km/h (3 Bft) O 95 2 min 0,000 mm 0,0 UV-I 121 W/m 5,3 C 12,5 C 20,9 km/h (4 Bft) 100,00 %
22.03.2019 17:16 15,9 C 7,8 C 13,9 C 49 % 1027,3 hPa 0,0 l/m 13,0 km/h (3 Bft) O-SO 112 2 min 0,000 mm 0,0 UV-I 110 W/m 5,2 C 12,9 C 16,1 km/h (3 Bft) 100,00 %
22.03.2019 17:18 15,9 C 7,8 C 13,9 C 48 % 1027,3 hPa 0,0 l/m 16,2 km/h (3 Bft) O 92 2 min 0,000 mm 0,0 UV-I 106 W/m 4,9 C 11,9 C 20,9 km/h (4 Bft) 98,21 %
22.03.2019 17:20 15,9 C 7,8 C 13,3 C 49 % 1027,3 hPa 0,0 l/m 11,6 km/h (2 Bft) O 90 2 min 0,000 mm 0,0 UV-I 105 W/m 5,2 C 13,5 C 16,1 km/h (3 Bft) 98,00 %
22.03.2019 17:22 15,9 C 7,8 C 13,3 C 50 % 1027,4 hPa 0,0 l/m 10,0 km/h (2 Bft) O-SO 104 2 min 0,000 mm 0,0 UV-I 103 W/m 5,5 C 14,1 C 14,5 km/h (3 Bft) 100,00 %
22.03.2019 17:24 15,8 C 7,8 C 13,3 C 49 % 1027,4 hPa 0,0 l/m 6,8 km/h (2 Bft) O 88 2 min 0,000 mm 0,0 UV-I 100 W/m 5,1 C 15,6 C 12,9 km/h (3 Bft) 96,00 %
22.03.2019 17:26 15,8 C 7,8 C 13,3 C 50 % 1027,4 hPa 0,0 l/m 8,5 km/h (2 Bft) O 90 2 min 0,000 mm 0,0 UV-I 97 W/m 5,4 C 14,7 C 14,5 km/h (3 Bft) 98,11 %
22.03.2019 17:29 15,7 C 7,8 C 12,8 C 50 % 1027,3 hPa 0,0 l/m 12,3 km/h (3 Bft) O-NO 76 3 min 0,000 mm 0,0 UV-I 92 W/m 5,3 C 13,0 C 22,5 km/h (4 Bft) 95,08 %
22.03.2019 17:30 15,7 C 7,8 C 12,8 C 49 % 1027,3 hPa 0,0 l/m 14,3 km/h (3 Bft) O 95 1 min 0,000 mm 0,0 UV-I 90 W/m 5,0 C 12,3 C 17,7 km/h (3 Bft) 100,00 %
22.03.2019 17:32 15,7 C 7,8 C 12,8 C 50 % 1027,4 hPa 0,0 l/m 10,8 km/h (2 Bft) O 90 2 min 0,000 mm 0,0 UV-I 84 W/m 5,3 C 13,6 C 14,5 km/h (3 Bft) 97,73 %
22.03.2019 17:34 15,6 C 7,8 C 12,8 C 50 % 1027,4 hPa 0,0 l/m 14,7 km/h (3 Bft) O 95 2 min 0,000 mm 0,0 UV-I 78 W/m 5,2 C 12,0 C 19,3 km/h (3 Bft) 97,56 %
22.03.2019 17:36 15,5 C 7,8 C 12,8 C 51 % 1027,4 hPa 0,0 l/m 15,4 km/h (3 Bft) O 96 2 min 0,000 mm 0,0 UV-I 73 W/m 5,4 C 11,7 C 20,9 km/h (4 Bft) 96,23 %
22.03.2019 17:38 15,4 C 7,8 C 12,8 C 51 % 1027,4 hPa 0,0 l/m 16,0 km/h (3 Bft) O 101 2 min 0,000 mm 0,0 UV-I 65 W/m 5,3 C 11,4 C 22,5 km/h (4 Bft) 97,56 %
22.03.2019 17:40 15,4 C 7,8 C 12,8 C 51 % 1027,4 hPa 0,0 l/m 16,4 km/h (3 Bft) O 100 2 min 0,000 mm 0,0 UV-I 62 W/m 5,3 C 11,2 C 22,5 km/h (4 Bft) 98,11 %
22.03.2019 17:42 15,4 C 7,8 C 12,8 C 51 % 1027,3 hPa 0,0 l/m 16,1 km/h (3 Bft) O-SO 108 2 min 0,000 mm 0,0 UV-I 63 W/m 5,3 C 11,3 C 22,5 km/h (4 Bft) 97,87 %
22.03.2019 17:44 15,3 C 7,8 C 12,2 C 51 % 1027,4 hPa 0,0 l/m 13,8 km/h (3 Bft) O 88 2 min 0,000 mm 0,0 UV-I 60 W/m 5,2 C 12,0 C 20,9 km/h (4 Bft) 95,74 %
22.03.2019 17:46 15,2 C 7,8 C 12,2 C 51 % 1027,4 hPa 0,0 l/m 13,1 km/h (3 Bft) O 95 2 min 0,000 mm 0,0 UV-I 54 W/m 5,1 C 12,1 C 17,7 km/h (3 Bft) 100,00 %
22.03.2019 17:48 15,1 C 7,8 C 12,2 C 52 % 1027,3 hPa 0,0 l/m 10,4 km/h (2 Bft) O-SO 106 2 min 0,000 mm 0,0 UV-I 50 W/m 5,3 C 13,1 C 16,1 km/h (3 Bft) 94,34 %
22.03.2019 17:50 15,1 C 7,8 C 12,2 C 51 % 1027,3 hPa 0,0 l/m 16,2 km/h (3 Bft) SO 130 2 min 0,000 mm 0,0 UV-I 47 W/m 5,0 C 10,9 C 22,5 km/h (4 Bft) 98,00 %
22.03.2019 17:52 15,1 C 7,8 C 12,2 C 52 % 1027,3 hPa 0,0 l/m 10,4 km/h (2 Bft) O-SO 119 2 min 0,000 mm 0,0 UV-I 45 W/m 5,3 C 13,1 C 16,1 km/h (3 Bft) 97,56 %
22.03.2019 17:54 15,0 C 7,8 C 12,2 C 52 % 1027,3 hPa 0,0 l/m 9,7 km/h (2 Bft) O-SO 113 2 min 0,000 mm 0,0 UV-I 41 W/m 5,2 C 13,3 C 14,5 km/h (3 Bft) 100,00 %
22.03.2019 17:56 14,9 C 7,8 C 11,7 C 52 % 1027,3 hPa 0,0 l/m 9,0 km/h (2 Bft) O-SO 109 2 min 0,000 mm 0,0 UV-I 39 W/m 5,1 C 13,5 C 12,9 km/h (3 Bft) 100,00 %
22.03.2019 17:58 14,8 C 7,8 C 11,7 C 53 % 1027,3 hPa 0,0 l/m 10,8 km/h (2 Bft) O-SO 123 2 min 0,000 mm 0,0 UV-I 37 W/m 5,3 C 12,5 C 16,1 km/h (3 Bft) 100,00 %
22.03.2019 18:00 14,7 C 7,8 C 11,1 C 53 % 1027,3 hPa 0,0 l/m 9,3 km/h (2 Bft) O-SO 115 2 min 0,127 mm 0,0 UV-I 35 W/m 5,2 C 13,1 C 12,9 km/h (3 Bft) 100,00 %
22.03.2019 18:02 14,7 C 7,8 C 11,1 C 53 % 1027,3 hPa 0,0 l/m 10,0 km/h (2 Bft) O-SO 111 2 min 0,000 mm 0,0 UV-I 32 W/m 5,2 C 12,8 C 14,5 km/h (3 Bft) 100,00 %
22.03.2019 18:04 14,6 C 7,8 C 11,1 C 54 % 1027,2 hPa 0,0 l/m 9,8 km/h (2 Bft) O-SO 121 2 min 0,000 mm 0,0 UV-I 29 W/m 5,4 C 12,8 C 12,9 km/h (3 Bft) 100,00 %
22.03.2019 18:06 14,5 C 7,8 C 11,1 C 54 % 1027,3 hPa 0,0 l/m 9,7 km/h (2 Bft) O 100 2 min 0,000 mm 0,0 UV-I 25 W/m 5,3 C 12,7 C 12,9 km/h (3 Bft) 100,00 %
22.03.2019 18:08 14,6 C 7,8 C 11,1 C 54 % 1027,3 hPa 0,0 l/m 11,6 km/h (2 Bft) O 94 2 min 0,000 mm 0,0 UV-I 18 W/m 5,4 C 12,0 C 14,5 km/h (3 Bft) 97,73 %
22.03.2019 18:10 14,6 C 7,8 C 11,1 C 54 % 1027,3 hPa 0,0 l/m 7,5 km/h (2 Bft) O 88 0 min 0,000 mm 0,0 UV-I 14 W/m 5,4 C 14,0 C 12,9 km/h (3 Bft) 98,00 %
22.03.2019 18:12 14,4 C 7,8 C 10,6 C 54 % 1027,3 hPa 0,0 l/m 8,1 km/h (2 Bft) O-SO 121 0 min 0,000 mm 0,0 UV-I 12 W/m 5,2 C 13,4 C 14,5 km/h (3 Bft) 100,00 %
22.03.2019 18:14 14,3 C 7,8 C 10,0 C 55 % 1027,3 hPa 0,0 l/m 9,3 km/h (2 Bft) O-SO 111 0 min 0,000 mm 0,0 UV-I 11 W/m 5,4 C 12,7 C 11,3 km/h (2 Bft) 97,73 %
22.03.2019 18:16 14,2 C 7,8 C 10,0 C 55 % 1027,3 hPa 0,0 l/m 8,0 km/h (2 Bft) O 96 0 min 0,000 mm 0,0 UV-I 9 W/m 5,3 C 13,3 C 12,9 km/h (3 Bft) 100,00 %
22.03.2019 18:18 14,2 C 7,8 C 9,4 C 55 % 1027,3 hPa 0,0 l/m 9,2 km/h (2 Bft) O 94 0 min 0,000 mm 0,0 UV-I 9 W/m 5,3 C 12,6 C 12,9 km/h (3 Bft) 100,00 %
22.03.2019 18:20 14,0 C 7,8 C 9,4 C 56 % 1027,2 hPa 0,0 l/m 10,4 km/h (2 Bft) O-SO 103 0 min 0,000 mm 0,0 UV-I 7 W/m 5,4 C 11,8 C 12,9 km/h (3 Bft) 97,73 %
22.03.2019 18:22 13,9 C 7,8 C 9,4 C 57 % 1027,3 hPa 0,0 l/m 10,3 km/h (2 Bft) O 98 0 min 0,000 mm 0,0 UV-I 7 W/m 5,5 C 11,8 C 14,5 km/h (3 Bft) 100,00 %
22.03.2019 18:24 13,8 C 7,8 C 9,4 C 57 % 1027,3 hPa 0,0 l/m 9,9 km/h (2 Bft) O-SO 105 0 min 0,000 mm 0,0 UV-I 7 W/m 5,4 C 11,8 C 12,9 km/h (3 Bft) 100,00 %
22.03.2019 18:26 13,7 C 7,8 C 9,4 C 57 % 1027,2 hPa 0,0 l/m 9,2 km/h (2 Bft) O-SO 107 0 min 0,000 mm 0,0 UV-I 5 W/m 5,3 C 12,1 C 12,9 km/h (3 Bft) 100,00 %
22.03.2019 18:28 13,7 C 7,8 C 9,4 C 57 % 1027,2 hPa 0,0 l/m 11,0 km/h (2 Bft) O-SO 106 0 min 0,000 mm 0,0 UV-I 5 W/m 5,3 C 11,2 C 14,5 km/h (3 Bft) 97,73 %
22.03.2019 18:30 13,7 C 7,8 C 9,4 C 57 % 1027,2 hPa 0,0 l/m 10,4 km/h (2 Bft) O 101 0 min 0,000 mm 0,0 UV-I 5 W/m 5,3 C 11,5 C 12,9 km/h (3 Bft) 96,00 %
22.03.2019 18:32 13,6 C 7,8 C 9,4 C 57 % 1027,2 hPa 0,0 l/m 10,3 km/h (2 Bft) O 93 0 min 0,000 mm 0,0 UV-I 2 W/m 5,2 C 11,4 C 12,9 km/h (3 Bft) 95,12 %
22.03.2019 18:34 13,5 C 7,8 C 9,4 C 58 % 1027,3 hPa 0,0 l/m 7,8 km/h (2 Bft) O-SO 114 0 min 0,000 mm 0,0 UV-I 0 W/m 5,4 C 12,6 C 11,3 km/h (2 Bft) 95,74 %
22.03.2019 18:36 13,3 C 7,8 C 8,9 C 58 % 1027,2 hPa 0,0 l/m 8,4 km/h (2 Bft) O 86 0 min 0,000 mm 0,0 UV-I 0 W/m 5,2 C 12,1 C 11,3 km/h (2 Bft) 93,75 %
22.03.2019 18:38 13,2 C 7,8 C 8,3 C 59 % 1027,3 hPa 0,0 l/m 8,6 km/h (2 Bft) O 98 0 min 0,000 mm 0,0 UV-I 0 W/m 5,4 C 11,9 C 12,9 km/h (3 Bft) 97,37 %
22.03.2019 18:40 13,1 C 7,8 C 8,3 C 59 % 1027,3 hPa 0,0 l/m 5,7 km/h (1 Bft) O 82 0 min 0,000 mm 0,0 UV-I 0 W/m 5,3 C 13,1 C 11,3 km/h (2 Bft) 94,34 %
22.03.2019 18:42 13,2 C 7,8 C 8,3 C 59 % 1027,3 hPa 0,0 l/m 8,2 km/h (2 Bft) O 92 0 min 0,000 mm 0,0 UV-I 0 W/m 5,4 C 12,1 C 12,9 km/h (3 Bft) 96,43 %
22.03.2019 18:44 13,2 C 7,8 C 8,3 C 59 % 1027,3 hPa 0,0 l/m 9,6 km/h (2 Bft) O-SO 104 0 min 0,000 mm 0,0 UV-I 0 W/m 5,4 C 11,3 C 12,9 km/h (3 Bft) 94,29 %
22.03.2019 18:46 13,2 C 7,8 C 8,9 C 58 % 1027,3 hPa 0,0 l/m 10,5 km/h (2 Bft) O 90 0 min 0,000 mm 0,0 UV-I 0 W/m 5,1 C 10,9 C 19,3 km/h (3 Bft) 93,62 %
22.03.2019 18:48 13,2 C 7,8 C 8,9 C 58 % 1027,3 hPa 0,0 l/m 11,5 km/h (2 Bft) O 90 0 min 0,000 mm 0,0 UV-I 0 W/m 5,1 C 10,4 C 16,1 km/h (3 Bft) 94,00 %
22.03.2019 18:50 13,3 C 7,8 C 8,9 C 58 % 1027,3 hPa 0,0 l/m 9,9 km/h (2 Bft) O 82 0 min 0,000 mm 0,0 UV-I 0 W/m 5,2 C 11,3 C 14,5 km/h (3 Bft) 94,00 %
22.03.2019 18:52 13,2 C 7,8 C 8,9 C 58 % 1027,4 hPa 0,0 l/m 8,7 km/h (2 Bft) O-SO 106 0 min 0,000 mm 0,0 UV-I 0 W/m 5,1 C 11,8 C 12,9 km/h (3 Bft) 94,00 %
22.03.2019 18:54 13,1 C 7,8 C 8,3 C 58 % 1027,4 hPa 0,0 l/m 8,9 km/h (2 Bft) O 85 0 min 0,000 mm 0,0 UV-I 0 W/m 5,0 C 11,6 C 12,9 km/h (3 Bft) 93,18 %
22.03.2019 18:56 13,1 C 7,8 C 8,3 C 58 % 1027,3 hPa 0,0 l/m 8,9 km/h (2 Bft) O-SO 109 0 min 0,000 mm 0,0 UV-I 0 W/m 5,0 C 11,6 C 12,9 km/h (3 Bft) 92,68 %
22.03.2019 18:58 13,1 C 7,8 C 8,3 C 58 % 1027,4 hPa 0,0 l/m 8,3 km/h (2 Bft) O-SO 109 0 min 0,000 mm 0,0 UV-I 0 W/m 5,0 C 11,9 C 14,5 km/h (3 Bft) 90,00 %
22.03.2019 19:00 13,1 C 7,8 C 8,3 C 58 % 1027,4 hPa 0,0 l/m 7,0 km/h (2 Bft) O-SO 105 0 min 0,050 mm 0,0 UV-I 0 W/m 5,0 C 12,7 C 11,3 km/h (2 Bft) 90,57 %
22.03.2019 19:02 13,0 C 7,8 C 7,8 C 59 % 1027,4 hPa 0,0 l/m 7,8 km/h (2 Bft) O 96 0 min 0,000 mm 0,0 UV-I 0 W/m 5,2 C 12,1 C 11,3 km/h (2 Bft) 91,49 %
22.03.2019 19:04 12,9 C 7,8 C 7,8 C 59 % 1027,5 hPa 0,0 l/m 8,4 km/h (2 Bft) O-SO 103 0 min 0,000 mm 0,0 UV-I 0 W/m 5,1 C 11,7 C 11,3 km/h (2 Bft) 93,18 %
22.03.2019 19:06 12,7 C 7,8 C 7,8 C 60 % 1027,4 hPa 0,0 l/m 8,2 km/h (2 Bft) O 92 0 min 0,000 mm 0,0 UV-I 0 W/m 5,1 C 11,6 C 11,3 km/h (2 Bft) 92,68 %
22.03.2019 19:08 12,6 C 7,8 C 7,2 C 60 % 1027,4 hPa 0,0 l/m 9,4 km/h (2 Bft) O-NO 76 0 min 0,000 mm 0,0 UV-I 0 W/m 5,0 C 10,8 C 14,5 km/h (3 Bft) 92,00 %
22.03.2019 19:10 12,6 C 7,8 C 7,2 C 60 % 1027,4 hPa 0,0 l/m 8,3 km/h (2 Bft) O 99 0 min 0,000 mm 0,0 UV-I 0 W/m 5,0 C 11,4 C 11,3 km/h (2 Bft) 97,56 %
22.03.2019 19:12 12,5 C 7,8 C 7,8 C 60 % 1027,4 hPa 0,0 l/m 5,8 km/h (2 Bft) O 85 0 min 0,000 mm 0,0 UV-I 0 W/m 5,0 C 12,5 C 11,3 km/h (2 Bft) 96,00 %
22.03.2019 19:14 12,4 C 7,8 C 7,8 C 61 % 1027,4 hPa 0,0 l/m 6,9 km/h (2 Bft) O-NO 75 0 min 0,000 mm 0,0 UV-I 0 W/m 5,1 C 12,1 C 11,3 km/h (2 Bft) 97,92 %
22.03.2019 19:16 12,3 C 7,8 C 7,8 C 61 % 1027,4 hPa 0,0 l/m 8,1 km/h (2 Bft) O 101 0 min 0,000 mm 0,0 UV-I 0 W/m 5,0 C 11,2 C 12,9 km/h (3 Bft) 98,00 %
22.03.2019 19:18 12,2 C 7,8 C 7,8 C 61 % 1027,4 hPa 0,0 l/m 5,3 km/h (1 Bft) O 94 0 min 0,000 mm 0,0 UV-I 0 W/m 4,9 C 12,2 C 9,7 km/h (2 Bft) 97,37 %
22.03.2019 19:20 12,2 C 7,8 C 7,8 C 61 % 1027,4 hPa 0,0 l/m 5,6 km/h (1 Bft) O 93 0 min 0,000 mm 0,0 UV-I 0 W/m 4,9 C 12,2 C 11,3 km/h (2 Bft) 94,74 %
22.03.2019 19:22 12,1 C 7,8 C 7,8 C 62 % 1027,4 hPa 0,0 l/m 6,4 km/h (2 Bft) O-NO 65 0 min 0,000 mm 0,0 UV-I 0 W/m 5,0 C 12,1 C 11,3 km/h (2 Bft) 96,92 %
22.03.2019 19:24 12,0 C 7,8 C 7,2 C 62 % 1027,4 hPa 0,0 l/m 7,4 km/h (2 Bft) O 93 0 min 0,000 mm 0,0 UV-I 0 W/m 4,9 C 11,3 C 11,3 km/h (2 Bft) 98,00 %
22.03.2019 19:26 12,0 C 7,8 C 7,2 C 62 % 1027,5 hPa 0,0 l/m 6,0 km/h (2 Bft) O-NO 61 0 min 0,000 mm 0,0 UV-I 0 W/m 4,9 C 12,0 C 9,7 km/h (2 Bft) 97,37 %
22.03.2019 19:28 12,0 C 7,8 C 7,8 C 62 % 1027,5 hPa 0,0 l/m 5,3 km/h (1 Bft) O 89 0 min 0,000 mm 0,0 UV-I 0 W/m 4,9 C 12,0 C 9,7 km/h (2 Bft) 97,87 %
22.03.2019 19:30 11,9 C 7,8 C 7,8 C 62 % 1027,5 hPa 0,0 l/m 6,6 km/h (2 Bft) O 84 0 min 0,000 mm 0,0 UV-I 0 W/m 4,9 C 11,8 C 9,7 km/h (2 Bft) 98,00 %
22.03.2019 19:32 11,9 C 7,8 C 7,8 C 62 % 1027,5 hPa 0,0 l/m 5,4 km/h (1 Bft) O-SO 106 0 min 0,000 mm 0,0 UV-I 0 W/m 4,9 C 11,9 C 9,7 km/h (2 Bft) 98,00 %
22.03.2019 19:34 11,9 C 7,8 C 7,2 C 62 % 1027,5 hPa 0,0 l/m 6,0 km/h (2 Bft) O 93 0 min 0,000 mm 0,0 UV-I 0 W/m 4,9 C 11,9 C 9,7 km/h (2 Bft) 97,87 %
22.03.2019 19:36 11,9 C 7,8 C 7,2 C 62 % 1027,5 hPa 0,0 l/m 6,3 km/h (2 Bft) O-SO 105 0 min 0,000 mm 0,0 UV-I 0 W/m 4,9 C 11,9 C 11,3 km/h (2 Bft) 97,87 %
22.03.2019 19:38 11,9 C 7,8 C 7,2 C 62 % 1027,5 hPa 0,0 l/m 5,0 km/h (1 Bft) O-SO 105 0 min 0,000 mm 0,0 UV-I 0 W/m 4,9 C 11,9 C 9,7 km/h (2 Bft) 97,73 %
22.03.2019 19:40 11,9 C 7,8 C 7,2 C 62 % 1027,5 hPa 0,0 l/m 5,0 km/h (1 Bft) O-NO 76 0 min 0,000 mm 0,0 UV-I 0 W/m 4,9 C 11,9 C 6,4 km/h (2 Bft) 98,00 %
22.03.2019 19:42 11,8 C 7,8 C 7,2 C 62 % 1027,5 hPa 0,0 l/m 5,2 km/h (1 Bft) O 92 0 min 0,000 mm 0,0 UV-I 0 W/m 4,8 C 11,8 C 8,0 km/h (2 Bft) 97,37 %
22.03.2019 19:44 11,8 C 7,8 C 7,2 C 62 % 1027,5 hPa 0,0 l/m 4,5 km/h (1 Bft) O-NO 74 0 min 0,000 mm 0,0 UV-I 0 W/m 4,8 C 11,8 C 8,0 km/h (2 Bft) 97,87 %
22.03.2019 19:46 11,8 C 7,8 C 6,7 C 62 % 1027,6 hPa 0,0 l/m 5,6 km/h (1 Bft) O 82 0 min 0,000 mm 0,0 UV-I 0 W/m 4,8 C 11,8 C 9,7 km/h (2 Bft) 100,00 %
22.03.2019 19:48 11,8 C 7,8 C 7,2 C 62 % 1027,6 hPa 0,0 l/m 7,4 km/h (2 Bft) O 79 0 min 0,000 mm 0,0 UV-I 0 W/m 4,8 C 11,1 C 11,3 km/h (2 Bft) 100,00 %
22.03.2019 19:50 11,8 C 7,8 C 7,2 C 62 % 1027,7 hPa 0,0 l/m 7,3 km/h (2 Bft) O-NO 69 0 min 0,000 mm 0,0 UV-I 0 W/m 4,8 C 11,2 C 11,3 km/h (2 Bft) 100,00 %
22.03.2019 19:52 11,8 C 7,8 C 7,8 C 62 % 1027,7 hPa 0,0 l/m 7,8 km/h (2 Bft) O 86 0 min 0,000 mm 0,0 UV-I 0 W/m 4,8 C 10,9 C 12,9 km/h (3 Bft) 100,00 %
22.03.2019 19:54 11,7 C 7,8 C 7,8 C 62 % 1027,7 hPa 0,0 l/m 9,2 km/h (2 Bft) O 87 0 min 0,000 mm 0,0 UV-I 0 W/m 4,7 C 9,9 C 14,5 km/h (3 Bft) 100,00 %
22.03.2019 19:56 11,8 C 7,8 C 8,3 C 62 % 1027,7 hPa 0,0 l/m 9,3 km/h (2 Bft) O-NO 76 0 min 0,000 mm 0,0 UV-I 0 W/m 4,8 C 10,0 C 14,5 km/h (3 Bft) 98,00 %
22.03.2019 19:58 11,9 C 7,8 C 7,8 C 62 % 1027,7 hPa 0,0 l/m 8,7 km/h (2 Bft) O 86 0 min 0,000 mm 0,0 UV-I 0 W/m 4,9 C 10,4 C 12,9 km/h (3 Bft) 100,00 %
22.03.2019 20:00 11,9 C 7,8 C 7,8 C 62 % 1027,7 hPa 0,0 l/m 9,1 km/h (2 Bft) O-SO 116 0 min 0,026 mm 0,0 UV-I 0 W/m 4,9 C 10,2 C 14,5 km/h (3 Bft) 98,11 %
22.03.2019 20:02 11,9 C 7,8 C 7,8 C 61 % 1027,7 hPa 0,0 l/m 10,7 km/h (2 Bft) O-SO 117 0 min 0,000 mm 0,0 UV-I 0 W/m 4,6 C 9,3 C 16,1 km/h (3 Bft) 100,00 %
22.03.2019 20:04 12,1 C 7,8 C 7,8 C 61 % 1027,7 hPa 0,0 l/m 10,2 km/h (2 Bft) O 98 0 min 0,000 mm 0,0 UV-I 0 W/m 4,8 C 9,8 C 14,5 km/h (3 Bft) 100,00 %
22.03.2019 20:06 12,2 C 7,8 C 8,3 C 61 % 1027,7 hPa 0,0 l/m 11,2 km/h (2 Bft) O-SO 107 0 min 0,000 mm 0,0 UV-I 0 W/m 4,9 C 9,4 C 16,1 km/h (3 Bft) 100,00 %
22.03.2019 20:08 12,2 C 7,8 C 8,3 C 60 % 1027,7 hPa 0,0 l/m 11,9 km/h (2 Bft) O-SO 110 0 min 0,000 mm 0,0 UV-I 0 W/m 4,7 C 9,1 C 19,3 km/h (3 Bft) 97,37 %
22.03.2019 20:10 12,3 C 7,8 C 8,3 C 60 % 1027,7 hPa 0,0 l/m 14,0 km/h (3 Bft) O 91 0 min 0,000 mm 0,0 UV-I 0 W/m 4,8 C 8,3 C 19,3 km/h (3 Bft) 98,00 %
22.03.2019 20:12 12,3 C 7,8 C 8,3 C 60 % 1027,8 hPa 0,0 l/m 13,0 km/h (3 Bft) O 92 0 min 0,000 mm 0,0 UV-I 0 W/m 4,8 C 8,7 C 17,7 km/h (3 Bft) 97,56 %
22.03.2019 20:14 12,3 C 7,8 C 8,9 C 60 % 1027,7 hPa 0,0 l/m 12,2 km/h (2 Bft) O-SO 106 0 min 0,000 mm 0,0 UV-I 0 W/m 4,8 C 9,1 C 19,3 km/h (3 Bft) 97,78 %
22.03.2019 20:16 12,3 C 7,8 C 8,9 C 60 % 1027,7 hPa 0,0 l/m 11,6 km/h (2 Bft) O 98 0 min 0,000 mm 0,0 UV-I 0 W/m 4,8 C 9,3 C 19,3 km/h (3 Bft) 98,11 %
22.03.2019 20:18 12,3 C 7,8 C 8,9 C 60 % 1027,7 hPa 0,0 l/m 12,6 km/h (3 Bft) O-SO 103 0 min 0,000 mm 0,0 UV-I 0 W/m 4,8 C 8,9 C 17,7 km/h (3 Bft) 96,23 %
22.03.2019 20:20 12,2 C 7,8 C 8,9 C 60 % 1027,7 hPa 0,0 l/m 11,8 km/h (2 Bft) O 90 0 min 0,000 mm 0,0 UV-I 0 W/m 4,7 C 9,1 C 16,1 km/h (3 Bft) 97,37 %
22.03.2019 20:22 12,1 C 7,8 C 8,9 C 61 % 1027,7 hPa 0,0 l/m 12,0 km/h (2 Bft) O-SO 103 0 min 0,000 mm 0,0 UV-I 0 W/m 4,8 C 8,9 C 16,1 km/h (3 Bft) 98,08 %
22.03.2019 20:24 11,9 C 7,8 C 8,9 C 61 % 1027,7 hPa 0,0 l/m 9,1 km/h (2 Bft) O 98 0 min 0,000 mm 0,0 UV-I 0 W/m 4,6 C 10,2 C 14,5 km/h (3 Bft) 94,34 %
22.03.2019 20:26 11,8 C 7,8 C 8,3 C 62 % 1027,7 hPa 0,0 l/m 8,2 km/h (2 Bft) O 101 0 min 0,000 mm 0,0 UV-I 0 W/m 4,8 C 10,6 C 14,5 km/h (3 Bft) 100,00 %
22.03.2019 20:28 11,7 C 7,8 C 8,3 C 62 % 1027,7 hPa 0,0 l/m 9,5 km/h (2 Bft) O 92 0 min 0,000 mm 0,0 UV-I 0 W/m 4,7 C 9,7 C 14,5 km/h (3 Bft) 96,23 %
22.03.2019 20:30 11,7 C 7,8 C 8,3 C 62 % 1027,8 hPa 0,0 l/m 9,5 km/h (2 Bft) O-NO 76 0 min 0,000 mm 0,0 UV-I 0 W/m 4,7 C 9,7 C 14,5 km/h (3 Bft) 97,56 %
22.03.2019 20:32 11,7 C 7,8 C 8,3 C 62 % 1027,8 hPa 0,0 l/m 7,1 km/h (2 Bft) O 80 0 min 0,000 mm 0,0 UV-I 0 W/m 4,7 C 11,2 C 12,9 km/h (3 Bft) 97,78 %
22.03.2019 20:34 11,7 C 7,8 C 7,8 C 62 % 1027,8 hPa 0,0 l/m 6,6 km/h (2 Bft) O 88 0 min 0,000 mm 0,0 UV-I 0 W/m 4,7 C 11,6 C 9,7 km/h (2 Bft) 98,11 %
22.03.2019 20:36 11,6 C 7,8 C 7,8 C 63 % 1027,8 hPa 0,0 l/m 6,3 km/h (2 Bft) O-NO 78 0 min 0,000 mm 0,0 UV-I 0 W/m 4,8 C 11,6 C 12,9 km/h (3 Bft) 97,87 %
22.03.2019 20:38 11,4 C 7,8 C 7,8 C 63 % 1027,8 hPa 0,0 l/m 5,9 km/h (2 Bft) O 91 0 min 0,000 mm 0,0 UV-I 0 W/m 4,6 C 11,4 C 11,3 km/h (2 Bft) 95,12 %
22.03.2019 20:40 11,3 C 7,8 C 7,8 C 63 % 1027,8 hPa 0,0 l/m 6,3 km/h (2 Bft) O 80 0 min 0,000 mm 0,0 UV-I 0 W/m 4,5 C 11,3 C 9,7 km/h (2 Bft) 97,73 %
22.03.2019 20:42 11,2 C 7,8 C 7,2 C 64 % 1027,8 hPa 0,0 l/m 5,2 km/h (1 Bft) O 90 0 min 0,000 mm 0,0 UV-I 0 W/m 4,6 C 11,2 C 8,0 km/h (2 Bft) 97,73 %
22.03.2019 20:44 11,3 C 7,8 C 7,2 C 64 % 1027,8 hPa 0,0 l/m 7,9 km/h (2 Bft) O 89 0 min 0,000 mm 0,0 UV-I 0 W/m 4,7 C 10,3 C 12,9 km/h (3 Bft) 94,00 %
22.03.2019 20:46 11,2 C 7,8 C 7,2 C 64 % 1027,9 hPa 0,0 l/m 6,6 km/h (2 Bft) O 93 0 min 0,000 mm 0,0 UV-I 0 W/m 4,6 C 11,1 C 9,7 km/h (2 Bft) 98,21 %
22.03.2019 20:48 11,1 C 7,8 C 7,2 C 64 % 1027,9 hPa 0,0 l/m 8,0 km/h (2 Bft) O 101 0 min 0,000 mm 0,0 UV-I 0 W/m 4,6 C 10,0 C 11,3 km/h (2 Bft) 97,87 %
22.03.2019 20:50 11,2 C 7,8 C 7,2 C 64 % 1027,8 hPa 0,0 l/m 7,8 km/h (2 Bft) O 90 0 min 0,000 mm 0,0 UV-I 0 W/m 4,6 C 10,2 C 9,7 km/h (2 Bft) 95,74 %
22.03.2019 20:52 11,3 C 7,8 C 7,2 C 64 % 1027,8 hPa 0,0 l/m 7,2 km/h (2 Bft) O-NO 78 0 min 0,000 mm 0,0 UV-I 0 W/m 4,7 C 10,8 C 11,3 km/h (2 Bft) 97,37 %
22.03.2019 20:54 11,3 C 7,8 C 6,7 C 63 % 1027,9 hPa 0,0 l/m 5,0 km/h (1 Bft) O 87 0 min 0,000 mm 0,0 UV-I 0 W/m 4,5 C 11,3 C 9,7 km/h (2 Bft) 95,45 %
22.03.2019 20:56 11,2 C 7,8 C 6,7 C 63 % 1027,9 hPa 0,0 l/m 4,9 km/h (1 Bft) O-NO 76 0 min 0,000 mm 0,0 UV-I 0 W/m 4,4 C 11,2 C 8,0 km/h (2 Bft) 98,00 %
22.03.2019 20:58 11,1 C 7,8 C 6,7 C 64 % 1027,8 hPa 0,0 l/m 5,7 km/h (1 Bft) O 86 0 min 0,000 mm 0,0 UV-I 0 W/m 4,6 C 11,1 C 8,0 km/h (2 Bft) 96,23 %
22.03.2019 21:00 10,9 C 7,8 C 6,1 C 64 % 1027,9 hPa 0,0 l/m 4,9 km/h (1 Bft) O 100 0 min 0,051 mm 0,0 UV-I 0 W/m 4,4 C 10,9 C 6,4 km/h (2 Bft) 97,37 %
22.03.2019 21:02 10,7 C 7,8 C 5,0 C 65 % 1027,8 hPa 0,0 l/m 5,5 km/h (1 Bft) O 95 0 min 0,000 mm 0,0 UV-I 0 W/m 4,4 C 10,7 C 9,7 km/h (2 Bft) 95,74 %
22.03.2019 21:04 10,6 C 7,8 C 5,0 C 66 % 1027,8 hPa 0,0 l/m 4,9 km/h (1 Bft) O-SO 106 0 min 0,000 mm 0,0 UV-I 0 W/m 4,5 C 10,6 C 6,4 km/h (2 Bft) 98,00 %
22.03.2019 21:06 10,7 C 7,8 C 4,4 C 65 % 1027,8 hPa 0,0 l/m 6,1 km/h (2 Bft) O-SO 104 0 min 0,000 mm 0,0 UV-I 0 W/m 4,4 C 10,7 C 9,7 km/h (2 Bft) 97,78 %
22.03.2019 21:08 10,8 C 7,8 C 4,4 C 65 % 1027,8 hPa 0,0 l/m 6,1 km/h (2 Bft) O-SO 112 0 min 0,000 mm 0,0 UV-I 0 W/m 4,5 C 10,8 C 9,7 km/h (2 Bft) 100,00 %
22.03.2019 21:10 10,7 C 7,8 C 4,4 C 65 % 1027,7 hPa 0,0 l/m 5,3 km/h (1 Bft) O 98 0 min 0,000 mm 0,0 UV-I 0 W/m 4,4 C 10,7 C 9,7 km/h (2 Bft) 98,00 %
22.03.2019 21:12 10,8 C 7,8 C 4,4 C 65 % 1027,7 hPa 0,0 l/m 5,3 km/h (1 Bft) O 94 0 min 0,000 mm 0,0 UV-I 0 W/m 4,5 C 10,8 C 9,7 km/h (2 Bft) 100,00 %
22.03.2019 21:14 10,7 C 7,8 C 3,9 C 65 % 1027,7 hPa 0,0 l/m 5,5 km/h (1 Bft) O 92 0 min 0,000 mm 0,0 UV-I 0 W/m 4,4 C 10,7 C 9,7 km/h (2 Bft) 100,00 %
22.03.2019 21:16 10,6 C 7,8 C 3,9 C 66 % 1027,7 hPa 0,0 l/m 5,7 km/h (1 Bft) O 95 0 min 0,000 mm 0,0 UV-I 0 W/m 4,5 C 10,6 C 6,4 km/h (2 Bft) 100,00 %
22.03.2019 21:18 10,6 C 7,8 C 3,9 C 66 % 1027,7 hPa 0,0 l/m 5,6 km/h (1 Bft) O 84 0 min 0,000 mm 0,0 UV-I 0 W/m 4,5 C 10,6 C 9,7 km/h (2 Bft) 100,00 %
22.03.2019 21:20 10,7 C 7,8 C 3,9 C 65 % 1027,7 hPa 0,0 l/m 4,9 km/h (1 Bft) O 98 0 min 0,000 mm 0,0 UV-I 0 W/m 4,4 C 10,7 C 6,4 km/h (2 Bft) 100,00 %
22.03.2019 21:22 10,7 C 7,8 C 3,9 C 65 % 1027,6 hPa 0,0 l/m 5,3 km/h (1 Bft) O-SO 102 0 min 0,000 mm 0,0 UV-I 0 W/m 4,4 C 10,7 C 6,4 km/h (2 Bft) 100,00 %
22.03.2019 21:24 10,7 C 7,8 C 3,9 C 65 % 1027,6 hPa 0,0 l/m 4,9 km/h (1 Bft) O 94 0 min 0,000 mm 0,0 UV-I 0 W/m 4,4 C 10,7 C 6,4 km/h (2 Bft) 98,11 %
22.03.2019 21:26 10,8 C 7,8 C 3,9 C 65 % 1027,6 hPa 0,0 l/m 3,6 km/h (1 Bft) O 91 0 min 0,000 mm 0,0 UV-I 0 W/m 4,5 C 10,8 C 4,8 km/h (1 Bft) 100,00 %
22.03.2019 21:28 10,8 C 7,8 C 3,3 C 65 % 1027,6 hPa 0,0 l/m 4,0 km/h (1 Bft) O-NO 74 0 min 0,000 mm 0,0 UV-I 0 W/m 4,5 C 10,8 C 4,8 km/h (1 Bft) 97,37 %
22.03.2019 21:30 10,7 C 7,8 C 3,3 C 65 % 1027,6 hPa 0,0 l/m 3,9 km/h (1 Bft) O-NO 72 0 min 0,000 mm 0,0 UV-I 0 W/m 4,4 C 10,7 C 4,8 km/h (1 Bft) 96,23 %
22.03.2019 21:32 10,6 C 7,8 C 3,3 C 65 % 1027,6 hPa 0,0 l/m 3,3 km/h (1 Bft) O-NO 62 0 min 0,000 mm 0,0 UV-I 0 W/m 4,3 C 10,6 C 4,8 km/h (1 Bft) 97,73 %
22.03.2019 21:34 10,4 C 7,8 C 2,8 C 66 % 1027,7 hPa 0,0 l/m 3,6 km/h (1 Bft) O-NO 62 0 min 0,000 mm 0,0 UV-I 0 W/m 4,3 C 10,4 C 4,8 km/h (1 Bft) 98,00 %
22.03.2019 21:36 10,3 C 7,8 C 2,8 C 66 % 1027,7 hPa 0,0 l/m 2,5 km/h (1 Bft) O-NO 62 0 min 0,000 mm 0,0 UV-I 0 W/m 4,2 C 10,3 C 4,8 km/h (1 Bft) 97,56 %
22.03.2019 21:38 10,2 C 7,8 C 2,2 C 67 % 1027,7 hPa 0,0 l/m 1,9 km/h (1 Bft) O-NO 62 0 min 0,000 mm 0,0 UV-I 0 W/m 4,4 C 10,2 C 3,2 km/h (1 Bft) 97,87 %
22.03.2019 21:40 10,2 C 7,8 C 2,2 C 67 % 1027,7 hPa 0,0 l/m 2,8 km/h (1 Bft) O-NO 62 0 min 0,000 mm 0,0 UV-I 0 W/m 4,4 C 10,2 C 4,8 km/h (1 Bft) 96,00 %
22.03.2019 21:42 10,2 C 7,8 C 1,7 C 67 % 1027,8 hPa 0,0 l/m 2,8 km/h (1 Bft) O-NO 62 0 min 0,000 mm 0,0 UV-I 0 W/m 4,4 C 10,2 C 4,8 km/h (1 Bft) 98,00 %
22.03.2019 21:44 10,2 C 7,8 C 1,7 C 67 % 1027,8 hPa 0,0 l/m 2,9 km/h (1 Bft) O-NO 62 0 min 0,000 mm 0,0 UV-I 0 W/m 4,4 C 10,2 C 4,8 km/h (1 Bft) 97,56 %
22.03.2019 21:46 10,2 C 7,8 C 1,7 C 67 % 1027,8 hPa 0,0 l/m 2,6 km/h (1 Bft) O-NO 62 0 min 0,000 mm 0,0 UV-I 0 W/m 4,4 C 10,2 C 4,8 km/h (1 Bft) 95,74 %
22.03.2019 21:48 10,2 C 7,8 C 1,1 C 67 % 1027,8 hPa 0,0 l/m 2,1 km/h (1 Bft) O-NO 62 0 min 0,000 mm 0,0 UV-I 0 W/m 4,4 C 10,2 C 3,2 km/h (1 Bft) 97,92 %
22.03.2019 21:50 10,2 C 7,8 C 1,1 C 67 % 1027,8 hPa 0,0 l/m 1,7 km/h (1 Bft) O-NO 62 0 min 0,000 mm 0,0 UV-I 0 W/m 4,4 C 10,2 C 3,2 km/h (1 Bft) 98,00 %
22.03.2019 21:52 10,2 C 7,8 C 1,1 C 67 % 1027,7 hPa 0,0 l/m 0,8 km/h (0 Bft) O-NO 62 0 min 0,000 mm 0,0 UV-I 0 W/m 4,4 C 10,2 C 1,6 km/h (1 Bft) 100,00 %
22.03.2019 21:54 10,1 C 7,8 C 1,1 C 67 % 1027,8 hPa 0,0 l/m 0,3 km/h (0 Bft) O-NO 62 0 min 0,000 mm 0,0 UV-I 0 W/m 4,3 C 10,1 C 1,6 km/h (1 Bft) 100,00 %
22.03.2019 21:56 9,9 C 7,8 C 1,1 C 67 % 1027,8 hPa 0,0 l/m 0,0 km/h (0 Bft) O-NO 62 0 min 0,000 mm 0,0 UV-I 0 W/m 4,1 C 9,9 C 0,0 km/h (0 Bft) 100,00 %
22.03.2019 21:58 9,8 C 7,8 C 1,1 C 68 % 1027,8 hPa 0,0 l/m 0,0 km/h (0 Bft) O-NO 62 0 min 0,000 mm 0,0 UV-I 0 W/m 4,2 C 9,8 C 0,0 km/h (0 Bft) 100,00 %
22.03.2019 22:00 9,7 C 7,8 C 1,1 C 68 % 1027,7 hPa 0,0 l/m 0,0 km/h (0 Bft) O-NO 62 0 min 0,025 mm 0,0 UV-I 0 W/m 4,1 C 9,7 C 0,0 km/h (0 Bft) 100,00 %
22.03.2019 22:02 9,5 C 7,8 C 1,1 C 69 % 1027,7 hPa 0,0 l/m 0,0 km/h (0 Bft) O-NO 62 0 min 0,000 mm 0,0 UV-I 0 W/m 4,1 C 9,5 C 0,0 km/h (0 Bft) 100,00 %
22.03.2019 22:04 9,3 C 7,8 C 0,6 C 69 % 1027,7 hPa 0,0 l/m 0,0 km/h (0 Bft) O-NO 62 0 min 0,000 mm 0,0 UV-I 0 W/m 3,9 C 9,3 C 0,0 km/h (0 Bft) 100,00 %
22.03.2019 22:06 9,2 C 7,8 C 0,6 C 70 % 1027,7 hPa 0,0 l/m 0,0 km/h (0 Bft) O-NO 62 0 min 0,000 mm 0,0 UV-I 0 W/m 4,0 C 9,2 C 0,0 km/h (0 Bft) 100,00 %
22.03.2019 22:08 8,8 C 7,8 C 0,6 C 71 % 1027,6 hPa 0,0 l/m 0,0 km/h (0 Bft) O-NO 62 0 min 0,000 mm 0,0 UV-I 0 W/m 3,8 C 8,8 C 0,0 km/h (0 Bft) 100,00 %
22.03.2019 22:10 8,6 C 7,8 C 1,1 C 72 % 1027,7 hPa 0,0 l/m 0,0 km/h (0 Bft) O-NO 62 0 min 0,000 mm 0,0 UV-I 0 W/m 3,8 C 8,6 C 0,0 km/h (0 Bft) 100,00 %
22.03.2019 22:12 8,2 C 7,8 C 1,1 C 74 % 1027,6 hPa 0,0 l/m 0,0 km/h (0 Bft) O-NO 62 0 min 0,000 mm 0,0 UV-I 0 W/m 3,8 C 8,2 C 0,0 km/h (0 Bft) 100,00 %
22.03.2019 22:14 8,0 C 7,8 C 1,1 C 74 % 1027,6 hPa 0,0 l/m 0,7 km/h (0 Bft) O-NO 62 0 min 0,000 mm 0,0 UV-I 0 W/m 3,7 C 8,0 C 1,6 km/h (1 Bft) 100,00 %
22.03.2019 22:16 7,9 C 7,8 C 1,1 C 76 % 1027,7 hPa 0,0 l/m 0,9 km/h (0 Bft) O-NO 62 0 min 0,000 mm 0,0 UV-I 0 W/m 3,9 C 7,9 C 1,6 km/h (1 Bft) 100,00 %
22.03.2019 22:18 8,0 C 7,8 C 1,1 C 76 % 1027,7 hPa 0,0 l/m 0,8 km/h (0 Bft) O-NO 62 0 min 0,000 mm 0,0 UV-I 0 W/m 4,0 C 8,0 C 1,6 km/h (1 Bft) 100,00 %
22.03.2019 22:20 8,2 C 7,8 C 1,1 C 75 % 1027,6 hPa 0,0 l/m 0,2 km/h (0 Bft) O-NO 62 0 min 0,000 mm 0,0 UV-I 0 W/m 4,0 C 8,2 C 1,6 km/h (1 Bft) 97,87 %
22.03.2019 22:22 8,4 C 7,8 C 1,1 C 74 % 1027,6 hPa 0,0 l/m 0,4 km/h (0 Bft) O-NO 62 0 min 0,000 mm 0,0 UV-I 0 W/m 4,0 C 8,4 C 1,6 km/h (1 Bft) 98,00 %
22.03.2019 22:24 8,6 C 7,8 C 0,6 C 74 % 1027,6 hPa 0,0 l/m 0,0 km/h (0 Bft) O-NO 62 0 min 0,000 mm 0,0 UV-I 0 W/m 4,2 C 8,6 C 0,0 km/h (0 Bft) 100,00 %
22.03.2019 22:26 8,6 C 7,8 C 1,1 C 73 % 1027,6 hPa 0,0 l/m 0,0 km/h (0 Bft) O-NO 62 0 min 0,000 mm 0,0 UV-I 0 W/m 4,0 C 8,6 C 0,0 km/h (0 Bft) 100,00 %
22.03.2019 22:28 8,7 C 7,8 C 0,6 C 72 % 1027,5 hPa 0,0 l/m 0,0 km/h (0 Bft) O-NO 62 0 min 0,000 mm 0,0 UV-I 0 W/m 3,9 C 8,7 C 0,0 km/h (0 Bft) 98,00 %
22.03.2019 22:30 8,6 C 7,8 C 0,6 C 73 % 1027,6 hPa 0,0 l/m 0,0 km/h (0 Bft) O-NO 62 0 min 0,000 mm 0,0 UV-I 0 W/m 4,0 C 8,6 C 0,0 km/h (0 Bft) 100,00 %
22.03.2019 22:32 8,4 C 7,8 C 1,1 C 73 % 1027,5 hPa 0,0 l/m 0,0 km/h (0 Bft) O-NO 62 0 min 0,000 mm 0,0 UV-I 0 W/m 3,8 C 8,4 C 0,0 km/h (0 Bft) 100,00 %
22.03.2019 22:34 8,0 C 7,8 C 1,1 C 74 % 1027,6 hPa 0,0 l/m 0,0 km/h (0 Bft) O-NO 62 0 min 0,000 mm 0,0 UV-I 0 W/m 3,7 C 8,0 C 0,0 km/h (0 Bft) 100,00 %
22.03.2019 22:36 7,7 C 7,8 C 1,1 C 76 % 1027,5 hPa 0,0 l/m 0,0 km/h (0 Bft) O-NO 62 0 min 0,000 mm 0,0 UV-I 0 W/m 3,7 C 7,7 C 0,0 km/h (0 Bft) 100,00 %
22.03.2019 22:38 7,3 C 7,8 C 1,7 C 76 % 1027,5 hPa 0,0 l/m 0,0 km/h (0 Bft) O-NO 62 0 min 0,000 mm 0,0 UV-I 0 W/m 3,4 C 7,3 C 0,0 km/h (0 Bft) 100,00 %
22.03.2019 22:40 7,2 C 7,8 C 1,1 C 78 % 1027,5 hPa 0,0 l/m 0,0 km/h (0 Bft) O-NO 62 0 min 0,000 mm 0,0 UV-I 0 W/m 3,6 C 7,2 C 0,0 km/h (0 Bft) 97,87 %
22.03.2019 22:42 7,2 C 7,8 C 1,1 C 78 % 1027,5 hPa 0,0 l/m 0,0 km/h (0 Bft) O-NO 62 0 min 0,000 mm 0,0 UV-I 0 W/m 3,6 C 7,2 C 0,0 km/h (0 Bft) 97,37 %
22.03.2019 22:44 7,1 C 7,8 C 1,1 C 78 % 1027,5 hPa 0,0 l/m 0,0 km/h (0 Bft) O-NO 62 0 min 0,000 mm 0,0 UV-I 0 W/m 3,5 C 7,1 C 0,0 km/h (0 Bft) 91,49 %
22.03.2019 22:46 7,2 C 7,8 C 1,1 C 79 % 1027,6 hPa 0,0 l/m 0,0 km/h (0 Bft) O-NO 62 0 min 0,000 mm 0,0 UV-I 0 W/m 3,8 C 7,2 C 0,0 km/h (0 Bft) 95,74 %
22.03.2019 22:48 7,2 C 7,8 C 1,1 C 79 % 1027,6 hPa 0,0 l/m 0,0 km/h (0 Bft) O-NO 62 0 min 0,000 mm 0,0 UV-I 0 W/m 3,8 C 7,2 C 0,0 km/h (0 Bft) 96,23 %
22.03.2019 22:50 7,2 C 7,8 C 0,6 C 79 % 1027,6 hPa 0,0 l/m 0,0 km/h (0 Bft) O-NO 62 0 min 0,000 mm 0,0 UV-I 0 W/m 3,8 C 7,2 C 0,0 km/h (0 Bft) 95,74 %
22.03.2019 22:52 7,2 C 7,8 C 0,6 C 79 % 1027,6 hPa 0,0 l/m 0,0 km/h (0 Bft) O-NO 62 0 min 0,000 mm 0,0 UV-I 0 W/m 3,8 C 7,2 C 0,0 km/h (0 Bft) 94,74 %
22.03.2019 22:54 7,0 C 7,8 C 0,6 C 78 % 1027,6 hPa 0,0 l/m 0,0 km/h (0 Bft) O-NO 62 0 min 0,000 mm 0,0 UV-I 0 W/m 3,4 C 7,0 C 0,0 km/h (0 Bft) 96,00 %
22.03.2019 22:56 6,8 C 7,8 C 0,6 C 79 % 1027,6 hPa 0,0 l/m 0,0 km/h (0 Bft) O-NO 62 0 min 0,000 mm 0,0 UV-I 0 W/m 3,4 C 6,8 C 0,0 km/h (0 Bft) 96,23 %
22.03.2019 22:58 6,7 C 7,8 C 1,1 C 80 % 1027,6 hPa 0,0 l/m 0,1 km/h (0 Bft) O-NO 62 0 min 0,000 mm 0,0 UV-I 0 W/m 3,5 C 6,7 C 1,6 km/h (1 Bft) 94,44 %
22.03.2019 23:00 6,5 C 7,8 C 1,1 C 79 % 1027,7 hPa 0,0 l/m 3,6 km/h (1 Bft) S-SO 148 0 min 0,000 mm 0,0 UV-I 0 W/m 3,1 C 6,5 C 4,8 km/h (1 Bft) 94,55 %
22.03.2019 23:02 6,4 C 7,8 C 1,1 C 80 % 1027,7 hPa 0,0 l/m 4,3 km/h (1 Bft) S-SO 148 0 min 0,000 mm 0,0 UV-I 0 W/m 3,2 C 6,4 C 4,8 km/h (1 Bft) 95,74 %
22.03.2019 23:04 6,3 C 7,8 C 1,1 C 80 % 1027,7 hPa 0,0 l/m 4,4 km/h (1 Bft) S-SO 148 0 min 0,000 mm 0,0 UV-I 0 W/m 3,1 C 6,3 C 4,8 km/h (1 Bft) 97,92 %
22.03.2019 23:06 6,1 C 7,8 C 1,1 C 81 % 1027,7 hPa 0,0 l/m 4,6 km/h (1 Bft) S-SO 148 0 min 0,000 mm 0,0 UV-I 0 W/m 3,1 C 6,1 C 4,8 km/h (1 Bft) 95,74 %
22.03.2019 23:09 5,8 C 7,8 C 0,6 C 83 % 1027,7 hPa 0,0 l/m 3,7 km/h (1 Bft) S-SO 148 0 min 0,000 mm 0,0 UV-I 0 W/m 3,1 C 5,8 C 4,8 km/h (1 Bft) 94,03 %
22.03.2019 23:10 5,7 C 7,8 C 0,6 C 83 % 1027,7 hPa 0,0 l/m 4,0 km/h (1 Bft) S-SO 148 0 min 0,000 mm 0,0 UV-I 0 W/m 3,0 C 5,7 C 4,8 km/h (1 Bft) 100,00 %
22.03.2019 23:12 5,7 C 7,8 C 0,6 C 84 % 1027,7 hPa 0,0 l/m 5,6 km/h (1 Bft) S-SO 166 0 min 0,000 mm 0,0 UV-I 0 W/m 3,2 C 5,7 C 8,0 km/h (2 Bft) 95,12 %
22.03.2019 23:14 5,7 C 7,8 C 1,1 C 84 % 1027,6 hPa 0,0 l/m 5,6 km/h (1 Bft) S 174 0 min 0,000 mm 0,0 UV-I 0 W/m 3,2 C 5,7 C 8,0 km/h (2 Bft) 96,00 %
22.03.2019 23:16 5,9 C 7,8 C 2,2 C 84 % 1027,7 hPa 0,0 l/m 4,8 km/h (1 Bft) S 178 0 min 0,000 mm 0,0 UV-I 0 W/m 3,4 C 5,9 C 8,0 km/h (2 Bft) 92,00 %
22.03.2019 23:19 5,9 C 7,8 C 2,2 C 83 % 1027,6 hPa 0,0 l/m 4,7 km/h (1 Bft) S 178 0 min 0,000 mm 0,0 UV-I 0 W/m 3,2 C 5,9 C 6,4 km/h (2 Bft) 95,89 %
22.03.2019 23:20 5,8 C 7,8 C 2,2 C 83 % 1027,6 hPa 0,0 l/m 4,9 km/h (1 Bft) S 178 0 min 0,000 mm 0,0 UV-I 0 W/m 3,1 C 5,8 C 6,4 km/h (2 Bft) 91,67 %
22.03.2019 23:22 5,7 C 7,8 C 2,2 C 83 % 1027,7 hPa 0,0 l/m 5,6 km/h (1 Bft) S 190 0 min 0,000 mm 0,0 UV-I 0 W/m 3,0 C 5,7 C 6,4 km/h (2 Bft) 95,74 %
22.03.2019 23:24 5,7 C 7,8 C 2,2 C 84 % 1027,7 hPa 0,0 l/m 5,8 km/h (2 Bft) S 190 0 min 0,000 mm 0,0 UV-I 0 W/m 3,2 C 5,7 C 6,4 km/h (2 Bft) 94,00 %
22.03.2019 23:26 5,9 C 7,8 C 2,2 C 84 % 1027,7 hPa 0,0 l/m 4,9 km/h (1 Bft) S 190 0 min 0,000 mm 0,0 UV-I 0 W/m 3,4 C 5,9 C 6,4 km/h (2 Bft) 97,87 %
22.03.2019 23:28 5,8 C 7,8 C 2,2 C 82 % 1027,7 hPa 0,0 l/m 4,4 km/h (1 Bft) S-SW 192 0 min 0,000 mm 0,0 UV-I 0 W/m 3,0 C 5,8 C 6,4 km/h (2 Bft) 98,00 %
22.03.2019 23:30 5,7 C 7,8 C 2,8 C 83 % 1027,7 hPa 0,0 l/m 5,1 km/h (1 Bft) S-SW 192 0 min 0,000 mm 0,0 UV-I 0 W/m 3,0 C 5,7 C 6,4 km/h (2 Bft) 97,87 %
22.03.2019 23:32 5,5 C 7,8 C 2,8 C 83 % 1027,7 hPa 0,0 l/m 5,0 km/h (1 Bft) S-SW 192 0 min 0,000 mm 0,0 UV-I 0 W/m 2,8 C 5,5 C 6,4 km/h (2 Bft) 96,00 %
22.03.2019 23:34 5,4 C 7,8 C 2,2 C 84 % 1027,7 hPa 0,0 l/m 5,4 km/h (1 Bft) S-SW 192 0 min 0,000 mm 0,0 UV-I 0 W/m 2,9 C 5,4 C 6,4 km/h (2 Bft) 97,87 %
22.03.2019 23:36 5,4 C 7,8 C 1,7 C 84 % 1027,6 hPa 0,0 l/m 4,2 km/h (1 Bft) S-SW 192 0 min 0,000 mm 0,0 UV-I 0 W/m 2,9 C 5,4 C 6,4 km/h (2 Bft) 97,87 %
22.03.2019 23:39 5,4 C 7,8 C 1,7 C 85 % 1027,7 hPa 0,0 l/m 4,8 km/h (1 Bft) S-SW 192 0 min 0,000 mm 0,0 UV-I 0 W/m 3,1 C 5,4 C 6,4 km/h (2 Bft) 96,77 %
22.03.2019 23:40 5,4 C 7,8 C 1,7 C 84 % 1027,7 hPa 0,0 l/m 4,7 km/h (1 Bft) S-SW 192 0 min 0,000 mm 0,0 UV-I 0 W/m 2,9 C 5,4 C 6,4 km/h (2 Bft) 100,00 %
22.03.2019 23:42 5,4 C 7,8 C 1,7 C 84 % 1027,6 hPa 0,0 l/m 4,9 km/h (1 Bft) S-SW 196 0 min 0,000 mm 0,0 UV-I 0 W/m 2,9 C 5,4 C 6,4 km/h (2 Bft) 96,00 %
22.03.2019 23:44 5,3 C 7,8 C 1,7 C 84 % 1027,6 hPa 0,0 l/m 5,1 km/h (1 Bft) S-SW 197 0 min 0,000 mm 0,0 UV-I 0 W/m 2,8 C 5,3 C 6,4 km/h (2 Bft) 98,00 %
22.03.2019 23:46 5,4 C 7,8 C 1,1 C 85 % 1027,6 hPa 0,0 l/m 6,7 km/h (2 Bft) SW 217 0 min 0,000 mm 0,0 UV-I 0 W/m 3,1 C 5,2 C 9,7 km/h (2 Bft) 97,56 %
22.03.2019 23:49 5,6 C 7,8 C 1,7 C 84 % 1027,6 hPa 0,0 l/m 6,0 km/h (2 Bft) S-SW 203 0 min 0,000 mm 0,0 UV-I 0 W/m 3,1 C 5,6 C 8,0 km/h (2 Bft) 98,63 %
22.03.2019 23:50 5,6 C 7,8 C 1,7 C 84 % 1027,6 hPa 0,0 l/m 6,9 km/h (2 Bft) S-SW 204 0 min 0,000 mm 0,0 UV-I 0 W/m 3,1 C 5,2 C 8,0 km/h (2 Bft) 95,83 %
22.03.2019 23:52 5,8 C 7,8 C 2,2 C 84 % 1027,6 hPa 0,0 l/m 6,4 km/h (2 Bft) S-SW 207 0 min 0,000 mm 0,0 UV-I 0 W/m 3,3 C 5,8 C 8,0 km/h (2 Bft) 97,56 %
22.03.2019 23:54 6,0 C 7,8 C 2,2 C 83 % 1027,6 hPa 0,0 l/m 5,5 km/h (1 Bft) S-SW 200 0 min 0,000 mm 0,0 UV-I 0 W/m 3,3 C 6,0 C 8,0 km/h (2 Bft) 98,00 %
22.03.2019 23:56 6,1 C 7,8 C 2,8 C 82 % 1027,5 hPa 0,0 l/m 5,1 km/h (1 Bft) S-SW 200 0 min 0,000 mm 0,0 UV-I 0 W/m 3,3 C 6,1 C 6,4 km/h (2 Bft) 97,87 %
22.03.2019 23:58 6,0 C 7,8 C 2,8 C 82 % 1027,5 hPa 0,0 l/m 5,2 km/h (1 Bft) S-SW 205 0 min 0,000 mm 0,0 UV-I 0 W/m 3,2 C 6,0 C 6,4 km/h (2 Bft) 95,12 %
_ Min-Zeit 06:26 00:00 05:44 14:50 18:04 - 02:56 - - - - - - 04:52 06:26 02:56 13:10
Minimum _ -0,8 C 7,2 C -6,1 C 44 % 1027,2 hPa - 0,0 km/h (0 Bft) - - - - - - -3,0 C -0,8 C 0,0 km/h (0 Bft) 89,36 %
_ Max-Zeit 15:02 12:38 12:38 05:44 00:10 00:00 13:26 - - 10:54 13:00 12:30 12:30 13:58 17:24 13:28 00:28
Maximum _ 17,4 C 7,8 C 25,6 C 87 % 1031,9 hPa 0,0 l/m 27,4 km/h
O (4 Bft)
- - 8 min 0,483 mm 2,9 UV-I 745 W/m 6,3 C 15,6 C 37,0 km/h
O-NO (5 Bft)
100,00 %
Durchschnitt _ 8,7 C 7,5 C 8,0 C 65 % 1029,4 hPa #0,0 l/m 9,2 km/h (2 Bft) O - #11:54 h #3,556 mm 1,7 UV-I 372 W/m 2,0 C 6,8 C 13,0 km/h (3 Bft) 97,58 %